[[[{"header":{"parameterUnit":"kt","parameterCategory":2,"dx":1,"dy":1,"la1":29.587661999999998,"la2":31.0,"lo1":-88.76705300000003,"lo2":-86.6583820000003,"nx":115,"ny":88,"refTime":"2022-10-19T06:00:00:Z","depth":0,"parameterNumber":1,"parameterNumberName":"U-component_of_WINDS"},"data":[-7.0047,-7.0047,-7.0047,-7.0047,-7.0047,-7.0047,-7.0047,-7.0047,-7.0047,-7.0047,-7.0047,-7.0047,-7.0047,-7.0047,-7.0047,-7.0047,-7.0047,-7.0047,-7.0047,-6.9743,-6.8224,-6.7655,-6.6591,-6.4835,-6.3455,-6.2526,-6.1742,-6.1243,-6.0993,-6.0993,-6.0993,-6.0993,-6.0868,-6.0868,-6.0868,-6.0492,-5.9326,-5.7521,-5.5066,-5.2362,-5.0414,-4.9107,-4.7691,-4.6399,-4.5233,-4.4967,-4.4568,-4.4435,-4.4513,-4.4591,-4.4694,-4.4616,-4.4591,-4.4431,-4.4235,-4.3714,-4.3287,-4.2884,-4.2674,-4.2423,-4.2565,-4.2798,-4.2939,-4.3178,-4.3248,-4.3436,-4.3436,-4.3436,-4.3436,-4.3436,-4.3436,-4.3436,-4.3436,-4.3436,-4.3436,-4.2977,-4.2832,-4.1184,-3.9849,-3.8657,-3.6896,-3.5405,-3.4372,-3.2746,-3.1263,-3.052,-2.9479,-2.8585,-2.7541,-2.5597,-2.3798,-2.2458,-2.1126,-2.0372,-1.9476,-1.9627,-1.9476,-1.9476,-1.955,-1.9804,-2.0068,-2.0353,-2.0586,-2.0797,-2.086,-2.0818,-2.0734,-2.0649,-2.0596,-2.0554,-2.0522,-2.0491,-2.0533,-2.0522,-2.0448,-7.0047,-7.0047,-7.0047,-7.0047,-7.0047,-7.0047,-7.0047,-7.0047,-7.0047,-7.0047,-7.0047,-7.0047,-7.0047,-7.0047,-7.0047,-7.0047,-7.0047,-7.0047,-7.0047,-6.9553,-6.8224,-6.7655,-6.6605,-6.5247,-6.415,-6.3233,-6.2401,-6.1779,-6.1118,-6.0993,-6.0993,-6.0993,-6.0993,-6.0993,-6.0993,-6.0993,-6.0868,-5.9451,-5.7267,-5.4681,-5.3364,-5.2042,-5.0443,-4.9136,-4.7823,-4.6796,-4.5233,-4.4672,-4.4798,-4.498,-4.5214,-4.5006,-4.4824,-4.4642,-4.4555,-4.4408,-4.3846,-4.3533,-4.3543,-4.2824,-4.2826,-4.3083,-4.3127,-4.3366,-4.3366,-4.3436,-4.3436,-4.3436,-4.3436,-4.3436,-4.3436,-4.3436,-4.3436,-4.3436,-4.3436,-4.3268,-4.3268,-4.2832,-4.2541,-4.2518,-4.0455,-3.8364,-3.6729,-3.4962,-3.3781,-3.319,-3.2301,-3.156,-3.052,-2.9016,-2.7526,-2.6046,-2.336,-2.1277,-1.9929,-1.9627,-1.9476,-1.9476,-1.9518,-1.9783,-2.0078,-2.0469,-2.0755,-2.086,-2.0776,-2.0702,-2.0628,-2.0459,-2.048,-2.048,-2.0406,-2.0343,-2.0364,-2.03,-2.0226,-7.0047,-7.0047,-7.0047,-7.0047,-7.0047,-7.0047,-7.0047,-7.0047,-7.0047,-7.0047,-7.0047,-7.0047,-7.0047,-7.0047,-7.0047,-7.0047,-7.0047,-7.0047,-6.9971,-6.9515,-6.8452,-6.7655,-6.6655,-6.5546,-6.4608,-6.3851,-6.2898,-6.2028,-6.1118,-6.0993,-6.0993,-6.0993,-6.0993,-6.0993,-6.0993,-6.0993,-6.0993,-6.0868,-5.8189,-5.6376,-5.545,-5.4874,-5.3779,-5.2147,-5.0929,-4.9786,-4.8355,-4.7452,-4.6808,-4.6039,-4.5922,-4.5525,-4.5422,-4.5084,-4.513,-4.4868,-4.4559,-4.4009,-4.3839,-4.3457,-4.3085,-4.3135,-4.3253,-4.3272,-4.3319,-4.3436,-4.3436,-4.3436,-4.3436,-4.3436,-4.3436,-4.3436,-4.3436,-4.3436,-4.3436,-4.3436,-4.3436,-4.3436,-4.3291,-4.3268,-4.2395,-4.0601,-3.9702,-3.8071,-3.763,-3.7043,-3.6288,-3.5552,-3.4372,-3.2876,-3.156,-2.9628,-2.576,-2.3072,-2.1428,-2.0673,-1.9778,-1.9476,-1.9476,-1.9772,-2.011,-2.0554,-2.0818,-2.0702,-2.0617,-2.0554,-2.0385,-2.0174,-2.0163,-2.0237,-2.0216,-2.0184,-2.0121,-2.0068,-1.9941,-7.0047,-7.0047,-7.0047,-7.0047,-7.0047,-7.0047,-7.0047,-7.0047,-7.0047,-7.0047,-7.0047,-7.0047,-7.0047,-7.0047,-7.0047,-7.0047,-7.0047,-7.0009,-6.9895,-6.9173,-6.8186,-6.7389,-6.682,-6.5519,-6.4742,-6.4098,-6.3481,-6.2613,-6.1742,-6.1243,-6.0993,-6.0993,-6.0993,-6.0993,-6.0993,-6.0993,-6.0993,-6.0993,-5.936,-5.8384,-5.824,-5.7959,-5.7356,-5.561,-5.4496,-5.3558,-5.1549,-5.0487,-4.8765,-4.7556,-4.6945,-4.6443,-4.6382,-4.5837,-4.5614,-4.5508,-4.5103,-4.4889,-4.468,-4.4363,-4.3942,-4.3707,-4.354,-4.3419,-4.3248,-4.3366,-4.3436,-4.3436,-4.3436,-4.3436,-4.3436,-4.3436,-4.3436,-4.3436,-4.3436,-4.3436,-4.3436,-4.3436,-4.3436,-4.3436,-4.3436,-4.2832,-4.2518,-4.1936,-4.1622,-4.0893,-3.9995,-3.8824,-3.7484,-3.6622,-3.5148,-3.2022,-2.8153,-2.5311,-2.3373,-2.2018,-2.007,-1.9476,-1.9712,-1.9979,-2.0121,-2.0427,-2.0681,-2.0565,-2.0438,-2.03,-2.0142,-1.9952,-1.9888,-1.993,-1.9941,-1.9994,-1.9941,-1.9856,-1.9677,-7.0047,-7.0047,-7.0047,-7.0047,-7.0047,-7.0047,-7.0047,-7.0047,-7.0047,-7.0047,-7.0047,-7.0047,-7.0047,-7.0047,-7.0047,-7.0047,-7.0047,-7.0009,-6.9705,-6.8832,-6.7883,-6.7085,-6.6402,-6.5453,-6.4912,-6.4591,-6.4098,-6.3233,-6.265,-6.1742,-6.0993,-6.0993,-6.0993,-6.0993,-6.0993,-6.0993,-6.0993,-6.0993,-6.0527,-6.0396,-6.1015,-6.1368,-6.0877,-5.9079,-5.8356,-5.7495,-5.4757,-5.2692,-5.0659,-4.9814,-4.8706,-4.6869,-4.6808,-4.6512,-4.659,-4.6414,-4.6045,-4.5993,-4.5846,-4.5426,-4.5051,-4.4524,-4.4356,-4.3922,-4.3487,-4.3413,-4.3436,-4.3436,-4.3436,-4.3436,-4.3436,-4.3436,-4.3436,-4.3436,-4.3436,-4.3436,-4.3436,-4.3436,-4.3436,-4.3436,-4.3436,-4.3291,-4.2977,-4.2977,-4.2372,-4.2686,-4.2081,-4.1229,-4.0352,-3.9913,-3.7671,-3.441,-3.1132,-2.8153,-2.6359,-2.4561,-2.1717,-2.0005,-2.0135,-2.0362,-2.0277,-2.0332,-2.0692,-2.0438,-2.0321,-2.0142,-1.9952,-1.9856,-1.9772,-1.9761,-1.9761,-1.9804,-1.9751,-1.9656,-1.9539,-7.0047,-7.0047,-7.0047,-7.0047,-7.0047,-7.0047,-7.0047,-7.0047,-7.0047,-7.0047,-7.0047,-7.0047,-7.0047,-7.0047,-7.0047,-7.0047,-7.0047,-6.9971,-6.9515,-6.868,-6.7883,-6.7009,-6.6174,-6.5453,-6.5035,-6.4714,-6.4221,-6.3604,-6.2738,-6.1742,-6.0993,-6.0993,-6.0993,-6.0993,-6.0993,-6.0993,-6.0993,-6.0993,-6.1136,-6.1528,-6.1757,-6.195,-6.2542,-6.2225,-6.185,-6.0781,-5.8864,-5.7698,-5.4681,-5.1797,-5.1294,-4.9297,-4.7511,-4.7369,-4.7421,-4.7201,-4.6892,-4.6852,-4.7042,-4.6595,-4.5874,-4.5272,-4.4693,-4.4138,-4.3703,-4.3436,-4.3436,-4.3436,-4.3436,-4.3436,-4.3436,-4.3413,-4.3413,-4.3389,-4.3389,-4.3389,-4.3389,-4.3389,-4.3413,-4.3389,-4.3413,-4.3413,-4.3436,-4.3291,-4.3291,-4.3291,-4.2855,-4.2127,-4.1543,-4.1105,-3.872,-3.62,-3.3504,-3.0983,-3.0091,-2.8452,-2.5161,-2.2833,-2.2294,-2.131,-2.0266,-2.0447,-2.0712,-2.0637,-2.0508,-1.9941,-1.9687,-1.9645,-1.9656,-1.9603,-1.9582,-1.9624,-1.9603,-1.9518,-1.9508,-7.0047,-7.0047,-7.0047,-7.0047,-7.0047,-7.0047,-7.0047,-7.0047,-7.0047,-7.0047,-7.0047,-7.0047,-7.0047,-7.0047,-7.0047,-7.0047,-7.0047,-6.9895,-6.9363,-6.8566,-6.7693,-6.682,-6.5984,-6.5263,-6.5073,-6.4714,-6.4468,-6.3851,-6.2862,-6.2241,-6.1618,-6.1118,-6.0993,-6.0993,-6.0993,-6.0993,-6.0993,-6.1064,-6.1349,-6.192,-6.2419,-6.2954,-6.3678,-6.4222,-6.4018,-6.3601,-6.2069,-6.0783,-5.8774,-5.4891,-5.3437,-5.1658,-4.9008,-4.8319,-4.7889,-4.7837,-4.7629,-4.7421,-4.7642,-4.7314,-4.6451,-4.556,-4.5152,-4.4428,-4.3703,-4.3436,-4.3436,-4.3436,-4.3436,-4.3436,-4.3436,-4.3225,-4.2916,-4.2798,-4.2658,-4.2634,-4.2611,-4.2681,-4.2916,-4.2963,-4.3389,-4.3389,-4.3413,-4.3436,-4.3436,-4.3436,-4.3,-4.2273,-4.1689,-4.1251,-3.9474,-3.7839,-3.5443,-3.293,-3.1874,-3.1132,-2.8153,-2.5366,-2.4351,-2.3247,-2.1981,-2.1124,-2.1044,-2.1302,-2.2056,-2.1317,-1.9973,-1.9508,-1.955,-1.9497,-1.9487,-1.9476,-1.9476,-1.9487,-1.9476,-7.0047,-7.0047,-7.0047,-7.0047,-7.0047,-7.0047,-7.0047,-7.0047,-7.0047,-7.0047,-7.0047,-7.0047,-7.0047,-7.0047,-7.0047,-7.0047,-7.0047,-7.0047,-6.9022,-6.7958,-6.7541,-6.6364,-6.5567,-6.5035,-6.4959,-6.4959,-6.4714,-6.4098,-6.3022,-6.265,-6.1867,-6.1243,-6.1118,-6.0993,-6.0993,-6.0993,-6.1064,-6.1349,-6.1706,-6.2419,-6.3239,-6.3916,-6.4558,-6.5092,-6.5342,-6.5046,-6.4272,-6.2952,-6.1317,-5.8843,-5.5711,-5.3495,-5.1261,-4.9437,-4.8293,-4.7889,-4.7863,-4.7785,-4.7745,-4.7745,-4.7001,-4.5849,-4.5416,-4.4549,-4.3848,-4.3413,-4.3436,-4.3436,-4.3436,-4.3436,-4.3342,-4.2916,-4.2634,-4.2376,-4.2165,-4.2165,-4.2141,-4.2282,-4.254,-4.2775,-4.3201,-4.3366,-4.3413,-4.3436,-4.3436,-4.3436,-4.3146,-4.2418,-4.1813,-4.1397,-4.0352,-3.872,-3.7083,-3.4705,-3.3522,-3.2615,-2.9777,-2.6509,-2.5682,-2.5188,-2.3439,-2.2281,-2.2892,-2.3594,-2.3868,-2.294,-2.1206,-2.0383,-1.9778,-1.9476,-1.9476,-1.9476,-1.9476,-1.9476,-2.0824,-7.0047,-7.0047,-7.0047,-7.0047,-7.0047,-7.0047,-7.0047,-7.0047,-7.0047,-7.0047,-7.0047,-7.0047,-7.0047,-7.0047,-7.0047,-7.0047,-7.0047,-7.0009,-6.9097,-6.7617,-6.7427,-6.6402,-6.5453,-6.4959,-6.4959,-6.4959,-6.4714,-6.4221,-6.3022,-6.3022,-6.2277,-6.1368,-6.0993,-6.0993,-6.1029,-6.1136,-6.1243,-6.1777,-6.2205,-6.2954,-6.3845,-6.4486,-6.4986,-6.552,-6.5734,-6.5734,-6.5464,-6.4618,-6.3191,-6.1246,-5.8875,-5.6657,-5.3213,-5.1119,-4.9981,-4.8293,-4.7889,-4.7889,-4.7889,-4.7889,-4.7314,-4.6307,-4.573,-4.5007,-4.4283,-4.3558,-4.3413,-4.3436,-4.3436,-4.3248,-4.2989,-4.2871,-4.24,-4.2024,-4.193,-4.2141,-4.2165,-4.2306,-4.2517,-4.2681,-4.306,-4.3295,-4.3436,-4.3413,-4.3413,-4.3436,-4.3291,-4.2686,-4.2104,-4.1375,-4.0499,-3.9599,-3.8112,-3.6936,-3.5885,-3.4743,-3.1777,-2.8004,-2.7192,-2.7013,-2.5596,-2.4907,-2.5442,-2.6126,-2.5655,-2.4748,-2.2808,-2.1126,-2.0372,-1.9929,-1.9595,-1.9444,-1.9476,-2.0975,-2.2922,-7.0047,-7.0047,-7.0047,-7.0047,-7.0047,-7.0047,-7.0047,-7.0047,-7.0047,-7.0047,-7.0047,-7.0047,-7.0047,-7.0047,-7.0047,-7.0047,-7.0047,-6.9971,-6.9097,-6.7617,-6.7427,-6.6364,-6.5415,-6.4959,-6.4959,-6.4836,-6.4591,-6.3975,-6.3022,-6.265,-6.2028,-6.1368,-6.0993,-6.0993,-6.1029,-6.1385,-6.1599,-6.2169,-6.2847,-6.3453,-6.4451,-6.4879,-6.5235,-6.5663,-6.5734,-6.5734,-6.5599,-6.5599,-6.4618,-6.3191,-6.1246,-5.9151,-5.6657,-5.2366,-5.1403,-5.0123,-4.7889,-4.7889,-4.7889,-4.7889,-4.7458,-4.6739,-4.5849,-4.5127,-4.4573,-4.3848,-4.3413,-4.3413,-4.3248,-4.2845,-4.2423,-4.2401,-4.2071,-4.1578,-4.1391,-4.1602,-4.1977,-4.2141,-4.2282,-4.24,-4.2869,-4.3295,-4.3127,-4.3033,-4.3342,-4.3436,-4.3436,-4.2832,-4.225,-4.1521,-4.0791,-4.0038,-3.9306,-3.9013,-3.8657,-3.7513,-3.5175,-3.1886,-3.0365,-2.9402,-2.8794,-2.8247,-2.8476,-2.8172,-2.7555,-2.6659,-2.4561,-2.2771,-2.1428,-2.0327,-1.9639,-1.9307,-2.0873,-2.3009,-2.497,-7.0047,-7.0047,-7.0047,-7.0047,-7.0047,-7.0047,-7.0047,-7.0047,-7.0047,-7.0047,-7.0047,-7.0047,-7.0047,-7.0047,-7.0047,-7.0047,-7.0047,-6.9971,-6.9097,-6.7807,-6.7389,-6.644,-6.5491,-6.4959,-6.4959,-6.4714,-6.4468,-6.3851,-6.3022,-6.265,-6.1903,-6.1243,-6.0993,-6.0993,-6.1064,-6.1777,-6.2205,-6.249,-6.3809,-6.4308,-6.4843,-6.5306,-6.552,-6.5734,-6.5734,-6.5734,-6.5734,-6.5734,-6.5464,-6.4618,-6.2919,-6.1383,-5.9735,-5.5711,-5.3213,-5.1942,-4.941,-4.815,-4.7889,-4.8006,-4.7719,-4.7001,-4.6018,-4.5296,-4.4573,-4.3848,-4.3436,-4.3389,-4.3036,-4.2587,-4.2141,-4.1812,-4.1388,-4.1012,-4.0593,-4.0687,-4.125,-4.1578,-4.1696,-4.1953,-4.2517,-4.3127,-4.2939,-4.2892,-4.3272,-4.3436,-4.3436,-4.3,-4.2418,-4.1835,-4.1083,-4.0331,-3.9599,-3.9223,-3.8993,-3.9075,-3.8326,-3.5854,-3.3591,-3.2009,-3.1219,-3.0969,-3.0502,-3.0172,-2.9942,-2.9793,-2.7257,-2.4561,-2.4411,-2.4098,-2.1988,-2.1274,-2.3008,-2.516,-2.7109,-7.0047,-7.0047,-7.0047,-7.0047,-7.0047,-7.0047,-7.0047,-7.0047,-7.0047,-7.0047,-7.0047,-7.0047,-7.0047,-7.0047,-7.0047,-7.0047,-7.0047,-6.9895,-6.8908,-6.8034,-6.7275,-6.6402,-6.5491,-6.4959,-6.4959,-6.4836,-6.4591,-6.3975,-6.3022,-6.2774,-6.1992,-6.1243,-6.0993,-6.0993,-6.1171,-6.1813,-6.249,-6.3096,-6.4094,-6.4736,-6.5342,-6.5627,-6.5734,-6.5734,-6.5734,-6.5734,-6.5734,-6.5734,-6.5734,-6.5329,-6.4618,-6.3226,-6.1383,-5.9184,-5.6409,-5.3607,-5.1261,-4.9838,-4.9151,-4.9151,-4.9838,-4.7863,-4.6595,-4.5585,-4.5007,-4.4138,-4.3366,-4.3342,-4.2775,-4.2353,-4.1907,-4.1482,-4.0988,-4.0682,-4.0217,-4.0382,-4.0898,-4.1388,-4.1435,-4.153,-4.2188,-4.2939,-4.2798,-4.2751,-4.3033,-4.3436,-4.3436,-4.3146,-4.2709,-4.2104,-4.1375,-4.0645,-3.9892,-3.9498,-3.914,-3.8989,-3.8537,-3.6364,-3.5289,-3.399,-3.3695,-3.3144,-3.2817,-3.3226,-3.3226,-3.2781,-3.1132,-2.9181,-2.8287,-2.7675,-2.6709,-2.5578,-2.7136,-2.7679,-2.9666,-7.0047,-7.0047,-7.0047,-7.0047,-7.0047,-7.0047,-7.0047,-7.0047,-7.0047,-7.0047,-7.0047,-7.0047,-7.0047,-7.0047,-7.0047,-7.0047,-7.0047,-7.0047,-6.8908,-6.7958,-6.7237,-6.644,-6.5491,-6.4959,-6.4836,-6.4836,-6.4221,-6.3642,-6.2898,-6.2241,-6.1618,-6.1368,-6.1118,-6.0993,-6.1243,-6.1813,-6.2811,-6.3702,-6.4629,-6.5199,-6.5698,-6.5734,-6.5734,-6.5734,-6.5734,-6.5734,-6.5734,-6.5734,-6.5734,-6.5734,-6.5599,-6.4618,-6.3191,-6.1657,-5.9289,-5.6657,-5.4731,-5.3466,-5.2338,-5.2902,-5.262,-4.9954,-4.7145,-4.5416,-4.5416,-4.4138,-4.3487,-4.3013,-4.247,-4.193,-4.1484,-4.0968,-4.0729,-4.0311,-4.0288,-4.0475,-4.0804,-4.1223,-4.1365,-4.1412,-4.193,-4.2634,-4.2658,-4.2681,-4.301,-4.3436,-4.3436,-4.3291,-4.2977,-4.2541,-4.1667,-4.0937,-4.0184,-3.9602,-3.9245,-3.8944,-3.8598,-3.7718,-3.6835,-3.6587,-3.6451,-3.5842,-3.5462,-3.6514,-3.6789,-3.5019,-3.367,-3.306,-3.2066,-3.0861,-3.0219,-2.9857,-3.003,-3.0523,-3.2486,-7.0047,-7.0047,-7.0047,-7.0047,-7.0047,-7.0047,-7.0047,-7.0047,-7.0047,-7.0047,-7.0047,-7.0047,-7.0047,-7.0047,-7.0047,-7.0047,-7.0047,-7.0047,-6.8946,-6.7958,-6.7313,-6.644,-6.5453,-6.4836,-6.4836,-6.4591,-6.3975,-6.3394,-6.265,-6.1867,-6.1368,-6.0993,-6.0993,-6.0993,-6.1243,-6.1813,-6.2882,-6.3987,-6.5092,-6.5627,-6.5698,-6.5734,-6.5734,-6.5734,-6.5734,-6.5734,-6.5734,-6.5734,-6.5734,-6.5734,-6.5734,-6.5159,-6.4753,-6.3191,-6.1794,-5.9703,-5.8045,-5.7491,-5.7074,-5.7213,-5.568,-5.262,-4.9384,-4.6713,-4.556,-4.4114,-4.3154,-4.2611,-4.2024,-4.1508,-4.1039,-4.0522,-4.0335,-4.017,-4.0241,-4.0405,-4.0593,-4.1035,-4.1271,-4.1341,-4.1602,-4.2235,-4.2423,-4.2966,-4.3319,-4.3413,-4.3436,-4.3436,-4.3122,-4.2977,-4.2127,-4.1397,-4.0499,-4.0026,-3.952,-3.9198,-3.911,-3.84,-3.7889,-3.8217,-3.8373,-3.8443,-3.7545,-3.8279,-3.7986,-3.6642,-3.5296,-3.5424,-3.5142,-3.3942,-3.3028,-3.2305,-3.2284,-3.2922,-3.4735,-7.0047,-7.0047,-7.0047,-7.0047,-7.0047,-7.0047,-7.0047,-7.0047,-7.0047,-7.0047,-7.0047,-7.0047,-7.0047,-7.0047,-7.0047,-7.0047,-7.0047,-7.0047,-6.8946,-6.7958,-6.7237,-6.6478,-6.5415,-6.4836,-6.4714,-6.4098,-6.3728,-6.3146,-6.2277,-6.1493,-6.0993,-6.0993,-6.0993,-6.1029,-6.1243,-6.192,-6.2775,-6.3916,-6.5092,-6.5663,-6.5734,-6.5734,-6.5734,-6.5734,-6.5734,-6.5734,-6.5734,-6.5734,-6.5734,-6.5734,-6.5734,-6.5734,-6.5734,-6.4618,-6.3463,-6.1657,-6.0972,-6.0802,-6.1657,-6.1109,-6.0011,-5.7491,-5.428,-4.9098,-4.6519,-4.4449,-4.3301,-4.2612,-4.1719,-4.1203,-4.0874,-4.0452,-4.0241,-4.017,-4.017,-4.0241,-4.0382,-4.0757,-4.1153,-4.125,-4.1649,-4.2259,-4.2754,-4.3154,-4.3342,-4.3413,-4.3436,-4.3436,-4.3291,-4.3291,-4.2564,-4.1813,-4.1239,-4.0878,-4.0416,-3.9944,-3.9665,-3.9193,-3.9069,-3.9052,-3.8739,-3.8657,-3.872,-3.872,-3.8573,-3.7671,-3.6936,-3.763,-3.8134,-3.6604,-3.5139,-3.4643,-3.433,-3.5271,-3.6415,-7.0047,-7.0047,-7.0047,-7.0047,-7.0047,-7.0047,-7.0047,-7.0047,-7.0047,-7.0047,-7.0047,-7.0047,-7.0047,-7.0047,-7.0047,-7.0047,-7.0047,-7.0047,-6.9097,-6.7731,-6.7313,-6.6554,-6.5177,-6.4836,-6.4836,-6.4345,-6.3728,-6.2898,-6.1903,-6.1243,-6.0993,-6.0993,-6.0993,-6.11,-6.167,-6.2312,-6.3096,-6.3987,-6.4986,-6.5698,-6.5734,-6.5734,-6.5734,-6.5734,-6.5734,-6.5734,-6.5734,-6.5734,-6.5734,-6.5734,-6.5734,-6.5734,-6.5734,-6.5599,-6.5159,-6.3089,-6.3055,-6.3905,-6.5159,-6.4041,-6.2374,-6.0423,-5.6935,-5.2338,-4.8564,-4.5662,-4.3324,-4.2354,-4.1391,-4.1012,-4.0729,-4.0335,-4.0217,-4.017,-4.017,-4.0217,-4.0311,-4.0663,-4.1062,-4.1414,-4.1766,-4.2376,-4.2916,-4.3295,-4.3389,-4.3436,-4.3436,-4.3436,-4.3436,-4.3436,-4.2977,-4.2273,-4.2028,-4.1603,-4.1013,-4.0395,-4.0031,-3.9497,-3.935,-3.8929,-3.8783,-3.872,-3.872,-3.872,-3.872,-3.872,-3.8552,-3.8385,-3.8092,-3.7673,-3.7254,-3.6032,-3.5166,-3.5974,-3.614,-7.0047,-7.0047,-7.0047,-7.0047,-7.0047,-7.0047,-7.0047,-7.0047,-7.0047,-7.0047,-7.0047,-7.0047,-7.0047,-7.0047,-7.0047,-7.0047,-7.0047,-6.9933,-6.8967,-6.7399,-6.7262,-6.6428,-6.4817,-6.4714,-6.4468,-6.3889,-6.327,-6.2241,-6.1493,-6.1118,-6.0993,-6.0993,-6.1064,-6.1349,-6.2027,-6.2775,-6.3773,-6.4522,-6.5306,-6.5734,-6.5734,-6.5734,-6.5734,-6.5734,-6.5734,-6.5734,-6.5734,-6.5734,-6.5734,-6.5734,-6.5734,-6.5734,-6.5734,-6.5734,-6.5734,-6.5734,-6.5734,-6.5734,-6.5734,-6.5294,-6.4312,-6.2237,-5.8461,-5.5371,-5.1462,-4.7575,-4.3392,-4.2023,-4.1271,-4.08,-4.047,-4.0329,-4.017,-4.017,-4.0194,-4.0194,-4.0358,-4.0964,-4.1156,-4.1531,-4.2259,-4.2798,-4.3103,-4.3342,-4.3436,-4.3436,-4.3436,-4.3436,-4.3436,-4.3436,-4.3146,-4.2802,-4.2469,-4.2061,-4.1455,-4.0777,-4.0138,-3.9585,-3.9204,-3.8804,-3.872,-3.872,-3.872,-3.872,-3.872,-3.872,-3.8636,-3.8217,-3.7778,-3.738,-3.7024,-3.6501,-3.5936,-3.5936,-3.5903,-7.0047,-7.0047,-7.0047,-7.0047,-7.0047,-7.0047,-7.0047,-7.0047,-7.0047,-7.0047,-7.0047,-7.0047,-7.0047,-7.0009,-7.0009,-6.9914,-7.0047,-6.9838,-6.8592,-6.709,-6.6969,-6.5924,-6.4262,-6.3765,-6.3765,-6.3146,-6.2277,-6.2028,-6.1654,-6.1243,-6.1118,-6.0993,-6.0993,-6.1421,-6.2241,-6.3025,-6.3773,-6.4558,-6.5342,-6.5698,-6.5734,-6.5734,-6.5734,-6.5734,-6.5734,-6.5734,-6.5734,-6.5734,-6.5734,-6.5734,-6.5734,-6.5734,-6.5734,-6.5734,-6.5734,-6.5734,-6.5734,-6.5734,-6.5734,-6.5734,-6.5429,-6.4176,-5.9703,-5.7074,-5.3853,-4.8961,-4.3719,-4.1641,-4.0823,-4.047,-4.0352,-4.0194,-4.0194,-4.0194,-4.0217,-4.0311,-4.0776,-4.1153,-4.1391,-4.2048,-4.2871,-4.3248,-4.3342,-4.3436,-4.3436,-4.3436,-4.3436,-4.3436,-4.3436,-4.3436,-4.3315,-4.2994,-4.2725,-4.2277,-4.1712,-4.085,-4.0498,-3.9733,-3.914,-3.872,-3.872,-3.872,-3.872,-3.872,-3.872,-3.8657,-3.8552,-3.8217,-3.7652,-3.7171,-3.6794,-3.6417,-3.602,-3.5894,-3.5915,-7.0047,-7.0047,-7.0047,-7.0047,-7.0047,-7.0047,-7.0047,-7.0047,-7.0047,-7.0047,-7.0047,-7.0047,-7.0047,-6.9876,-6.9744,-6.9213,-6.8931,-6.8574,-6.7471,-6.6335,-6.5867,-6.4757,-6.3294,-6.327,-6.3022,-6.2526,-6.1779,-6.1529,-6.1529,-6.1118,-6.1118,-6.0993,-6.0993,-6.1599,-6.2597,-6.3203,-6.3987,-6.4986,-6.552,-6.5734,-6.5734,-6.5734,-6.5734,-6.5734,-6.5734,-6.5734,-6.5734,-6.5734,-6.5734,-6.5734,-6.5734,-6.5734,-6.5734,-6.5734,-6.5734,-6.5734,-6.5734,-6.5734,-6.5734,-6.5734,-6.5734,-6.5024,-6.0116,-5.7182,-5.4861,-5.0111,-4.4695,-4.2645,-4.1673,-4.0588,-4.0329,-4.0564,-4.0382,-4.0288,-4.0429,-4.08,-4.1106,-4.1553,-4.2189,-4.2895,-4.3201,-4.3342,-4.3436,-4.3436,-4.3436,-4.3436,-4.3436,-4.3436,-4.3436,-4.3436,-4.3436,-4.3099,-4.2791,-4.2379,-4.1563,-4.1261,-4.0987,-4.0026,-3.9306,-3.8866,-3.872,-3.872,-3.872,-3.872,-3.8657,-3.8594,-3.828,-3.7945,-3.7443,-3.6941,-3.6543,-3.6187,-3.5957,-3.5831,-3.5852,-7.0047,-7.0047,-7.0047,-7.0047,-7.0047,-7.0047,-6.9876,-6.9876,-6.9876,-6.9914,-6.9914,-6.9876,-7.0047,-6.9744,-6.9213,-6.857,-6.7896,-6.7003,-6.6097,-6.5158,-6.4733,-6.378,-6.2796,-6.265,-6.265,-6.2401,-6.1742,-6.1118,-6.1118,-6.0993,-6.0993,-6.1029,-6.1171,-6.192,-6.2954,-6.3595,-6.4379,-6.5449,-6.5698,-6.5734,-6.5734,-6.5734,-6.5734,-6.5734,-6.5734,-6.5734,-6.5734,-6.5734,-6.5734,-6.5734,-6.5734,-6.5734,-6.5734,-6.5734,-6.5734,-6.5734,-6.5734,-6.5734,-6.5734,-6.5734,-6.5734,-6.4482,-6.0116,-5.7043,-5.5061,-4.9993,-4.5411,-4.3543,-4.2266,-4.0847,-4.0399,-4.0729,-4.0616,-4.0452,-4.0682,-4.1082,-4.1412,-4.2047,-4.2919,-4.3225,-4.3319,-4.3436,-4.3436,-4.3436,-4.3436,-4.3436,-4.3436,-4.3436,-4.3436,-4.3436,-4.3342,-4.313,-4.2895,-4.2135,-4.1591,-4.1576,-4.1462,-4.0455,-3.9745,-3.9306,-3.9013,-3.8866,-3.872,-3.872,-3.8678,-3.8364,-3.8008,-3.7589,-3.7171,-3.6773,-3.6313,-3.5873,-3.5831,-3.5831,-3.5831,-7.0047,-7.0047,-7.0047,-7.0047,-7.0047,-6.9914,-6.9611,-6.9346,-6.9744,-6.9611,-6.9384,-6.9744,-6.9914,-6.9744,-6.9213,-6.8499,-6.7602,-6.6431,-6.4919,-6.3969,-6.3858,-6.3058,-6.1923,-6.1903,-6.1903,-6.1368,-6.1118,-6.1118,-6.0993,-6.0993,-6.1136,-6.1171,-6.1635,-6.2561,-6.3346,-6.4023,-6.4807,-6.5592,-6.5734,-6.5734,-6.5734,-6.5734,-6.5734,-6.5734,-6.5734,-6.5734,-6.5734,-6.5734,-6.5734,-6.5734,-6.5734,-6.5734,-6.5734,-6.5734,-6.5734,-6.5734,-6.5734,-6.5734,-6.5734,-6.5734,-6.5734,-6.5429,-6.0116,-5.7182,-5.5141,-4.997,-4.5745,-4.3952,-4.2602,-4.0874,-4.0288,-4.0847,-4.0823,-4.0452,-4.08,-4.1109,-4.1649,-4.266,-4.3178,-4.3436,-4.3436,-4.3436,-4.3436,-4.3436,-4.3436,-4.3436,-4.3436,-4.3436,-4.3436,-4.3389,-4.2986,-4.2751,-4.24,-4.1882,-4.1694,-4.1631,-4.1754,-4.0938,-4.0477,-4.0038,-3.9599,-3.9306,-3.8866,-3.8866,-3.8594,-3.8238,-3.7924,-3.738,-3.6941,-3.6585,-3.6208,-3.5915,-3.5831,-3.5831,-3.5831,-6.9744,-6.9479,-6.9479,-6.9213,-6.8815,-6.8815,-6.8815,-6.9081,-6.9384,-6.9479,-6.9479,-6.9346,-6.9479,-6.9309,-6.8007,-6.7109,-6.6425,-6.5042,-6.3691,-6.3005,-6.25,-6.2014,-6.1118,-6.1279,-6.1404,-6.1118,-6.0993,-6.0993,-6.1136,-6.1385,-6.1599,-6.1706,-6.2419,-6.3203,-6.4023,-6.4379,-6.5021,-6.5592,-6.5734,-6.5734,-6.5734,-6.5734,-6.5734,-6.5734,-6.5734,-6.5734,-6.5734,-6.5734,-6.5734,-6.5734,-6.5734,-6.5734,-6.5734,-6.5734,-6.5734,-6.5734,-6.5734,-6.5734,-6.5734,-6.5734,-6.5734,-6.5599,-6.0116,-5.7768,-5.5001,-4.9682,-4.5494,-4.4295,-4.3034,-4.1718,-4.1109,-4.1435,-4.1223,-4.0964,-4.1062,-4.1461,-4.1836,-4.2801,-4.3436,-4.3436,-4.3436,-4.3436,-4.3436,-4.3436,-4.3436,-4.3436,-4.3436,-4.3389,-4.3389,-4.301,-4.2751,-4.2376,-4.2001,-4.1789,-4.1766,-4.1672,-4.1664,-4.1458,-4.0905,-4.0477,-4.0184,-3.9745,-3.9138,-3.8719,-3.8426,-3.8071,-3.7631,-3.715,-3.6668,-3.6355,-3.6103,-3.5936,-3.5831,-3.5831,-3.5831,-6.9479,-6.8985,-6.8815,-6.8415,-6.7882,-6.7882,-6.8149,-6.8549,-6.8852,-6.9081,-6.9176,-6.8856,-6.8649,-6.8347,-6.6514,-6.5289,-6.5057,-6.3865,-6.2704,-6.1955,-6.1243,-6.1029,-6.1118,-6.1118,-6.0993,-6.0993,-6.0993,-6.11,-6.1385,-6.1884,-6.2276,-6.2526,-6.3203,-6.3952,-6.4522,-6.4736,-6.5164,-6.5592,-6.5734,-6.5734,-6.5734,-6.5734,-6.5734,-6.5734,-6.5734,-6.5734,-6.5734,-6.5734,-6.5734,-6.5734,-6.5734,-6.5734,-6.5734,-6.5734,-6.5734,-6.5734,-6.5734,-6.5734,-6.5734,-6.5734,-6.5663,-6.4911,-6.0062,-5.6487,-5.5703,-4.9264,-4.5569,-4.4324,-4.3253,-4.233,-4.2048,-4.1977,-4.1649,-4.1506,-4.1578,-4.193,-4.2048,-4.2634,-4.3225,-4.3366,-4.3436,-4.3436,-4.3436,-4.3436,-4.3436,-4.3436,-4.3389,-4.3366,-4.3154,-4.2775,-4.2353,-4.2024,-4.1671,-4.125,-4.125,-4.1205,-4.1438,-4.1618,-4.1161,-4.0769,-4.0769,-4.0331,-3.9616,-3.9008,-3.8402,-3.7631,-3.715,-3.671,-3.648,-3.6145,-3.5852,-3.5831,-3.5831,-3.5831,-3.5831,-6.9081,-6.8948,-6.8282,-6.7882,-6.7748,-6.7882,-6.7481,-6.7481,-6.8378,-6.8341,-6.7661,-6.7731,-6.7695,-6.6835,-6.5411,-6.4331,-6.3714,-6.2839,-6.1975,-6.1385,-6.1064,-6.0993,-6.0993,-6.0993,-6.0993,-6.0993,-6.0993,-6.1349,-6.1884,-6.2134,-6.2597,-6.331,-6.4059,-6.4522,-6.4772,-6.5271,-6.5592,-6.5734,-6.5734,-6.5734,-6.5734,-6.5734,-6.5734,-6.5734,-6.5734,-6.5734,-6.5734,-6.5734,-6.5698,-6.5734,-6.5734,-6.5698,-6.5734,-6.5734,-6.5734,-6.5734,-6.5734,-6.5698,-6.5698,-6.5592,-6.5413,-6.384,-5.9303,-5.5653,-5.3333,-4.8558,-4.4466,-4.3942,-4.2659,-4.2495,-4.2681,-4.2658,-4.2212,-4.1836,-4.2071,-4.2376,-4.247,-4.2517,-4.2919,-4.3319,-4.3268,-4.3413,-4.3436,-4.3436,-4.3436,-4.3436,-4.315,-4.3154,-4.2751,-4.2376,-4.1883,-4.1577,-4.1247,-4.0917,-4.0757,-4.0804,-4.1275,-4.1742,-4.1389,-4.1486,-4.1341,-4.1095,-4.0213,-3.9437,-3.8746,-3.8012,-3.7158,-3.6522,-3.6292,-3.6041,-3.6125,-3.5968,-3.5968,-3.624,-3.6627,-6.8149,-6.7748,-6.7481,-6.7079,-6.6676,-6.6506,-6.6676,-6.7006,-6.7403,-6.7447,-6.7262,-6.682,-6.7058,-6.7716,-6.4699,-6.3732,-6.4505,-6.259,-6.1475,-6.1118,-6.1243,-6.1243,-6.1118,-6.0993,-6.0993,-6.0993,-6.0993,-6.1456,-6.2169,-6.2704,-6.331,-6.4094,-6.4843,-6.5235,-6.5235,-6.5592,-6.5734,-6.5734,-6.5734,-6.5734,-6.5734,-6.5734,-6.5734,-6.5734,-6.5734,-6.5734,-6.5734,-6.5734,-6.5485,-6.5164,-6.5092,-6.5271,-6.5663,-6.5734,-6.5734,-6.5734,-6.5734,-6.5485,-6.5199,-6.5057,-6.47,-6.297,-5.8148,-5.487,-5.2615,-4.7845,-4.406,-4.3681,-4.3206,-4.2824,-4.2845,-4.2939,-4.2705,-4.2259,-4.2118,-4.2048,-4.2071,-4.2071,-4.2306,-4.2658,-4.2845,-4.2916,-4.3244,-4.3413,-4.3436,-4.3366,-4.3033,-4.2751,-4.2423,-4.1883,-4.1391,-4.1223,-4.0917,-4.0546,-4.0452,-4.0687,-4.1203,-4.1766,-4.1783,-4.2131,-4.2126,-4.1876,-4.0971,-4.0028,-3.9126,-3.831,-3.7332,-3.6589,-3.6399,-3.6409,-3.644,-3.6512,-3.692,-3.7192,-3.7713,-6.7347,-6.7079,-6.6945,-6.6945,-6.7042,-6.731,-6.7831,-6.8367,-6.8946,-6.9251,-6.8444,-6.7592,-6.8223,-6.8946,-6.5586,-6.496,-6.5767,-6.3579,-6.208,-6.208,-6.2577,-6.2825,-6.2204,-6.2701,-6.2949,-6.2204,-6.2365,-6.2122,-6.2526,-6.3061,-6.3845,-6.4879,-6.5413,-6.5698,-6.5734,-6.5698,-6.5734,-6.5734,-6.5734,-6.5734,-6.5734,-6.5734,-6.5734,-6.5698,-6.552,-6.5413,-6.5413,-6.5235,-6.4807,-6.4308,-6.4273,-6.4629,-6.5271,-6.5128,-6.5092,-6.5235,-6.5199,-6.4807,-6.4379,-6.4273,-6.3749,-6.2389,-5.7861,-5.4017,-5.2663,-4.7525,-4.4638,-4.3229,-4.304,-4.2728,-4.2587,-4.254,-4.266,-4.2282,-4.2001,-4.1789,-4.1766,-4.1649,-4.1743,-4.2235,-4.2446,-4.2681,-4.2963,-4.315,-4.3221,-4.3178,-4.2751,-4.2423,-4.2071,-4.1553,-4.1039,-4.0734,-4.0522,-4.0311,-4.0264,-4.0569,-4.0945,-4.1508,-4.186,-4.2235,-4.2231,-4.2177,-4.151,-4.0665,-3.9627,-3.8418,-3.7524,-3.6884,-3.682,-3.6827,-3.7062,-3.7651,-3.8009,-3.8636,-3.9237,-6.7213,-6.7748,-6.7213,-6.8378,-7.0252,-7.1134,-7.154,-7.2321,-7.3599,-7.2819,-7.1216,-7.0659,-7.0745,-6.9933,-6.848,-6.8001,-6.8244,-6.5861,-6.4761,-6.5617,-6.647,-6.6592,-6.5128,-6.6592,-6.6349,-6.5006,-6.4761,-6.4348,-6.3984,-6.3814,-6.413,-6.5574,-6.5583,-6.5663,-6.5592,-6.5663,-6.5556,-6.5485,-6.5556,-6.5556,-6.5556,-6.5627,-6.5592,-6.5556,-6.4986,-6.4665,-6.4522,-6.388,-6.3453,-6.3417,-6.3417,-6.3809,-6.4344,-6.3916,-6.3987,-6.4593,-6.3916,-6.3631,-6.3488,-6.3453,-6.2837,-6.1357,-5.8051,-5.5024,-5.052,-4.7457,-4.4674,-4.235,-4.2047,-4.2071,-4.2188,-4.186,-4.1647,-4.1836,-4.1602,-4.1602,-4.1672,-4.125,-4.1273,-4.1719,-4.2188,-4.266,-4.2446,-4.3036,-4.2845,-4.2754,-4.2423,-4.193,-4.1553,-4.12,-4.071,-4.0499,-4.0311,-4.017,-4.017,-4.0452,-4.0776,-4.1223,-4.132,-4.1719,-4.193,-4.2187,-4.1949,-4.0898,-3.9999,-3.8766,-3.7775,-3.749,-3.7201,-3.7473,-3.8119,-3.878,-3.9566,-4.0629,-4.1651,-6.7614,-6.7978,-6.9404,-7.0247,-7.0788,-7.2768,-7.3261,-7.2783,-7.2952,-7.254,-7.1518,-7.0822,-7.1053,-7.1608,-6.9767,-6.9723,-7.0753,-6.8485,-6.8125,-6.9523,-6.9444,-6.8405,-6.7803,-6.8405,-6.8165,-6.744,-6.728,-6.746,-6.7394,-6.6037,-6.593,-6.6667,-6.5243,-6.4619,-6.495,-6.4522,-6.4237,-6.4237,-6.4273,-6.4237,-6.4237,-6.4237,-6.4237,-6.4201,-6.3987,-6.3809,-6.3702,-6.2561,-6.1849,-6.1955,-6.2383,-6.2989,-6.3702,-6.356,-6.3488,-6.3702,-6.3488,-6.3132,-6.2704,-6.2633,-6.2056,-5.9985,-5.5839,-5.2026,-4.9571,-4.5302,-4.311,-4.1574,-4.1671,-4.1696,-4.1718,-4.153,-4.1226,-4.0851,-4.0941,-4.0757,-4.0757,-4.0569,-4.071,-4.1086,-4.1553,-4.1647,-4.1625,-4.2095,-4.2071,-4.1649,-4.1531,-4.125,-4.12,-4.08,-4.0588,-4.0264,-4.017,-4.017,-4.017,-4.0264,-4.0541,-4.0753,-4.0804,-4.1109,-4.1461,-4.1696,-4.1766,-4.0857,-4.0142,-3.8933,-3.8188,-3.7875,-3.8119,-3.848,-3.895,-4.0614,-4.2666,-4.3421,-4.4934,-6.9271,-6.9763,-7.2035,-7.3104,-7.3555,-7.5104,-7.5664,-7.4972,-7.4896,-7.4349,-7.3414,-7.2701,-7.3076,-7.366,-7.2254,-7.2094,-7.3501,-7.2094,-7.1581,-7.217,-7.1623,-7.0913,-7.0278,-7.0795,-7.115,-7.1032,-7.0397,-7.0011,-6.9566,-6.8125,-6.7914,-6.874,-6.7015,-6.6189,-6.6801,-6.606,-6.525,-6.4734,-6.4605,-6.4124,-6.3346,-6.3381,-6.3381,-6.3346,-6.3132,-6.2882,-6.2597,-6.1563,-6.1029,-6.1064,-6.1528,-6.2205,-6.2775,-6.2775,-6.274,-6.2918,-6.2775,-6.2348,-6.1884,-6.1813,-6.122,-5.9407,-5.5994,-5.2719,-5.0313,-4.7316,-4.524,-4.3957,-4.3959,-4.3558,-4.2688,-4.2535,-4.2381,-4.1589,-4.071,-4.0241,-4.0264,-4.0217,-4.0288,-4.0452,-4.0616,-4.0823,-4.0917,-4.0945,-4.1179,-4.1153,-4.0988,-4.087,-4.0776,-4.0517,-4.0329,-4.017,-4.017,-4.017,-4.017,-4.0241,-4.0447,-4.0564,-4.0335,-4.0382,-4.064,-4.0851,-4.0851,-4.0503,-4.0021,-3.9314,-3.8748,-3.8698,-3.9295,-3.9674,-4.0962,-4.3084,-4.5443,-4.7189,-4.8743,-7.231,-7.3061,-7.4681,-7.6722,-7.8473,-7.8815,-7.9229,-7.9323,-8.0293,-7.8986,-7.6862,-7.7438,-7.6708,-7.6294,-7.5675,-7.6064,-7.6064,-7.5675,-7.4591,-7.3224,-7.4822,-7.4591,-7.2756,-7.4591,-7.5559,-7.5444,-7.3617,-7.1685,-7.0501,-7.0055,-7.0252,-7.0931,-7.0433,-6.9894,-7.0842,-7.0058,-6.9346,-6.7542,-6.6996,-6.5835,-6.3735,-6.3427,-6.3391,-6.3132,-6.2818,-6.2138,-6.1136,-6.1029,-6.0993,-6.0993,-6.1064,-6.1421,-6.1991,-6.1599,-6.1456,-6.1991,-6.1528,-6.11,-6.1064,-6.11,-6.0508,-5.9269,-5.8763,-5.6026,-5.3003,-5.2027,-5.0901,-4.874,-4.8316,-4.7806,-4.5406,-4.469,-4.4353,-4.3958,-4.1627,-4.0305,-4.017,-4.017,-4.0006,-3.9811,-3.9976,-4.0282,-4.0282,-4.0217,-4.0358,-4.0522,-4.0452,-4.0288,-4.0288,-4.0241,-4.017,-4.017,-4.017,-4.017,-4.017,-4.017,-4.0194,-4.0124,-3.9865,-3.9678,-3.9936,-3.9912,-3.9912,-3.9889,-3.9411,-3.985,-3.9255,-4.0622,-4.1061,-4.1895,-4.3499,-4.5089,-4.7428,-4.9677,-5.1707,-7.5848,-7.5647,-7.7236,-7.807,-7.8448,-8.0011,-8.0522,-8.003,-7.987,-7.9233,-7.8051,-7.7665,-7.721,-7.6523,-7.6409,-7.6409,-7.6409,-7.6409,-7.5905,-7.5285,-7.6064,-7.5905,-7.54,-7.602,-7.6409,-7.6179,-7.5444,-7.4837,-7.4208,-7.2516,-7.2144,-7.2573,-7.0582,-6.9892,-7.0172,-6.977,-6.9246,-6.8514,-6.8269,-6.708,-6.4723,-6.4436,-6.3596,-6.2338,-6.3251,-6.3082,-6.1118,-6.0993,-6.0993,-6.0993,-6.0993,-6.11,-6.1349,-6.1136,-6.1136,-6.1349,-6.1136,-6.0993,-6.0993,-6.0617,-6.0025,-5.9177,-5.6919,-5.497,-5.307,-5.1304,-4.995,-4.916,-4.8764,-4.866,-4.7678,-4.7275,-4.6345,-4.4357,-4.1871,-4.0305,-4.0147,-3.9999,-3.974,-3.9552,-3.9411,-3.9105,-3.8763,-3.9255,-3.9513,-3.9373,-3.9912,-4.0147,-4.017,-4.017,-4.017,-4.017,-4.017,-4.017,-4.01,-4.0006,-3.9983,-3.9725,-3.9443,-3.9255,-3.9255,-3.9068,-3.8997,-3.8974,-3.9295,-3.9899,-4.0795,-4.2279,-4.3303,-4.4141,-4.5569,-4.7095,-4.9259,-5.1599,-5.2326,-7.8431,-7.7681,-7.9324,-7.9661,-7.9142,-8.0473,-8.064,-8.0032,-7.9631,-7.9023,-7.8187,-7.7779,-7.721,-7.6364,-7.6052,-7.5918,-7.5918,-7.6275,-7.6409,-7.6409,-7.6409,-7.6409,-7.6409,-7.6409,-7.6409,-7.6409,-7.6409,-7.6409,-7.6179,-7.4822,-7.4196,-7.4114,-7.2508,-7.1798,-7.2174,-7.1798,-7.1032,-7.0278,-7.02,-6.8845,-6.6631,-6.6349,-6.5617,-6.4023,-6.4638,-6.4146,-6.2453,-6.1493,-6.0993,-6.0993,-6.0993,-6.0993,-6.0993,-6.0993,-6.0993,-6.0993,-6.0993,-6.0993,-6.0993,-6.0402,-5.9773,-5.9051,-5.6664,-5.5098,-5.4199,-5.2781,-5.1614,-5.1744,-5.1614,-5.1614,-5.1485,-5.0704,-4.9005,-4.6186,-4.3272,-4.1177,-4.0329,-4.0369,-4.0164,-3.9437,-3.9706,-3.912,-3.8593,-3.8375,-3.8575,-3.8669,-3.9021,-3.9443,-3.9725,-3.9889,-3.9959,-4.01,-4.017,-4.0124,-3.9983,-3.9929,-3.9693,-3.9364,-3.9212,-3.9058,-3.8563,-3.8398,-3.9358,-3.9437,-4.0064,-4.0933,-4.3018,-4.4528,-4.5779,-4.6644,-4.7403,-4.9021,-5.0844,-5.2018,-5.2661,-8.0144,-7.9561,-8.0915,-8.1415,-8.1341,-8.0406,-7.9939,-7.9705,-7.9799,-7.9175,-7.7913,-7.7845,-7.7325,-7.6096,-7.5248,-7.4936,-7.507,-7.5739,-7.6141,-7.6275,-7.6275,-7.6364,-7.6409,-7.6364,-7.6319,-7.623,-7.623,-7.623,-7.6275,-7.6249,-7.6409,-7.6294,-7.6064,-7.6179,-7.5993,-7.5834,-7.5054,-7.2874,-7.2639,-7.1463,-6.9365,-6.9126,-6.9245,-6.8646,-6.6674,-6.5495,-6.4883,-6.2577,-6.1243,-6.1243,-6.1118,-6.0993,-6.0993,-6.0993,-6.0993,-6.0993,-6.0993,-6.0993,-6.0993,-6.0402,-5.9773,-5.9051,-5.8096,-5.7461,-5.657,-5.6187,-5.6187,-5.6698,-5.6187,-5.6282,-5.5961,-5.3656,-5.1204,-4.8645,-4.559,-4.2742,-4.0273,-4.187,-4.1463,-4.0181,-4.0655,-4.0657,-3.8766,-3.7754,-3.864,-3.8864,-3.884,-3.924,-4.0391,-4.0128,-4.021,-4.0543,-4.0369,-4.0093,-3.9972,-4.0842,-4.011,-4.0101,-4.0472,-3.8911,-3.8165,-3.8077,-3.9257,-4.0298,-4.1277,-4.2884,-4.4956,-4.6586,-4.7751,-4.9142,-4.9933,-5.0344,-5.1738,-5.247,-5.2426,-8.1955,-8.1077,-8.144,-8.0734,-7.9378,-7.9051,-7.8537,-7.7882,-7.7835,-7.7135,-7.6149,-7.5993,-7.5332,-7.4333,-7.3999,-7.3865,-7.3909,-7.4133,-7.4668,-7.5338,-7.5382,-7.5739,-7.6275,-7.5739,-7.5382,-7.5382,-7.5382,-7.5382,-7.5471,-7.6007,-7.6409,-7.6409,-7.6409,-7.6409,-7.6409,-7.6409,-7.6064,-7.54,-7.5285,-7.4083,-7.2052,-7.3267,-7.3384,-7.1581,-7.0753,-6.9563,-6.7763,-6.5251,-6.39,-6.3777,-6.208,-6.0993,-6.0993,-6.0993,-6.0993,-6.0993,-6.0993,-6.0993,-6.0993,-6.0025,-5.9303,-5.9051,-5.7876,-5.708,-5.6986,-5.6952,-5.6952,-5.6919,-5.6952,-5.6686,-5.6068,-5.3756,-5.1569,-5.0099,-4.7485,-4.5436,-4.4516,-4.4535,-4.4528,-4.3751,-4.2449,-4.1461,-4.2693,-4.2881,-4.2325,-4.1515,-4.2633,-4.4381,-4.4872,-4.3395,-4.2552,-4.3057,-4.1129,-4.1243,-4.3907,-4.3945,-4.4111,-4.394,-4.3321,-4.2253,-4.0498,-4.1998,-4.3278,-4.2329,-4.3266,-4.4897,-4.7354,-4.8141,-4.8926,-5.0968,-5.1531,-5.136,-5.2076,-5.196,-5.1494,-8.1902,-8.0921,-8.05,-7.9378,-7.8022,-7.7882,-7.7555,-7.6994,-7.6994,-7.6301,-7.5188,-7.4625,-7.3661,-7.2628,-7.3031,-7.3102,-7.2883,-7.3285,-7.382,-7.4311,-7.44,-7.4668,-7.5114,-7.4623,-7.4356,-7.4356,-7.4356,-7.44,-7.4445,-7.4936,-7.5204,-7.5204,-7.5204,-7.5204,-7.5204,-7.5204,-7.5204,-7.5204,-7.5605,-7.4878,-7.3342,-7.448,-7.448,-7.2956,-7.2221,-7.1153,-6.9784,-6.7725,-6.647,-6.6349,-6.4061,-6.2577,-6.2701,-6.1582,-6.0993,-6.0993,-6.0993,-6.0993,-6.0993,-5.9773,-5.9051,-5.9051,-5.7749,-5.6952,-5.6952,-5.6952,-5.6686,-5.622,-5.6087,-5.5921,-5.543,-5.4021,-5.2332,-5.0711,-4.8977,-4.7306,-4.6432,-4.6631,-4.6376,-4.5491,-4.4597,-4.4614,-4.4914,-4.517,-4.4633,-4.3854,-4.4418,-4.5706,-4.6355,-4.5354,-4.4603,-4.4747,-4.3447,-4.3462,-4.5165,-4.6012,-4.5672,-4.5388,-4.5397,-4.5095,-4.3143,-4.4129,-4.4978,-4.4493,-4.5611,-4.7448,-4.9776,-5.0433,-5.067,-5.1649,-5.2159,-5.1727,-5.1127,-5.0795,-5.0465,-8.064,-7.9799,-7.8817,-7.7835,-7.7041,-7.69,-7.676,-7.662,-7.6667,-7.6023,-7.4838,-7.3656,-7.2501,-7.1708,-7.2462,-7.244,-7.2054,-7.2858,-7.3305,-7.3285,-7.3329,-7.3374,-7.3552,-7.3374,-7.3329,-7.3329,-7.3329,-7.3329,-7.3329,-7.3463,-7.3508,-7.3463,-7.3463,-7.3552,-7.3508,-7.3508,-7.3508,-7.3463,-7.4311,-7.4266,-7.3374,-7.3418,-7.3463,-7.3463,-7.2132,-7.138,-7.1308,-6.982,-6.9004,-6.8885,-6.6635,-6.5128,-6.4638,-6.2701,-6.1332,-6.0886,-6.085,-6.085,-6.0779,-5.9689,-5.8775,-5.8844,-5.7446,-5.6686,-5.6719,-5.6719,-5.6187,-5.5222,-5.4855,-5.4855,-5.4689,-5.4567,-5.3488,-5.1174,-5.0306,-4.9113,-4.7344,-4.802,-4.8226,-4.5824,-4.7418,-4.8137,-4.6306,-4.5369,-4.5127,-4.5911,-4.6633,-4.6898,-4.7334,-4.671,-4.6414,-4.6932,-4.673,-4.6507,-4.6637,-4.5929,-4.6512,-4.6153,-4.5853,-4.5732,-4.5761,-4.5703,-4.6065,-4.7388,-4.8616,-4.9562,-5.1453,-5.2426,-5.2142,-5.1727,-5.146,-5.1494,-5.0428,-4.9785,-4.9858,-7.835,-7.877,-7.7742,-7.7228,-7.6947,-7.6152,-7.5311,-7.4563,-7.4563,-7.4146,-7.3576,-7.3207,-7.2664,-7.1991,-7.2219,-7.1994,-7.1617,-7.1692,-7.2018,-7.2258,-7.2303,-7.2749,-7.3329,-7.266,-7.2303,-7.2303,-7.2347,-7.2347,-7.2437,-7.3061,-7.3463,-7.3463,-7.3463,-7.3463,-7.3463,-7.3463,-7.3463,-7.3418,-7.2927,-7.257,-7.2347,-7.3061,-7.3463,-7.3463,-7.3088,-7.2954,-7.2887,-7.1495,-7.0691,-7.0459,-6.884,-6.7077,-6.5128,-6.4392,-6.2901,-6.042,-6.0102,-5.9852,-5.916,-5.7992,-5.7258,-5.7258,-5.6029,-5.5288,-5.5288,-5.5288,-5.5122,-5.4855,-5.4722,-5.4489,-5.4023,-5.3923,-5.345,-5.2443,-5.2095,-5.1554,-5.1165,-5.151,-5.1531,-5.0939,-4.9601,-4.945,-4.9839,-4.7388,-4.6608,-4.9625,-5.0907,-5.1197,-5.1384,-4.9967,-4.9628,-5.0679,-5.1142,-5.0808,-5.1165,-5.0885,-5.0702,-5.0907,-5.067,-4.9688,-4.8585,-4.9688,-5.0551,-4.915,-5.0401,-5.1243,-5.0899,-5.0928,-5.0528,-4.9729,-4.923,-4.8531,-4.8198,-4.8754,-4.9822,-7.7321,-7.7648,-7.6713,-7.6293,-7.6199,-7.5171,-7.4376,-7.3815,-7.3815,-7.3759,-7.3449,-7.3449,-7.3138,-7.2618,-7.2514,-7.2201,-7.1677,-7.1422,-7.1421,-7.1597,-7.1428,-7.1589,-7.199,-7.1544,-7.1321,-7.1321,-7.1321,-7.1321,-7.1365,-7.1856,-7.2124,-7.2079,-7.2079,-7.2124,-7.2124,-7.2124,-7.2079,-7.2188,-7.2035,-7.1882,-7.199,-7.2526,-7.2794,-7.2794,-7.2749,-7.2794,-7.2794,-7.2352,-7.2158,-7.2271,-7.0724,-6.8553,-6.5661,-6.4811,-6.2881,-5.9632,-5.9318,-5.9139,-5.8712,-5.7711,-5.6984,-5.6376,-5.5401,-5.4556,-5.3857,-5.3491,-5.3424,-5.3757,-5.3491,-5.3224,-5.3191,-5.3191,-5.3058,-5.2659,-5.2625,-5.2625,-5.2625,-5.2625,-5.2625,-5.2474,-5.112,-5.0541,-5.2009,-4.9432,-4.8744,-5.0817,-5.196,-5.2392,-5.2939,-5.1294,-5.0456,-5.1776,-5.2126,-5.2226,-5.2592,-5.2625,-5.2625,-5.2625,-5.2625,-5.2003,-5.1176,-5.1172,-5.1425,-5.0423,-5.0422,-5.0714,-5.0162,-4.9663,-4.9054,-4.819,-4.7865,-4.7666,-4.7672,-4.8494,-4.9907,-7.662,-7.6667,-7.5638,-7.5217,-7.5171,-7.4236,-7.3815,-7.3815,-7.3815,-7.3815,-7.3815,-7.3815,-7.3655,-7.3184,-7.3184,-7.2872,-7.2201,-7.1677,-7.1467,-7.1362,-7.0835,-7.0473,-7.0473,-7.0473,-7.0473,-7.0473,-7.0517,-7.0473,-7.0623,-7.0517,-7.0473,-7.0517,-7.0473,-7.0517,-7.0473,-7.0473,-7.0473,-7.0517,-7.1321,-7.1659,-7.1812,-7.1659,-7.1856,-7.1882,-7.1856,-7.1856,-7.1882,-7.2794,-7.3329,-7.3463,-7.2202,-7.0039,-6.6767,-6.5075,-6.2464,-5.918,-5.8582,-5.8462,-5.8355,-5.7876,-5.6999,-5.5671,-5.4976,-5.3923,-5.2592,-5.1793,-5.1593,-5.2226,-5.176,-5.166,-5.2359,-5.2459,-5.2492,-5.2592,-5.2625,-5.2625,-5.2625,-5.2525,-5.2426,-5.2392,-5.1793,-5.1212,-5.1294,-5.0633,-5.0109,-5.0448,-5.1028,-5.156,-5.1926,-5.1227,-5.0795,-5.1194,-5.1327,-5.1627,-5.1993,-5.2292,-5.2193,-5.2326,-5.2226,-5.2159,-5.1893,-5.1578,-5.1246,-5.1246,-5.0415,-4.9663,-4.9197,-4.8598,-4.8032,-4.7566,-4.7617,-4.7689,-4.7693,-4.8744,-4.9798,-7.489,-7.5638,-7.4563,-7.4142,-7.4095,-7.3909,-7.3815,-7.3815,0.0,0.0,0.0,-7.3815,-7.3815,-7.3759,-7.3712,-7.3449,-7.2826,-7.2305,-7.1736,-7.1362,-7.0835,-7.0473,-7.0473,-7.0473,-7.0473,-7.0473,-7.0473,-7.0473,-7.0473,-7.0473,-7.0473,-7.0473,-7.0473,-7.0473,-7.0473,-7.0473,-7.0473,-7.0517,-7.0802,-7.0785,-7.0785,-7.0741,-7.1187,-7.1838,-7.1187,-7.1142,-7.1838,-7.206,-7.2615,-7.3374,-7.3265,-7.1818,-6.9126,-6.6808,-6.3784,-5.9905,-5.8377,-5.7428,-5.6822,-5.6634,-5.6051,-5.4728,-5.3701,-5.2659,-5.176,-5.1028,-5.0548,-5.0795,-5.0581,-5.0894,-5.1593,-5.1693,-5.196,-5.2559,-5.2625,-5.2625,-5.2592,-5.2093,-5.1693,-5.1627,-5.1061,-5.0482,-5.0595,-5.0462,-5.0428,-5.0316,-5.0382,-5.0581,-5.0761,-5.0415,-5.0362,-5.0495,-5.0562,-5.0548,-5.0828,-5.0894,-5.0714,-5.0928,-5.0781,-5.0795,-5.0795,-5.0695,-5.0515,-5.0528,-5.0462,-4.9663,-4.8631,-4.7799,-4.6828,-4.5768,-4.6041,-4.6454,-4.6652,-4.8636,-5.055,-7.4142,0.0,-7.4049,-7.3815,0.0,-7.3815,-7.3815,-7.3815,-7.3815,-7.3815,-7.3815,-7.3815,-7.3815,-7.3815,-7.3815,-7.3759,-7.3449,-7.2514,-7.1991,-7.1677,-7.094,-7.0473,-7.0473,-7.0473,-7.0473,-7.0473,-7.0473,-7.0473,-7.0473,-7.0473,-7.0473,-7.0473,-7.0473,-7.0785,-7.1232,-7.0785,-7.0729,-7.094,-7.1753,-7.1872,-7.1276,-7.1597,-7.1866,-7.1946,-7.1008,0.0,0.0,0.0,0.0,0.0,0.0,0.0,0.0,0.0,0.0,-6.1164,-6.059,-6.0289,-5.991,-5.8546,-5.7143,-5.5796,-5.4108,-5.3173,-5.3454,-5.183,-5.1058,-5.1803,-5.1193,-5.0946,-5.1429,-5.1719,-5.1973,-5.2109,-5.2059,-5.2059,-5.1993,-5.1394,-5.0961,-5.0894,-5.0329,-4.9863,-4.9863,-4.9563,-4.933,-4.922,-4.9596,-4.9863,-4.9829,-4.9563,-4.933,-4.9186,-4.9596,-4.9962,-5.0329,-5.0428,-5.0316,-5.0362,-5.0096,-4.9896,-4.9863,-4.9563,-4.922,-4.9297,-4.8887,-4.8456,-4.7732,-4.736,-4.6959,-4.6307,-4.6729,-4.7669,-4.9512,-5.1506,-5.2942,-7.3815,-7.3815,-7.3815,-7.3815,-7.3918,-7.4329,-7.4432,-7.4432,-7.4432,-7.4227,-7.3918,-7.4039,-7.4008,-7.3866,-7.4225,-7.4428,-7.4326,-7.3309,-7.2798,-7.2798,-7.2055,-7.1731,-7.1731,-7.1868,-7.2005,-7.2109,-7.2005,-7.1959,-7.2005,-7.2005,-7.2005,-7.2109,-7.2005,-7.21,-7.2294,0.0,0.0,0.0,-7.3937,-7.3873,-7.2643,-7.3008,-7.2886,-7.2098,-7.116,0.0,-7.0473,-6.958,-6.9045,-6.9045,-6.8866,0.0,0.0,0.0,0.0,0.0,0.0,0.0,0.0,0.0,0.0,0.0,-5.5069,-5.3994,-5.4674,-5.2721,-5.2132,-5.3587,-5.1733,-5.0812,-5.1529,-5.1597,-5.1554,-5.137,-5.1437,-5.1403,-5.1403,-5.0934,-5.0465,-5.0253,-4.9828,-4.9536,-4.9502,-4.8923,-4.8588,-4.8547,-4.8949,-4.9283,-4.9536,-4.8957,-4.8588,-4.8373,-4.8982,-4.944,-4.9896,-5.0019,-5.0006,-4.9696,-4.9164,-4.8806,-4.8598,-4.8165,-4.7832,-4.8333,-4.7857,-4.7693,-4.8046,-4.8085,-4.8359,-4.8217,-4.8854,-5.0071,-5.2393,-5.3979,-5.4401,-7.3815,-7.3815,-7.3815,-7.3815,-7.4021,-7.581,-7.6569,-7.6569,-7.6569,-7.5608,-7.3974,-7.475,-7.4626,-7.385,-7.5434,-7.6193,-7.6193,-7.5575,-7.5144,-7.5194,-7.5601,-7.5799,-7.5848,-7.6879,-7.7272,-7.7272,-7.7272,-7.7421,-7.7372,-7.7372,-7.7272,-7.7321,-7.7421,-7.6319,-7.4227,-7.4283,-7.5261,-7.7271,-7.7568,-7.6766,-7.4834,-7.4423,-7.3751,-7.2807,-7.1373,-7.0473,-7.0473,-6.9536,-6.9045,-6.9,-6.8286,-6.7547,-6.721,-6.539,-6.3804,0.0,-6.1482,0.0,0.0,0.0,0.0,0.0,0.0,0.0,0.0,-5.2696,-5.373,-5.5761,-5.1169,-4.9368,-5.2535,-5.0594,-4.956,-5.0862,-5.1033,-5.1033,-5.1033,-5.1075,-5.0766,-4.9937,-4.9908,-4.9873,-4.9873,-4.9805,-4.9488,-4.9059,-4.9268,-4.98,-4.9839,-4.9984,-4.9809,-4.8951,-4.9019,-4.9512,-4.9289,-4.9423,-4.9401,-4.7924,-4.7315,-4.6467,-4.6846,-4.6642,-4.6921,-4.8088,-4.8778,-4.9645,-5.1092,-5.1218,-5.1342,-5.1261,-5.1873,-5.2277,-5.2251,-5.251,-5.1826,-7.4329,-7.4227,-7.3918,-7.5405,-7.7867,-7.8706,-7.8602,-7.776,-7.776,-7.6827,-7.5408,-7.5788,-7.5674,-7.5415,-7.6168,-7.6542,-7.6542,-7.588,-7.5692,-7.5598,-7.562,-7.5583,-7.5678,-7.6175,-7.6374,-7.6374,-7.6374,-7.6374,-7.6374,-7.6424,-7.6374,-7.6374,-7.6374,-7.6915,-7.7851,-7.7721,-7.7271,-7.6712,-7.6808,-7.6625,-7.6043,-7.6778,-7.617,-7.4298,-7.2705,-7.1423,-7.0158,-6.8291,-6.7393,-6.7393,-6.6501,-6.5742,-6.5206,-6.5103,-6.4732,0.0,0.0,0.0,0.0,0.0,0.0,0.0,0.0,0.0,0.0,0.0,-5.6513,-5.6554,-5.3089,-5.186,-5.4407,-5.3255,-5.2608,-5.3672,-5.422,-5.3941,-5.2152,-5.2224,-5.1689,-5.0057,-4.9916,-4.9916,-4.9916,-4.9916,-4.9809,-4.9595,-5.1827,-5.3575,-5.3575,-5.347,-5.347,-5.312,-5.3015,-5.3052,-5.2843,-5.2701,-5.1934,-5.0238,-4.9718,-4.941,-4.8851,-4.8751,-4.8751,-4.9058,-4.9597,-5.0339,-5.1013,-5.1523,-5.1883,-5.2043,-5.2856,-5.3488,-5.3262,-5.3537,-5.3438,-7.6267,-7.6166,-7.5864,-7.7867,-8.1346,-8.1294,-8.0389,-7.8846,-7.8794,-7.7959,-7.6491,-7.6382,-7.6415,-7.6826,-7.7079,-7.7198,-7.7198,-7.6691,-7.6457,-7.6457,-7.6345,-7.6263,-7.6263,-7.6609,-7.6762,-7.6762,-7.6762,-7.6762,-7.6762,-7.6762,-7.6915,-7.7118,-7.6517,-7.7582,-8.0227,-8.0096,-7.8919,-7.6867,-7.6815,-7.7193,-7.8077,-7.8803,-7.799,-7.5406,-7.4089,-7.2577,-7.0701,-6.839,-6.705,-6.6777,-6.5515,-6.4551,-6.3746,-6.5036,0.0,0.0,0.0,0.0,0.0,0.0,0.0,0.0,0.0,-5.707,-5.9421,0.0,-5.863,0.0,-5.475,-5.4374,-5.6015,-5.5401,0.0,0.0,-5.6794,-5.6449,-5.4116,-5.3975,-5.3456,-5.1786,-5.1328,-5.1364,-5.1827,-5.172,-5.1541,-5.1361,-5.4458,-5.6694,-5.625,-5.6267,-5.6346,-5.5947,-5.5822,-5.6244,-5.597,-5.5359,-5.396,-5.246,-5.2103,-5.1945,-5.1181,-5.099,-5.0836,-5.0334,-5.0739,-5.1225,-5.1497,-5.2078,-5.2489,-5.2208,-5.2885,-5.3649,-5.3587,-5.4025,-5.4261,-8.084,-8.0936,-8.084,-8.1506,-8.2606,-8.2644,-8.1641,-8.0128,-8.0128,-7.8808,-7.6534,-7.5571,-7.6063,-7.7747,-7.8529,0.0,-7.886,-7.886,-7.8722,-7.886,-7.9914,-8.0402,-8.0457,-8.1541,-8.2171,-8.2171,-8.2171,-8.2171,-8.2029,-8.2029,-8.2768,-8.3745,-8.1487,-8.0,-7.93,-8.0256,-8.066,-8.0402,-8.0402,-8.0999,-8.2191,-8.0054,-7.7758,-7.5698,-7.4987,-7.4159,-7.3028,-7.1196,-6.9722,-6.8773,-6.6693,-6.5445,-6.5355,0.0,0.0,0.0,0.0,0.0,0.0,0.0,0.0,0.0,0.0,0.0,0.0,0.0,0.0,0.0,-5.502,0.0,-5.7077,-5.5606,0.0,0.0,0.0,-5.6877,-5.6697,-5.6498,-5.6538,-5.6398,0.0,0.0,-5.7232,-5.6755,-5.5821,-5.493,-5.5144,-5.5339,-5.5299,-5.6176,-5.6218,-5.5067,-5.5385,-5.5881,-5.6361,-5.4967,-5.3792,-5.3048,-5.1879,-5.1652,-5.152,-5.1559,-5.1559,-5.1917,-5.2627,-5.3274,-5.3885,-5.446,-5.4818,-5.3227,-5.2417,-5.1928,-5.1967,-5.2141,-5.2427,-8.3212,-8.4989,-8.4989,-8.46,-8.4018,-8.3963,-8.3043,-8.1462,-8.1462,-8.0511,-7.8861,-7.8154,-7.7875,-7.7904,-7.7969,0.0,0.0,0.0,-7.696,-7.7096,-7.8216,-7.8763,-7.8817,-8.0019,-8.0565,-8.0565,-8.0565,-8.0183,-7.9473,-8.0183,-8.0456,-8.0128,0.0,0.0,-7.9145,-7.9582,-7.98,-7.98,-7.9855,-8.0401,-8.1603,-8.0597,-7.9406,-7.8021,-7.6888,-7.5508,-7.3758,-7.1621,-7.0172,-6.9781,-6.8016,-6.6851,0.0,0.0,0.0,0.0,0.0,0.0,0.0,0.0,0.0,0.0,0.0,-5.8116,-5.9085,0.0,0.0,0.0,-5.814,-5.8294,-5.907,-5.8255,0.0,0.0,0.0,0.0,0.0,0.0,0.0,-5.865,-5.7177,-5.6475,-5.7218,-5.8174,-5.8683,-5.834,-5.8255,-5.8041,-5.7442,0.0,-5.7905,-5.7933,-5.8273,-5.8666,-5.9308,-5.7846,-5.6777,-5.7093,-5.6387,-5.557,-5.5027,-5.4936,-5.4796,-5.4606,-5.4671,-5.492,-5.5104,-5.5118,-5.4646,-5.3332,-5.2943,-5.2795,-5.2787,-5.3194,-5.3817,-8.4696,0.0,0.0,0.0,0.0,-8.4422,-8.3442,-8.191,-8.1576,-8.0826,-7.9911,-7.9198,0.0,0.0,0.0,0.0,0.0,0.0,-7.5699,-7.5674,-7.6494,-7.6851,-7.6932,-7.7725,-7.8107,-7.8053,-7.8107,-7.767,-7.6932,-7.767,-7.7452,-7.6305,0.0,0.0,0.0,0.0,-7.8926,-7.8653,-7.8926,-7.9527,-8.0347,-8.0401,-8.0007,-7.941,-7.8408,-7.7044,-7.5056,-7.267,-7.1241,-7.0887,-6.9354,0.0,0.0,0.0,0.0,0.0,0.0,0.0,0.0,0.0,0.0,0.0,0.0,0.0,0.0,0.0,0.0,0.0,0.0,0.0,-5.9938,-5.942,-5.9885,0.0,0.0,0.0,0.0,0.0,0.0,0.0,0.0,0.0,-5.9059,-5.9585,-5.9717,0.0,0.0,-5.8735,-5.8021,-5.8728,-5.9531,-5.9937,-6.0791,0.0,-6.1923,-6.0254,-5.9092,-5.9849,-5.882,-5.7889,-5.7893,-5.7366,-5.6839,-5.6659,-5.5953,-5.5738,-5.6532,-5.6211,-5.5432,-5.4406,-5.3824,-5.3733,-5.3866,-5.4098,-5.4666,0.0,0.0,0.0,0.0,0.0,0.0,0.0,0.0,-7.9943,-7.92,0.0,-7.7445,0.0,0.0,0.0,0.0,0.0,-7.6119,0.0,0.0,-7.562,-7.5729,-7.5674,-7.5784,-7.5784,-7.5784,-7.5784,-7.5729,-7.562,-7.5674,0.0,0.0,0.0,0.0,0.0,0.0,-7.8544,-7.7506,-7.8489,-7.9145,-7.92,-7.92,-7.92,-7.9116,-7.9116,-7.8433,-7.7288,-7.5285,-7.3783,-7.2648,-7.0267,0.0,0.0,0.0,0.0,0.0,0.0,0.0,0.0,0.0,0.0,0.0,0.0,0.0,0.0,0.0,0.0,0.0,0.0,0.0,0.0,-5.8128,0.0,0.0,0.0,0.0,0.0,0.0,0.0,0.0,0.0,0.0,-6.4462,-6.137,-5.8467,-5.7661,0.0,0.0,0.0,0.0,-6.0375,-5.936,-6.2051,-6.3773,-6.2906,-6.0764,-5.9313,-5.9352,0.0,0.0,-5.8914,-5.7348,-5.6404,-5.7551,-5.6122,-5.5498,-5.8645,-5.8376,-5.7585,-5.6687,-5.5034,-5.4081,-5.4548,-5.4284,-5.4023,0.0,0.0,0.0,0.0,0.0,0.0,0.0,0.0,0.0,-7.9081,0.0,-7.738,0.0,0.0,0.0,0.0,0.0,0.0,0.0,0.0,-7.4477,-7.4884,-7.5172,-7.571,-7.615,0.0,-7.6095,-7.5371,0.0,0.0,0.0,0.0,0.0,0.0,0.0,0.0,-7.7041,-7.7342,-7.7725,-7.8326,-7.909,-7.9145,-7.9145,-7.9145,-7.9145,-7.8544,-7.7397,-7.5198,-7.4173,0.0,0.0,0.0,0.0,0.0,0.0,0.0,0.0,0.0,0.0,0.0,0.0,0.0,0.0,0.0,0.0,0.0,0.0,0.0,0.0,0.0,0.0,0.0,-6.0735,0.0,0.0,0.0,0.0,0.0,0.0,0.0,0.0,0.0,-6.5925,-6.3259,-6.0432,-5.8722,-5.7037,-5.5806,-5.5247,0.0,0.0,0.0,0.0,0.0,0.0,0.0,-6.133,-6.133,-6.1286,-6.1453,-6.2336,-6.074,-5.9474,-5.9968,0.0,0.0,-5.7555,-5.741,-5.6895,-5.5833,-5.625,-5.6665,-5.6278,-5.7017,-5.8148,0.0,0.0,0.0,0.0,0.0,0.0,0.0,0.0,0.0,-7.8306,-7.7363,0.0,0.0,0.0,0.0,0.0,0.0,0.0,0.0,0.0,0.0,0.0,-7.4282,-7.4884,0.0,0.0,0.0,0.0,0.0,0.0,0.0,0.0,0.0,0.0,0.0,0.0,-7.6456,-7.7594,-7.7474,-7.7889,-7.909,-7.9257,-7.934,-7.934,-7.8984,-7.8517,-7.783,0.0,0.0,0.0,0.0,0.0,0.0,0.0,0.0,0.0,0.0,0.0,0.0,0.0,0.0,0.0,0.0,0.0,0.0,0.0,0.0,0.0,0.0,0.0,0.0,0.0,-6.1323,0.0,0.0,0.0,0.0,0.0,0.0,0.0,0.0,0.0,0.0,0.0,-6.2126,-6.0309,-5.849,-5.7022,-5.6291,-5.7274,-5.8444,0.0,0.0,0.0,0.0,0.0,0.0,0.0,0.0,0.0,0.0,0.0,0.0,0.0,0.0,-6.0345,-5.8618,-5.8412,-5.8135,-5.6967,0.0,0.0,0.0,0.0,0.0,0.0,0.0,0.0,0.0,0.0,0.0,0.0,0.0,0.0,0.0,0.0,0.0,0.0,-7.4405,0.0,0.0,0.0,0.0,0.0,0.0,0.0,0.0,0.0,0.0,0.0,0.0,0.0,0.0,0.0,0.0,0.0,0.0,0.0,0.0,0.0,0.0,-7.7022,-7.8347,-7.7777,-7.7998,-7.923,-7.9616,-7.9864,-7.9808,-7.9028,-7.8603,-7.8468,0.0,0.0,0.0,0.0,0.0,0.0,0.0,0.0,0.0,0.0,0.0,0.0,0.0,0.0,0.0,0.0,0.0,0.0,0.0,0.0,0.0,0.0,0.0,0.0,0.0,0.0,-5.9351,-5.9853,-6.2057,0.0,0.0,0.0,0.0,0.0,0.0,0.0,0.0,0.0,0.0,-6.0634,-5.9369,-5.9007,-6.0253,-6.1432,-6.2179,-6.4201,-6.5731,-6.5604,-6.3896,-6.2813,0.0,0.0,0.0,0.0,0.0,0.0,0.0,0.0,0.0,0.0,0.0,0.0,0.0,0.0,0.0,0.0,0.0,0.0,0.0,0.0,0.0,0.0,0.0,0.0,0.0,0.0,0.0,0.0,0.0,0.0,0.0,0.0,0.0,0.0,0.0,0.0,0.0,0.0,0.0,0.0,0.0,0.0,0.0,0.0,0.0,0.0,0.0,0.0,0.0,0.0,0.0,0.0,0.0,0.0,-7.6735,-7.896,-7.8743,-7.9617,-8.1759,-8.299,-8.2985,-8.196,-8.1778,-8.0762,0.0,0.0,0.0,0.0,0.0,0.0,0.0,0.0,0.0,0.0,0.0,0.0,0.0,0.0,0.0,0.0,0.0,0.0,0.0,0.0,0.0,0.0,0.0,0.0,0.0,0.0,0.0,0.0,-6.2733,-6.2865,-6.362,0.0,0.0,0.0,0.0,0.0,0.0,0.0,0.0,0.0,0.0,-6.1505,-6.1372,-6.2543,-6.313,-6.2512,-6.3764,-6.4456,-6.3593,-6.402,-6.4535,-6.4906,0.0,0.0,0.0,0.0,0.0,0.0,0.0,0.0,0.0,0.0,0.0,0.0,0.0,0.0,0.0,0.0,0.0,0.0,0.0,0.0,0.0,0.0,0.0,0.0,0.0,0.0,0.0,0.0,0.0,0.0,0.0,0.0,0.0,0.0,0.0,0.0,0.0,0.0,0.0,0.0,0.0,0.0,0.0,0.0,0.0,0.0,0.0,0.0,0.0,0.0,0.0,0.0,0.0,-7.8139,-8.0271,-8.0093,-8.0941,-8.2983,-8.4576,-8.4614,-8.3218,-8.2983,-8.1819,0.0,0.0,0.0,0.0,0.0,0.0,0.0,0.0,0.0,0.0,0.0,0.0,0.0,0.0,0.0,0.0,0.0,0.0,0.0,0.0,0.0,0.0,0.0,0.0,0.0,0.0,0.0,0.0,-6.4246,-6.3832,-6.3362,0.0,0.0,0.0,0.0,0.0,0.0,0.0,0.0,0.0,0.0,-6.3494,-6.3363,-6.4522,0.0,0.0,-6.4732,-6.5196,-6.3576,-6.4285,-6.5369,-6.6224,-6.6932,0.0,0.0,0.0,0.0,0.0,0.0,0.0,0.0,0.0,0.0,0.0,0.0,0.0,0.0,0.0,0.0,0.0,0.0,0.0,0.0,0.0,0.0,0.0,0.0,0.0,0.0,0.0,0.0,0.0,0.0,0.0,0.0,0.0,0.0,0.0,0.0,0.0,0.0,0.0,0.0,0.0,0.0,0.0,0.0,0.0,0.0,0.0,0.0,0.0,0.0,0.0,0.0,0.0,-8.2035,-8.1605,-8.2004,-8.3305,-8.4991,-8.5331,-8.398,-8.329,-8.2183,0.0,0.0,0.0,0.0,0.0,0.0,0.0,0.0,0.0,0.0,0.0,0.0,0.0,0.0,0.0,0.0,0.0,0.0,0.0,0.0,0.0,0.0,0.0,0.0,0.0,0.0,0.0,0.0,0.0,0.0,0.0,0.0,0.0,0.0,0.0,0.0,0.0,0.0,0.0,0.0,0.0,-6.5196,-6.4916,-6.6122,-6.659,0.0,-6.6861,-6.7603,-6.5573,-6.5094,-6.5654,-6.7783,0.0,0.0,0.0,0.0,0.0,0.0,0.0,0.0,0.0,0.0,0.0,0.0,0.0,0.0,0.0,0.0,0.0,0.0,0.0,0.0,0.0,0.0,0.0,0.0,0.0,0.0,0.0,0.0,0.0,0.0,0.0,0.0,0.0,0.0,0.0,0.0,0.0,0.0,0.0,0.0,0.0,0.0,0.0,0.0,0.0,0.0,0.0,0.0,0.0,0.0,0.0,0.0,0.0,0.0,-8.2603,-8.2496,-8.3646,-8.6002,-8.7499,-8.752,-8.6046,-8.6044,0.0,0.0,0.0,0.0,0.0,0.0,0.0,0.0,0.0,0.0,0.0,0.0,0.0,0.0,0.0,0.0,0.0,0.0,0.0,0.0,0.0,0.0,0.0,0.0,0.0,0.0,0.0,-6.4711,0.0,0.0,0.0,0.0,0.0,0.0,0.0,0.0,0.0,0.0,0.0,0.0,0.0,0.0,-6.6138,-6.6076,-6.7017,-6.769,0.0,0.0,-6.939,-6.9814,-6.8329,-6.76,0.0,0.0,0.0,0.0,0.0,0.0,0.0,0.0,0.0,0.0,0.0,0.0,0.0,0.0,0.0,0.0,0.0,0.0,0.0,0.0,0.0,0.0,0.0,0.0,0.0,0.0,0.0,0.0,0.0,0.0,0.0,0.0,0.0,0.0,0.0,0.0,0.0,0.0,0.0,0.0,0.0,0.0,0.0,0.0,0.0,0.0,0.0,0.0,0.0,0.0,0.0,0.0,0.0,0.0,-8.2041,-8.3027,-8.3665,-8.5042,-8.7188,-8.8137,-8.813,-8.7282,-8.6808,-8.5548,0.0,0.0,0.0,0.0,0.0,0.0,0.0,0.0,0.0,0.0,0.0,0.0,0.0,0.0,0.0,0.0,0.0,0.0,0.0,0.0,0.0,0.0,0.0,0.0,0.0,0.0,0.0,0.0,0.0,0.0,0.0,0.0,0.0,0.0,0.0,0.0,0.0,0.0,0.0,0.0,0.0,0.0,-6.7114,-6.8199,0.0,0.0,0.0,-7.0268,-7.0112,0.0,0.0,0.0,0.0,0.0,0.0,0.0,0.0,0.0,0.0,0.0,0.0,0.0,0.0,0.0,0.0,0.0,0.0,0.0,0.0,0.0,0.0,0.0,0.0,0.0,0.0,0.0,0.0,0.0,0.0,0.0,0.0,0.0,0.0,0.0,0.0,0.0,0.0,0.0,0.0,0.0,0.0,0.0,0.0,0.0,0.0,0.0,0.0,0.0,0.0,0.0,0.0,0.0,0.0,0.0,0.0,0.0,-8.3393,-8.4656,-8.5923,-8.7315,-8.7693,-8.7754,-8.7753,-8.6543,-8.5206,0.0,0.0,0.0,0.0,0.0,0.0,0.0,0.0,0.0,0.0,0.0,0.0,0.0,0.0,0.0,0.0,0.0,0.0,0.0,0.0,0.0,0.0,0.0,0.0,0.0,0.0,0.0,0.0,0.0,0.0,0.0,0.0,0.0,0.0,0.0,0.0,0.0,0.0,0.0,0.0,0.0,-6.5857,-6.7941,-6.9058,-6.9775,0.0,0.0,-7.065,-6.8946,-6.8408,0.0,0.0,0.0,0.0,0.0,0.0,0.0,0.0,0.0,0.0,0.0,0.0,0.0,0.0,0.0,0.0,0.0,0.0,0.0,0.0,0.0,0.0,0.0,0.0,0.0,0.0,0.0,0.0,0.0,0.0,0.0,0.0,0.0,0.0,0.0,0.0,0.0,0.0,0.0,0.0,0.0,0.0,0.0,0.0,0.0,0.0,0.0,0.0,0.0,0.0,0.0,0.0,0.0,0.0,0.0,0.0,-8.339,-8.3643,-8.453,-8.5921,-8.6231,-8.6352,-8.6352,-8.6097,-8.539,0.0,0.0,0.0,0.0,0.0,0.0,0.0,0.0,0.0,0.0,0.0,0.0,0.0,0.0,0.0,0.0,0.0,0.0,0.0,0.0,0.0,0.0,0.0,0.0,0.0,0.0,0.0,0.0,0.0,0.0,0.0,0.0,0.0,0.0,0.0,0.0,0.0,0.0,0.0,0.0,0.0,-6.739,-6.7878,-6.8773,0.0,0.0,0.0,0.0,-7.3207,-7.1722,0.0,0.0,0.0,0.0,0.0,0.0,0.0,0.0,0.0,0.0,0.0,0.0,0.0,0.0,0.0,0.0,0.0,0.0,0.0,0.0,0.0,0.0,0.0,0.0,0.0,0.0,0.0,0.0,0.0,0.0,0.0,0.0,0.0,0.0,0.0,0.0,0.0,0.0,0.0,0.0,0.0,0.0,0.0,0.0,0.0,0.0,0.0,0.0,0.0,0.0,0.0,0.0,0.0,0.0,0.0,0.0,-8.3868,-8.3868,-8.4569,-8.5906,-8.557,-8.569,-8.6326,-8.569,-8.5104,0.0,0.0,0.0,0.0,0.0,0.0,0.0,0.0,0.0,0.0,0.0,0.0,0.0,0.0,0.0,0.0,0.0,0.0,0.0,0.0,0.0,0.0,0.0,0.0,0.0,0.0,0.0,0.0,0.0,0.0,0.0,0.0,0.0,0.0,0.0,0.0,0.0,0.0,0.0,0.0,-6.8177,-6.8215,-6.9364,0.0,0.0,0.0,0.0,0.0,0.0,-7.1802,-7.1143,0.0,0.0,0.0,0.0,0.0,0.0,0.0,0.0,0.0,0.0,0.0,0.0,0.0,0.0,0.0,0.0,0.0,0.0,0.0,0.0,0.0,0.0,0.0,0.0,0.0,0.0,0.0,0.0,0.0,0.0,0.0,0.0,0.0,0.0,0.0,0.0,0.0,0.0,0.0,0.0,0.0,0.0,0.0,0.0,0.0,0.0,0.0,0.0,0.0,0.0,0.0,0.0,0.0,0.0,0.0,-8.4335,-8.4335,-8.4976,-8.6065,-8.5211,-8.5263,-8.6416,-8.5386,-8.4735,-8.4584,0.0,0.0,0.0,0.0,0.0,0.0,0.0,0.0,0.0,0.0,0.0,0.0,0.0,0.0,0.0,0.0,0.0,0.0,0.0,0.0,0.0,0.0,0.0,0.0,0.0,0.0,0.0,0.0,0.0,0.0,0.0,0.0,0.0,0.0,0.0,0.0,0.0,0.0,0.0,-6.8874,-6.9092,0.0,0.0,0.0,0.0,0.0,0.0,0.0,0.0,-7.0964,0.0,0.0,0.0,0.0,0.0,0.0,0.0,0.0,0.0,0.0,0.0,0.0,0.0,0.0,0.0,0.0,0.0,0.0,0.0,0.0,0.0,0.0,0.0,0.0,0.0,0.0,0.0,0.0,0.0,0.0,0.0,0.0,0.0,0.0,0.0,0.0,0.0,0.0,0.0,0.0,0.0,0.0,0.0,0.0,0.0,0.0,0.0,0.0,0.0,0.0,0.0,0.0,0.0,0.0,0.0,0.0,-8.4335,-8.4463,-8.4655,-8.4761,-8.4813,-8.507,-8.4877,-8.4626,-8.4213,0.0,0.0,0.0,0.0,0.0,0.0,0.0,0.0,0.0,0.0,0.0,0.0,0.0,0.0,0.0,0.0,0.0,0.0,0.0,0.0,0.0,0.0,0.0,0.0,0.0,0.0,0.0,0.0,0.0,0.0,0.0,0.0,0.0,0.0,0.0,0.0,0.0,0.0,-7.0782,-7.054,0.0,0.0,0.0,0.0,0.0,0.0,0.0,0.0,-7.0964,0.0,0.0,0.0,0.0,0.0,0.0,0.0,0.0,0.0,0.0,0.0,0.0,0.0,0.0,0.0,0.0,0.0,0.0,0.0,0.0,0.0,0.0,0.0,0.0,0.0,0.0,0.0,0.0,0.0,0.0,0.0,0.0,0.0,0.0,0.0,0.0,0.0,0.0,0.0,0.0,0.0,0.0,0.0,0.0,0.0,0.0,0.0,0.0,0.0,0.0,0.0,0.0,0.0,0.0,0.0,0.0,0.0,0.0,-8.6089,-8.554,-8.6144,-8.6254,-8.5765,-8.6254,-8.6337,0.0,0.0,0.0,0.0,0.0,0.0,0.0,0.0,0.0,0.0,0.0,0.0,0.0,0.0,0.0,0.0,0.0,0.0,0.0,0.0,0.0,0.0,0.0,0.0,0.0,0.0,0.0,0.0,0.0,0.0,0.0,0.0,0.0,0.0,0.0,0.0,0.0,0.0,0.0,0.0,0.0,0.0,0.0,0.0,0.0,0.0,0.0,0.0,0.0,0.0,0.0,0.0,0.0,0.0,0.0,0.0,0.0,0.0,0.0,0.0,0.0,0.0,0.0,0.0,0.0,0.0,0.0,0.0,0.0,0.0,0.0,0.0,0.0,0.0,0.0,0.0,0.0,0.0,0.0,0.0,0.0,0.0,0.0,0.0,0.0,0.0,0.0,0.0,0.0,0.0,0.0,0.0,0.0,0.0,0.0,0.0,0.0,0.0,0.0,0.0,0.0,0.0,0.0,0.0,0.0,0.0,0.0,0.0,-8.7579,-8.6592,-8.7527,-8.7683,-8.6851,-8.7504,-8.7651,0.0,0.0,0.0,0.0,0.0,0.0,0.0,0.0,0.0,0.0,0.0,0.0,0.0,0.0,0.0,0.0,0.0,0.0,0.0,0.0,0.0,0.0,0.0,0.0,0.0,0.0,0.0,0.0,0.0,0.0,0.0,0.0,0.0,0.0,0.0,0.0,0.0,0.0,0.0,0.0,0.0,0.0,0.0,0.0,0.0,0.0,0.0,0.0,-7.2098,0.0,0.0,0.0,0.0,0.0,0.0,0.0,0.0,0.0,0.0,0.0,0.0,0.0,0.0,0.0,0.0,0.0,0.0,0.0,0.0,0.0,0.0,0.0,0.0,0.0,0.0,0.0,0.0,0.0,0.0,0.0,0.0,0.0,0.0,0.0,0.0,0.0,0.0,0.0,0.0,0.0,0.0,0.0,0.0,0.0,0.0,0.0,0.0,0.0,0.0,0.0,0.0,0.0,0.0,0.0,0.0,0.0,0.0,0.0,-8.7579,-8.6592,-8.7527,-8.8044,-8.7874,-8.7662,-8.6828,0.0,0.0,0.0,0.0,0.0,0.0,0.0,0.0,0.0,0.0,0.0,0.0,0.0,0.0,0.0,0.0,0.0,0.0,0.0,0.0,0.0,0.0,0.0,0.0,0.0,0.0,0.0,0.0,0.0,0.0,0.0,0.0,0.0,0.0,0.0,0.0,0.0,0.0,0.0,0.0,0.0,0.0,0.0,0.0,0.0,0.0,0.0,0.0,0.0,0.0,0.0,0.0,0.0,0.0,0.0,0.0,0.0,0.0,0.0,0.0,0.0,0.0,0.0,0.0,0.0,0.0,0.0,0.0,0.0,0.0,0.0,0.0,0.0,0.0,0.0,0.0,0.0,0.0,0.0,0.0,0.0,0.0,0.0,0.0,0.0,0.0,0.0,0.0,0.0,0.0,0.0,0.0,0.0,0.0,0.0,0.0,0.0,0.0,0.0,0.0,0.0,0.0,0.0,0.0,0.0,0.0,0.0,0.0,-8.9436,-8.8467,-8.9456,-8.9913,-8.9982,-8.9049,-8.7455,0.0,0.0,0.0,0.0,0.0,0.0,0.0,0.0,0.0,0.0,0.0,0.0,0.0,0.0,0.0,0.0,0.0,0.0,0.0,0.0,0.0,0.0,0.0,0.0,0.0,0.0,0.0,0.0,0.0,0.0,0.0,0.0,0.0,0.0,0.0,0.0,0.0,0.0,0.0,0.0,0.0,0.0,0.0,0.0,0.0,0.0,0.0,0.0,0.0,0.0,0.0,0.0,0.0,0.0,0.0,0.0,0.0,0.0,0.0,0.0,0.0,0.0,0.0,0.0,0.0,0.0,0.0,0.0,0.0,0.0,0.0,0.0,0.0,0.0,0.0,0.0,0.0,0.0,0.0,0.0,0.0,0.0,0.0,0.0,0.0,0.0,0.0,0.0,0.0,0.0,0.0,0.0,0.0,0.0,0.0,0.0,0.0,0.0,0.0,0.0,0.0,0.0,0.0,0.0,0.0,0.0,0.0,0.0,0.0,-9.0434,-9.0999,-9.1192,-9.0819,-8.9533,-8.7529,0.0,0.0,0.0,0.0,0.0,0.0,0.0,0.0,0.0,0.0,0.0,0.0,0.0,0.0,0.0,0.0,0.0,0.0,0.0,0.0,0.0,0.0,0.0,0.0,0.0,0.0,0.0,0.0,0.0,0.0,0.0,0.0,0.0,0.0,0.0,0.0,0.0,0.0,0.0,0.0,0.0,0.0,0.0,0.0,0.0,0.0,0.0,0.0,0.0,0.0,0.0,0.0,0.0,0.0,0.0,0.0,0.0,0.0,0.0,0.0,0.0,0.0,0.0,0.0,0.0,0.0,0.0,0.0,0.0,0.0,0.0,0.0,0.0,0.0,0.0,0.0,0.0,0.0,0.0,0.0,0.0,0.0,0.0,0.0,0.0,0.0,0.0,0.0,0.0,0.0,0.0,0.0,0.0,0.0,0.0,0.0,0.0,0.0,0.0,0.0,0.0,0.0,0.0,0.0,0.0,0.0,0.0,0.0,0.0,-9.1772,-9.1528,-9.0794,-8.9576,-8.8086,-8.6415,0.0,0.0,0.0,0.0,0.0,0.0,0.0,0.0,0.0,0.0,0.0,0.0,0.0,0.0,0.0,0.0,0.0,0.0,0.0,0.0,0.0,0.0,0.0,0.0,0.0,0.0,0.0,0.0,0.0,0.0,0.0,0.0,0.0,0.0,0.0,0.0,0.0,0.0,0.0,0.0,0.0,0.0,0.0,0.0,0.0,0.0,0.0,0.0,0.0,0.0,0.0,0.0,0.0,0.0,0.0,0.0,0.0,0.0,0.0,0.0,0.0,0.0,0.0,0.0,0.0,0.0,0.0,0.0,0.0,0.0,0.0,0.0,0.0,0.0,0.0,0.0,0.0,0.0,0.0,0.0,0.0,0.0,0.0,0.0,0.0,0.0,0.0,0.0,0.0,0.0,0.0,0.0,0.0,0.0,0.0,0.0,0.0,0.0,0.0,0.0,0.0,0.0,0.0,0.0,0.0,0.0,0.0,0.0,0.0,-9.3093,-9.2227,-9.107,-8.969,-8.8154,-8.613,-8.3687,0.0,0.0,0.0,0.0,0.0,0.0,0.0,0.0,0.0,0.0,0.0,0.0,0.0,0.0,0.0,0.0,0.0,0.0,0.0,0.0,0.0,0.0,0.0,0.0,0.0,0.0,0.0,0.0,0.0,0.0,0.0,0.0,0.0,0.0,0.0,0.0,0.0,0.0,0.0,0.0,0.0,0.0,0.0,0.0,0.0,0.0,0.0,0.0,0.0,0.0,0.0,0.0,0.0,0.0,0.0,0.0,0.0,0.0,0.0,0.0,0.0,0.0,0.0,0.0,0.0,0.0,0.0,0.0,0.0,0.0,0.0,0.0,0.0,0.0,0.0,0.0,0.0,0.0,0.0,0.0,0.0,0.0,0.0,0.0,0.0,0.0,0.0,0.0,0.0,0.0,0.0,0.0,0.0,0.0,0.0,0.0,0.0,0.0,0.0,0.0,0.0,0.0,0.0,0.0,0.0,0.0,0.0,0.0,-9.3866,-9.3023,-9.173,-8.9898,-8.8779,-8.654,0.0,0.0,0.0,0.0,0.0,0.0,0.0,0.0,0.0,0.0,0.0,0.0,0.0,0.0,0.0,0.0,0.0,0.0,0.0,0.0,0.0,0.0,0.0,0.0,0.0,0.0,0.0,0.0,0.0,0.0,0.0,0.0,0.0,0.0,0.0,0.0,0.0,0.0,0.0,0.0,0.0,0.0,0.0,0.0,0.0,0.0,0.0,0.0,0.0,0.0,0.0,0.0,0.0,0.0,0.0,0.0,0.0,0.0,0.0,0.0,0.0,0.0,0.0,0.0,0.0,0.0,0.0,0.0,0.0,0.0,0.0,0.0,0.0,0.0,0.0,0.0,0.0,0.0,0.0,0.0,0.0,0.0,0.0,0.0,0.0,0.0,0.0,0.0,0.0,0.0,0.0,0.0,0.0,0.0,0.0,0.0,0.0,0.0,0.0,0.0,0.0,0.0,0.0,0.0,0.0,0.0,0.0,0.0,-9.2253,-9.398,-9.391,-9.2665,-9.0104,-8.9963,-8.771,0.0,0.0,0.0,0.0,0.0,0.0,0.0,0.0,0.0,0.0,0.0,0.0,0.0,0.0,0.0,0.0,0.0,0.0,0.0,0.0,0.0,0.0,0.0,0.0,0.0,0.0,0.0,0.0,0.0,0.0,0.0,0.0,0.0,0.0,0.0,0.0,0.0,0.0,0.0,0.0,0.0,0.0,0.0,0.0,0.0,0.0,0.0,0.0,0.0,0.0,0.0,0.0,0.0,0.0,0.0,0.0,0.0,0.0,0.0,0.0,0.0,0.0,0.0,0.0,0.0,0.0,0.0,0.0,0.0,0.0,0.0,0.0,0.0,0.0,0.0,0.0,0.0,0.0,0.0,0.0,0.0,0.0,0.0,0.0,0.0,0.0,0.0,0.0,0.0,0.0,0.0,0.0,0.0,0.0,0.0,0.0,0.0,0.0,0.0,0.0,0.0,0.0,0.0,0.0,0.0,0.0,0.0,0.0,0.0,-9.2621,0.0,-9.3807,0.0,-9.0524,-8.8149,0.0,0.0,0.0,0.0,0.0,0.0,0.0,0.0,0.0,0.0,0.0,0.0,0.0,0.0,0.0,0.0,0.0,0.0,0.0,0.0,0.0,0.0,0.0,0.0,0.0,0.0,0.0,0.0,0.0,0.0,0.0,0.0,0.0,0.0,0.0,0.0,0.0,0.0,0.0,0.0,0.0,0.0,0.0,0.0,0.0,0.0,0.0,0.0,0.0,0.0,0.0,0.0,0.0,0.0,0.0,0.0,0.0,0.0,0.0,0.0,0.0,0.0,0.0,0.0,0.0,0.0,0.0,0.0,0.0,0.0,0.0,0.0,0.0,0.0,0.0,0.0,0.0,0.0,0.0,0.0,0.0,0.0,0.0,0.0,0.0,0.0,0.0,0.0,0.0,0.0,0.0,0.0,0.0,0.0,0.0,0.0,0.0,0.0,0.0,0.0,0.0,0.0,0.0,0.0,0.0,0.0,0.0,0.0,0.0,-9.3459,-9.4209,-9.3764,-9.1823,-9.1085,-8.868,0.0,0.0,0.0,0.0,0.0,0.0,0.0,0.0,0.0,0.0,0.0,0.0,0.0,0.0,0.0,0.0,0.0,0.0,0.0,0.0,0.0,0.0,0.0,0.0,0.0,0.0,0.0,0.0,0.0,0.0,0.0,0.0,0.0,0.0,0.0,0.0,0.0,0.0,0.0,0.0,0.0,0.0,0.0,0.0,0.0,0.0,0.0,0.0,0.0,0.0,0.0,0.0,0.0,0.0,0.0,0.0,0.0,0.0,0.0,0.0,0.0,0.0,0.0,0.0,0.0,0.0,0.0,0.0,0.0,0.0,0.0,0.0,0.0,0.0,0.0,0.0,0.0,0.0,0.0,0.0,0.0,0.0,0.0,0.0,0.0,0.0,0.0,0.0,0.0,0.0,0.0,0.0,0.0,0.0,0.0,0.0,0.0,0.0,0.0,0.0,0.0,0.0,0.0,0.0,0.0,0.0,0.0,0.0,0.0,0.0,-9.4746,-9.2804,-9.0314,-9.1366,-8.9251,0.0,0.0,0.0,0.0,0.0,0.0,0.0,0.0,0.0,0.0,0.0,0.0,0.0,0.0,0.0,0.0,0.0,0.0,0.0,0.0,0.0,0.0,0.0,0.0,0.0,0.0,0.0,0.0,0.0,0.0,0.0,0.0,0.0,0.0,0.0,0.0,0.0,0.0,0.0,0.0,0.0,0.0,0.0,0.0,0.0,0.0,0.0,0.0,0.0,0.0,0.0,0.0,0.0,0.0,0.0,0.0,0.0,0.0,0.0,0.0,0.0,0.0,0.0,0.0,0.0,0.0,0.0,0.0,0.0,0.0,0.0,0.0,0.0,0.0,0.0,0.0,0.0,0.0,0.0,0.0,0.0,0.0,0.0,0.0,0.0,0.0,0.0,0.0,0.0,0.0,0.0,0.0,0.0,0.0,0.0,0.0,0.0,0.0,0.0,0.0,0.0,0.0,0.0,0.0,0.0,0.0,0.0,0.0,0.0,0.0,-9.3834,0.0,-9.1716,-8.9771,-8.7409,-8.4643,0.0,0.0,0.0,0.0,0.0,0.0,0.0,0.0,0.0,0.0,0.0,0.0,0.0,0.0,0.0,0.0,0.0,0.0,0.0,0.0,0.0,0.0,0.0,0.0,0.0,0.0,0.0,0.0,0.0,0.0,0.0,0.0,0.0,0.0,0.0,0.0,0.0,0.0,0.0,0.0,0.0,0.0,0.0,0.0,0.0,0.0,0.0,0.0,0.0,0.0,0.0,0.0,0.0,0.0,0.0,0.0,0.0,0.0,0.0,0.0,0.0,0.0,0.0,0.0,0.0,0.0,0.0,0.0,0.0,0.0,0.0,0.0,0.0,0.0,0.0,0.0,0.0,0.0,0.0,0.0,0.0,0.0,0.0,0.0,0.0,0.0,0.0,0.0,0.0,0.0,0.0,0.0,0.0,0.0,0.0,0.0,0.0,0.0,0.0,0.0,0.0,0.0,0.0,0.0,0.0,0.0,0.0,0.0,0.0,0.0,0.0,-9.2319,-8.8458,-8.5711,0.0,0.0,0.0,0.0,0.0,0.0,0.0,0.0,0.0,0.0,0.0,0.0,0.0,0.0,0.0,0.0,0.0,0.0,0.0,0.0,0.0,0.0,0.0,0.0,0.0,0.0,0.0,0.0,0.0,0.0,0.0,0.0,0.0,0.0,0.0,0.0,0.0,0.0,0.0,0.0,0.0,0.0,0.0,0.0,0.0,0.0,0.0,0.0,0.0,0.0,0.0,0.0,0.0,0.0,0.0,0.0,0.0,0.0,0.0,0.0,0.0,0.0,0.0,0.0,0.0,0.0,0.0,0.0,0.0,0.0,0.0,0.0,0.0,0.0,0.0,0.0,0.0,0.0,0.0,0.0,0.0,0.0,0.0,0.0,0.0,0.0,0.0,0.0,0.0,0.0,0.0,0.0,0.0,0.0,0.0,0.0,0.0,0.0,0.0,0.0,0.0,0.0,0.0,0.0,0.0,0.0,0.0,0.0,0.0,0.0,0.0,-9.0036,-9.1506,-8.7497,0.0,-8.2685,0.0,0.0,0.0,0.0,0.0,0.0,0.0,0.0,0.0,0.0,0.0,0.0,0.0,0.0,0.0,0.0,0.0,0.0,0.0,0.0,0.0,0.0,0.0,0.0,0.0,0.0,0.0,0.0,0.0,0.0,0.0,0.0,0.0,0.0,0.0,0.0,0.0,0.0,0.0,0.0,0.0,0.0,0.0,0.0,0.0,0.0,0.0,0.0,0.0,0.0,0.0,0.0,0.0,0.0,0.0,0.0,0.0,0.0,0.0,0.0,0.0,0.0,0.0,0.0,0.0,0.0,0.0,0.0,0.0,0.0,0.0,0.0,0.0,0.0,0.0,0.0,0.0,0.0,0.0,0.0,0.0,0.0,0.0,0.0,0.0,0.0,0.0,0.0,0.0,0.0,0.0,0.0,0.0,0.0,0.0,0.0,0.0,0.0,0.0,0.0,0.0,0.0,0.0,0.0,0.0,0.0,0.0,0.0,0.0,0.0,0.0,0.0,-8.7875,-8.6788,-8.2794,0.0,0.0,0.0,0.0,0.0,0.0,0.0,0.0,0.0,0.0,0.0,0.0,0.0,0.0,0.0,0.0,0.0,0.0,0.0,0.0,0.0,0.0,0.0,0.0,0.0,0.0,0.0,0.0,0.0,0.0,0.0,0.0,0.0,0.0,0.0,0.0,0.0,0.0,0.0,0.0,0.0,0.0,0.0,0.0,0.0,0.0,0.0,0.0,0.0,0.0,0.0,0.0,0.0,0.0,0.0,0.0,0.0,0.0,0.0,0.0,0.0,0.0,0.0,0.0,0.0,0.0,0.0,0.0,0.0,0.0,0.0,0.0,0.0,0.0,0.0,0.0,0.0,0.0,0.0,0.0,0.0,0.0,0.0,0.0,0.0,0.0,0.0,0.0,0.0,0.0,0.0,0.0,0.0,0.0,0.0,0.0,0.0,0.0,0.0,0.0,0.0,0.0,0.0,0.0,0.0,0.0,0.0,0.0,0.0,0.0,-8.8003,-8.5073,-8.6526,-8.5968,-8.2794,0.0,0.0,0.0,0.0,0.0,0.0,0.0,0.0,0.0,0.0,0.0,0.0,0.0,0.0,0.0,0.0,0.0,0.0,0.0,0.0,0.0,0.0,0.0,0.0,0.0,0.0,0.0,0.0,0.0,0.0,0.0,0.0,0.0,0.0,0.0,0.0,0.0,0.0,0.0,0.0,0.0,0.0,0.0,0.0,0.0,0.0,0.0,0.0,0.0,0.0,0.0,0.0,0.0,0.0,0.0,0.0,0.0,0.0,0.0,0.0,0.0,0.0,0.0,0.0,0.0,0.0,0.0,0.0,0.0,0.0,0.0,0.0,0.0,0.0,0.0,0.0,0.0,0.0,0.0,0.0,0.0,0.0,0.0,0.0,0.0,0.0,0.0,0.0,0.0,0.0,0.0,0.0,0.0,0.0,0.0,0.0,0.0,0.0,0.0,0.0,0.0,0.0,0.0,0.0,0.0,0.0,0.0,0.0,0.0,0.0,0.0,0.0,0.0,0.0,-8.2337,0.0,0.0,0.0,0.0,0.0,0.0,0.0,0.0,0.0,0.0,0.0,0.0,0.0,0.0,0.0,0.0,0.0,0.0,0.0,0.0,0.0,0.0,0.0,0.0,0.0,0.0,0.0,0.0,0.0,0.0,0.0,0.0,0.0,0.0,0.0,0.0,0.0,0.0,0.0,0.0,0.0,0.0,0.0,0.0,0.0,0.0,0.0,0.0,0.0,0.0,0.0,0.0,0.0,0.0,0.0,0.0,0.0,0.0,0.0,0.0,0.0,0.0,0.0,0.0,0.0,0.0,0.0,0.0,0.0,0.0,0.0,0.0,0.0,0.0,0.0,0.0,0.0,0.0,0.0,0.0,0.0,0.0,0.0,0.0,0.0,0.0,0.0,0.0,0.0,0.0,0.0,0.0,0.0,0.0,0.0,0.0,0.0,0.0,0.0,0.0,0.0,0.0,0.0,0.0,0.0,0.0,0.0,0.0,0.0,0.0,0.0,0.0,0.0,0.0,0.0,0.0,0.0,0.0,0.0,0.0,0.0,0.0,0.0,0.0,0.0,0.0,0.0,0.0,0.0,0.0,0.0,0.0,0.0,0.0,0.0,0.0,0.0,0.0,0.0,0.0,0.0,0.0,0.0,0.0,0.0,0.0,0.0,0.0,0.0,0.0,0.0,0.0,0.0,0.0,0.0,0.0,0.0,0.0,0.0,0.0,0.0,0.0,0.0,0.0,0.0,0.0,0.0,0.0,0.0,0.0,0.0,0.0,0.0,0.0,0.0,0.0,0.0,0.0,0.0,0.0,0.0,0.0,0.0,0.0,0.0,0.0,0.0,0.0,0.0,0.0,0.0,0.0,0.0,0.0,0.0,0.0,0.0,0.0,0.0,0.0,0.0,0.0,0.0,0.0,0.0,0.0,0.0,0.0,0.0,0.0,0.0,0.0,0.0,0.0,0.0,0.0,0.0,0.0,0.0,0.0,0.0,0.0,0.0,0.0,0.0,0.0,0.0,0.0,0.0,0.0,0.0,0.0,0.0,0.0,0.0,0.0,0.0,0.0,0.0,0.0,0.0,0.0,0.0,0.0,0.0,0.0,0.0,0.0,0.0,0.0,0.0,0.0,0.0,0.0,0.0,0.0,0.0,0.0,0.0,0.0,0.0,0.0,0.0,0.0,0.0,0.0,0.0,0.0,0.0,0.0,0.0,0.0,0.0,0.0,0.0,0.0,0.0,0.0,0.0,0.0,0.0,0.0,0.0,0.0,0.0,0.0,0.0,0.0,0.0,0.0,0.0,0.0,0.0,0.0,0.0,0.0,0.0,0.0,0.0,0.0,0.0,0.0,0.0,0.0,0.0,0.0,0.0,0.0,0.0,0.0,0.0,0.0,0.0,0.0,0.0,0.0,0.0,0.0,0.0,0.0,0.0,0.0,0.0,0.0,0.0,0.0,0.0,0.0,0.0,0.0,0.0,0.0,0.0,0.0,0.0,0.0,0.0,0.0,0.0,0.0,0.0,0.0,0.0,0.0,0.0,0.0,0.0,0.0,0.0,0.0,0.0,0.0,0.0,0.0,0.0,0.0,0.0,0.0,0.0,0.0,0.0,0.0,0.0,0.0,0.0,0.0,0.0,0.0,0.0,0.0,0.0,0.0,0.0,0.0,0.0,0.0,0.0,0.0,0.0,0.0,0.0,0.0,0.0,0.0,0.0,0.0,0.0,0.0,0.0,0.0,0.0,0.0,0.0,0.0,0.0,0.0,0.0,0.0,0.0,0.0,0.0,0.0,0.0,0.0,0.0,0.0,0.0,0.0,0.0,0.0,0.0,0.0,0.0,0.0,0.0,0.0,0.0,0.0,0.0,0.0,0.0,0.0,0.0,0.0,0.0,0.0,0.0,0.0,0.0,0.0,0.0,0.0,0.0,0.0,0.0,0.0,0.0,0.0,0.0,0.0,0.0,0.0,0.0,0.0,0.0,0.0,0.0,0.0,0.0,0.0,0.0,0.0,0.0,0.0,0.0,0.0,0.0,0.0,0.0,0.0,0.0,0.0,0.0,0.0,0.0,0.0,0.0,0.0,0.0,0.0,0.0,0.0,0.0,0.0,0.0,0.0,0.0,0.0,0.0,0.0,0.0,0.0,0.0,0.0,0.0,0.0,0.0,0.0,0.0,0.0,0.0,0.0,0.0,0.0,0.0,0.0,0.0,0.0,0.0,0.0,0.0,0.0,0.0,0.0,0.0,0.0,0.0,0.0,0.0,0.0,0.0,0.0,0.0,0.0,0.0,0.0,0.0,0.0,0.0,0.0,0.0,0.0,0.0,0.0,0.0,0.0,0.0,0.0,0.0,0.0,0.0,0.0,0.0,0.0,0.0,0.0,0.0,0.0,0.0,0.0,0.0,0.0,0.0,0.0,0.0,0.0,0.0,0.0,0.0,0.0,0.0,0.0,0.0,0.0,0.0,0.0,0.0,0.0,0.0,0.0,0.0,0.0,0.0,0.0,0.0,0.0,0.0,0.0,0.0,0.0,0.0,0.0,0.0,0.0,0.0,0.0,0.0,0.0,0.0,0.0,0.0,0.0,0.0,0.0,0.0,0.0,0.0,0.0,0.0,0.0,0.0,0.0,0.0,0.0,0.0,0.0,0.0,0.0,0.0,0.0,0.0,0.0,0.0,0.0,0.0,0.0,0.0,0.0,0.0,0.0,0.0,0.0,0.0,0.0,0.0,0.0,0.0,0.0,0.0,0.0,0.0,0.0,0.0,0.0,0.0,0.0,0.0,0.0,0.0,0.0,0.0,0.0,0.0,0.0,0.0,0.0,0.0,0.0,0.0,0.0,0.0,0.0,0.0,0.0,0.0,0.0,0.0,0.0,0.0,0.0,0.0,0.0,0.0,0.0,0.0,0.0,0.0,0.0,0.0,0.0,0.0,0.0,0.0,0.0,0.0,0.0,0.0,0.0,0.0,0.0,0.0,0.0,0.0,0.0,0.0,0.0,0.0,0.0,0.0,0.0,0.0,0.0,0.0,0.0,0.0,0.0,0.0,0.0,0.0,0.0,0.0,0.0,0.0,0.0,0.0,0.0,0.0,0.0,0.0,0.0,0.0,0.0,0.0,0.0,0.0,0.0,0.0,0.0,0.0,0.0,0.0,0.0,0.0,0.0,0.0,0.0,0.0,0.0,0.0,0.0,0.0,0.0,0.0,0.0,0.0,0.0,0.0,0.0,0.0,0.0,0.0,0.0,0.0,0.0,0.0,0.0,0.0,0.0,0.0,0.0,0.0,0.0,0.0,0.0,0.0,0.0,0.0,0.0,0.0,0.0,0.0,0.0,0.0,0.0,0.0,0.0,0.0,0.0,0.0,0.0,0.0,0.0,0.0,0.0,0.0,0.0,0.0,0.0,0.0,0.0,0.0,0.0,0.0,0.0,0.0,0.0,0.0,0.0,0.0,0.0,0.0,0.0,0.0,0.0,0.0,0.0,0.0,0.0,0.0,0.0,0.0,0.0,0.0,0.0,0.0,0.0,0.0,0.0,0.0,0.0,0.0,0.0,0.0,0.0,0.0,0.0,0.0,0.0,0.0,0.0,0.0,0.0,0.0,0.0,0.0,0.0,0.0,0.0,0.0,0.0,0.0,0.0,0.0,0.0,0.0,0.0,0.0,0.0,0.0,0.0,0.0,0.0,0.0,0.0,0.0,0.0,0.0,0.0,0.0,0.0,0.0,0.0,0.0,0.0,0.0,0.0,0.0,0.0,0.0,0.0,0.0,0.0,0.0,0.0,0.0,0.0,0.0,0.0,0.0,0.0,0.0,0.0,0.0,0.0,0.0,0.0,0.0,0.0,0.0,0.0,0.0,0.0,0.0,0.0,0.0,0.0,0.0,0.0,0.0,0.0,0.0,0.0,0.0,0.0,0.0,0.0,0.0,0.0,0.0,0.0,0.0,0.0,0.0,0.0,0.0,0.0,0.0,0.0,0.0,0.0,0.0,0.0,0.0,0.0,0.0,0.0,0.0,0.0,0.0,0.0,0.0,0.0,0.0,0.0,0.0,0.0,0.0,0.0,0.0,0.0,0.0,0.0,0.0,0.0,0.0,0.0,0.0,0.0,0.0,0.0,0.0,0.0,0.0,0.0,0.0,0.0,0.0,0.0,0.0,0.0,0.0,0.0,0.0,0.0,0.0,0.0,0.0,0.0,0.0,0.0,0.0,0.0,0.0,0.0,0.0,0.0,0.0,0.0,0.0,0.0,0.0,0.0,0.0,0.0,0.0,0.0,0.0,0.0,0.0,0.0,0.0,0.0,0.0,0.0,0.0,0.0,0.0,0.0,0.0,0.0,0.0,0.0,0.0,0.0,0.0,0.0,0.0,0.0]}],[{"header":{"parameterUnit":"kt","parameterCategory":2,"dx":1,"dy":1,"la1":29.587661999999998,"la2":31.0,"lo1":-88.76705300000003,"lo2":-86.6583820000003,"nx":115,"ny":88,"refTime":"2022-10-19T06:00:00:Z","depth":0,"parameterNumber":2,"parameterNumberName":"V-component_of_WINDS"},"data":[12.1324,12.1324,12.1324,12.1324,12.1324,12.1324,12.1324,12.1324,12.1324,12.1324,12.1324,12.1324,12.1324,12.1324,12.1324,12.1324,12.1324,12.1324,12.1324,12.0798,11.8168,11.7181,11.6216,11.4595,11.3889,11.3969,11.4309,11.4578,11.4711,11.4711,11.4711,11.4711,11.4778,11.4778,11.4778,11.4976,11.5497,11.6321,11.742,11.865,11.9491,12.0034,12.0685,12.1269,12.179,12.1888,12.2035,12.2083,12.2297,12.2511,12.2797,12.2583,12.2511,12.2489,12.3205,12.3874,12.4828,12.6331,12.8004,12.9127,13.0518,13.172,13.2153,13.2395,13.2612,13.3189,13.3189,13.3189,13.3189,13.3189,13.3189,13.3189,13.3189,13.3189,13.3189,13.3258,13.3305,13.3664,13.3989,13.4259,13.4754,13.5075,13.5341,13.5744,13.6093,13.6261,13.649,13.668,13.6895,13.7271,13.7595,13.7897,13.8261,13.8374,13.8579,13.8558,13.8579,13.8579,13.9106,14.091,14.279,14.482,14.6475,14.7978,14.843,14.8129,14.7527,14.6926,14.655,14.6249,14.6023,14.5798,14.6099,14.6023,14.5497,12.1324,12.1324,12.1324,12.1324,12.1324,12.1324,12.1324,12.1324,12.1324,12.1324,12.1324,12.1324,12.1324,12.1324,12.1324,12.1324,12.1324,12.1324,12.1324,12.0469,11.8168,11.7181,11.5946,11.4448,11.3674,11.3491,11.4038,11.4376,11.4645,11.4711,11.4711,11.4711,11.4711,11.4711,11.4711,11.4711,11.4778,11.5432,11.6447,11.7599,11.812,11.8625,11.9561,12.0104,12.0633,12.1117,12.179,12.232,12.3082,12.3582,12.4224,12.3653,12.3154,12.2654,12.3251,12.4111,12.5116,12.643,12.8272,12.9394,13.0833,13.2106,13.2731,13.2973,13.2973,13.3189,13.3189,13.3189,13.3189,13.3189,13.3189,13.3189,13.3189,13.3189,13.3189,13.3164,13.3164,13.3305,13.3398,13.3326,13.3887,13.4343,13.4721,13.519,13.549,13.5636,13.585,13.6024,13.6261,13.6512,13.682,13.7187,13.7747,13.8238,13.8515,13.8558,13.8579,13.8579,13.888,14.076,14.2865,14.5647,14.7678,14.843,14.7828,14.7302,14.6775,14.5572,14.5723,14.5723,14.5196,14.4745,14.4896,14.4444,14.3918,12.1324,12.1324,12.1324,12.1324,12.1324,12.1324,12.1324,12.1324,12.1324,12.1324,12.1324,12.1324,12.1324,12.1324,12.1324,12.1324,12.1324,12.1324,12.1193,12.0404,11.8562,11.7181,11.5742,11.4103,11.3327,11.3145,11.3764,11.4241,11.4645,11.4711,11.4711,11.4711,11.4711,11.4711,11.4711,11.4711,11.4711,11.4778,11.6074,11.688,11.7239,11.7677,11.8349,11.9574,12.0345,12.1315,12.1974,12.2816,12.3957,12.5216,12.5744,12.508,12.4795,12.3867,12.4416,12.5398,12.5831,12.6024,12.777,12.8943,12.9708,13.0811,13.1651,13.2684,13.2828,13.3189,13.3189,13.3189,13.3189,13.3189,13.3189,13.3189,13.3189,13.3189,13.3189,13.3189,13.3189,13.3189,13.3237,13.3164,13.3445,13.3843,13.4033,13.4427,13.455,13.4713,13.484,13.5036,13.5341,13.5634,13.6024,13.6458,13.7318,13.7872,13.8214,13.8329,13.8537,13.8579,13.8579,14.0685,14.3091,14.6249,14.8129,14.7302,14.67,14.6249,14.5046,14.3542,14.3467,14.3993,14.3843,14.3617,14.3166,14.279,14.1888,12.1324,12.1324,12.1324,12.1324,12.1324,12.1324,12.1324,12.1324,12.1324,12.1324,12.1324,12.1324,12.1324,12.1324,12.1324,12.1324,12.1324,12.1258,12.1061,11.9812,11.8102,11.6721,11.5735,11.3768,11.2988,11.3005,11.3353,11.3835,11.4309,11.4578,11.4711,11.4711,11.4711,11.4711,11.4711,11.4711,11.4711,11.4711,11.5564,11.6146,11.6812,11.7206,11.7924,11.9596,12.0275,12.1359,12.2556,12.3407,12.4995,12.6353,12.6824,12.717,12.7435,12.5936,12.6179,12.7185,12.6927,12.7647,12.8846,12.9758,13.0382,13.1101,13.1557,13.2156,13.2612,13.2973,13.3189,13.3189,13.3189,13.3189,13.3189,13.3189,13.3189,13.3189,13.3189,13.3189,13.3189,13.3189,13.3189,13.3189,13.3189,13.3305,13.3326,13.351,13.3529,13.3754,13.3946,13.429,13.4591,13.4907,13.5299,13.5994,13.6848,13.7402,13.7822,13.8044,13.8418,13.8579,13.916,14.1039,14.3166,14.5347,14.7151,14.6324,14.5422,14.4444,14.3317,14.1963,14.1512,14.1813,14.1888,14.2264,14.1888,14.1286,14.0008,12.1324,12.1324,12.1324,12.1324,12.1324,12.1324,12.1324,12.1324,12.1324,12.1324,12.1324,12.1324,12.1324,12.1324,12.1324,12.1324,12.1324,12.1258,12.0732,11.922,11.7576,11.6195,11.5011,11.3367,11.2715,11.2725,11.3005,11.3491,11.3901,11.4309,11.4711,11.4711,11.4711,11.4711,11.4711,11.4711,11.4711,11.4711,11.5043,11.5712,11.6588,11.7261,11.82,12.0463,12.0984,12.1563,12.2987,12.4134,12.5386,12.646,12.7297,12.7904,12.8169,12.7792,12.8006,12.8393,12.8687,12.9431,13.0369,13.0998,13.177,13.2109,13.2566,13.271,13.2853,13.3117,13.3189,13.3189,13.3189,13.3189,13.3189,13.3189,13.3189,13.3189,13.3189,13.3189,13.3189,13.3189,13.3189,13.3189,13.3189,13.3237,13.3258,13.3258,13.3372,13.3352,13.3464,13.381,13.4076,13.4208,13.4697,13.5488,13.6201,13.6848,13.7204,13.7538,13.8092,13.9041,13.9943,14.1521,14.3144,14.467,14.6076,14.5422,14.4595,14.3317,14.1963,14.1286,14.0685,14.061,14.061,14.091,14.0534,13.9858,13.9031,12.1324,12.1324,12.1324,12.1324,12.1324,12.1324,12.1324,12.1324,12.1324,12.1324,12.1324,12.1324,12.1324,12.1324,12.1324,12.1324,12.1324,12.1193,12.0404,11.8957,11.7576,11.6064,11.4617,11.3367,11.2644,11.2654,11.2935,11.3284,11.3766,11.4309,11.4711,11.4711,11.4711,11.4711,11.4711,11.4711,11.4711,11.4711,11.4979,11.5717,11.6455,11.7126,11.8874,12.0495,12.009,12.1909,12.4107,12.3733,12.5758,12.8202,12.8568,12.9266,13.0094,13.0146,13.0289,13.0126,13.0158,13.0494,13.1475,13.2037,13.2289,13.2416,13.2612,13.2878,13.3022,13.3189,13.3189,13.3189,13.3189,13.3189,13.3189,13.3117,13.3117,13.3045,13.3045,13.3045,13.3045,13.3045,13.3117,13.3045,13.3117,13.3117,13.3189,13.3237,13.3237,13.3237,13.3377,13.3609,13.3792,13.3927,13.4478,13.51,13.5637,13.6235,13.6435,13.6786,13.7429,13.8297,13.9769,14.1535,14.3069,14.4347,14.5076,14.455,14.3648,14.1888,14.0083,13.9782,13.9858,13.9482,13.9331,13.9632,13.9482,13.888,13.8805,12.1324,12.1324,12.1324,12.1324,12.1324,12.1324,12.1324,12.1324,12.1324,12.1324,12.1324,12.1324,12.1324,12.1324,12.1324,12.1324,12.1324,12.1061,12.0141,11.876,11.7247,11.5735,11.4288,11.3039,11.271,11.2654,11.2795,11.3145,11.3698,11.4039,11.4377,11.4645,11.4711,11.4711,11.4711,11.4711,11.4711,11.4845,11.5382,11.6454,11.7393,11.8398,12.0077,12.1422,12.1357,12.2176,12.4151,12.4279,12.5326,12.8148,12.9008,12.9894,13.1079,13.1416,13.1573,13.143,13.086,13.0289,13.134,13.1781,13.2088,13.2317,13.2537,13.2782,13.3022,13.3189,13.3189,13.3189,13.3189,13.3189,13.3189,13.254,13.2081,13.172,13.1287,13.1214,13.1142,13.1359,13.2081,13.2226,13.3045,13.3045,13.3117,13.3189,13.3189,13.3189,13.3331,13.3563,13.3746,13.3882,13.4338,13.4729,13.5222,13.5856,13.6029,13.6201,13.6848,13.77,13.9888,14.1769,14.2815,14.3482,14.4031,14.3609,14.2266,14.0536,13.8816,13.8805,13.9106,13.873,13.8655,13.8579,13.8579,13.8655,13.8579,12.1324,12.1324,12.1324,12.1324,12.1324,12.1324,12.1324,12.1324,12.1324,12.1324,12.1324,12.1324,12.1324,12.1324,12.1324,12.1324,12.1324,12.1324,11.9549,11.7708,11.6984,11.4946,11.3565,11.2644,11.2513,11.2513,11.2654,11.3005,11.3696,11.3901,11.4242,11.4578,11.4645,11.4711,11.4711,11.4711,11.4845,11.5382,11.6052,11.7393,11.8935,12.0209,12.1415,12.2421,12.289,12.3305,12.3796,12.4557,12.537,12.655,12.8126,12.9149,13.0133,13.0918,13.1344,13.1573,13.1502,13.1288,13.1625,13.1625,13.1812,13.2217,13.2367,13.2661,13.2974,13.3117,13.3189,13.3189,13.3189,13.3189,13.29,13.2081,13.1214,13.042,12.977,12.977,12.9698,13.0131,13.0926,13.1648,13.2467,13.2973,13.3117,13.3189,13.3189,13.3189,13.3284,13.3517,13.3628,13.3837,13.4076,13.4478,13.486,13.5413,13.5711,13.5853,13.6426,13.7176,13.9418,14.1051,14.1968,14.2692,14.2519,14.1942,14.0741,13.9895,13.8786,13.8449,13.8537,13.8579,13.8579,13.8579,13.8579,13.8579,13.8306,12.1324,12.1324,12.1324,12.1324,12.1324,12.1324,12.1324,12.1324,12.1324,12.1324,12.1324,12.1324,12.1324,12.1324,12.1324,12.1324,12.1324,12.1258,11.968,11.7116,11.6787,11.5011,11.3367,11.2513,11.2513,11.2513,11.2654,11.2935,11.3696,11.3696,11.4106,11.4511,11.4711,11.4711,11.4778,11.4979,11.518,11.6186,11.6991,11.8398,12.0075,12.1281,12.222,12.3226,12.3628,12.3628,12.3771,12.4129,12.4691,12.5574,12.6619,12.7627,12.9265,13.0189,13.063,13.1344,13.1573,13.1573,13.1573,13.1573,13.1781,13.2138,13.2339,13.2587,13.283,13.307,13.3117,13.3189,13.3189,13.2612,13.1818,13.1457,13.0492,12.9337,12.9048,12.9698,12.977,13.0203,13.0853,13.1359,13.2034,13.2756,13.3189,13.3117,13.3117,13.3189,13.3237,13.3352,13.3537,13.3764,13.4032,13.4222,13.4573,13.49,13.5105,13.556,13.6286,13.6878,13.828,13.9785,14.0669,14.1255,14.0697,14.0108,13.9269,13.8584,13.8147,13.8261,13.8374,13.8515,13.8333,13.8354,13.8579,13.8284,13.7897,12.1324,12.1324,12.1324,12.1324,12.1324,12.1324,12.1324,12.1324,12.1324,12.1324,12.1324,12.1324,12.1324,12.1324,12.1324,12.1324,12.1324,12.1193,11.968,11.7116,11.6787,11.4946,11.3302,11.2513,11.2513,11.2583,11.2725,11.3075,11.3696,11.3901,11.4241,11.4511,11.4711,11.4711,11.4778,11.5449,11.5851,11.6924,11.8197,11.9337,12.1214,12.2019,12.2689,12.3494,12.3628,12.3628,12.37,12.37,12.4129,12.4691,12.5574,12.649,12.7627,12.9611,13.0077,13.0576,13.1573,13.1573,13.1573,13.1573,13.1729,13.1986,13.2217,13.2465,13.2733,13.2974,13.3117,13.3117,13.2612,13.1864,13.0565,13.0013,12.9002,12.7965,12.7387,12.8037,12.9192,12.9698,13.0131,13.0492,13.1937,13.2756,13.2731,13.2442,13.29,13.3189,13.3189,13.3305,13.3491,13.3719,13.3944,13.4091,13.4308,13.4393,13.4812,13.5844,13.6625,13.743,13.8396,13.9069,13.9196,13.9618,13.9184,13.8471,13.7744,13.7147,13.7538,13.7922,13.8214,13.8073,13.7559,13.7376,13.7608,13.7498,13.7232,12.1324,12.1324,12.1324,12.1324,12.1324,12.1324,12.1324,12.1324,12.1324,12.1324,12.1324,12.1324,12.1324,12.1324,12.1324,12.1324,12.1324,12.1193,11.968,11.7444,11.6721,11.5077,11.3433,11.2513,11.2513,11.2654,11.2795,11.3145,11.3696,11.3901,11.4309,11.4578,11.4711,11.4711,11.4845,11.6186,11.6991,11.7527,12.0008,12.0946,12.1952,12.2823,12.3226,12.3628,12.3628,12.3628,12.3628,12.3628,12.3771,12.4129,12.4829,12.5507,12.63,12.8126,12.9265,12.9781,13.0847,13.1397,13.1573,13.145,13.1554,13.1812,13.2239,13.2488,13.2733,13.2974,13.3189,13.3045,13.1962,13.107,12.9698,12.8208,12.6909,12.5754,12.4932,12.5221,12.6954,12.7965,12.8326,12.8641,13.0853,13.2731,13.2153,13.2009,13.2684,13.3189,13.3189,13.3331,13.3517,13.3701,13.3854,13.4004,13.4222,13.4569,13.5427,13.6272,13.7037,13.8018,13.8586,13.8648,13.8673,13.8262,13.7588,13.6805,13.6467,13.65,13.7029,13.7538,13.7564,13.7543,13.6896,13.624,13.6574,13.658,13.6284,12.1324,12.1324,12.1324,12.1324,12.1324,12.1324,12.1324,12.1324,12.1324,12.1324,12.1324,12.1324,12.1324,12.1324,12.1324,12.1324,12.1324,12.1061,11.9351,11.7839,11.6524,11.5011,11.3433,11.2513,11.2513,11.2583,11.2725,11.3075,11.3696,11.3833,11.4174,11.4578,11.4711,11.4711,11.5046,11.6253,11.7527,11.8667,12.0544,12.1751,12.289,12.3427,12.3628,12.3628,12.3628,12.3628,12.3628,12.3628,12.3628,12.3842,12.4129,12.4759,12.5507,12.6559,12.782,12.902,13.0133,13.0685,13.1026,13.1026,13.0685,13.1502,13.2037,13.2389,13.2587,13.2878,13.2973,13.29,13.1648,13.0348,12.8976,12.7198,12.5682,12.4743,12.3776,12.4282,12.5871,12.6909,12.7053,12.7342,12.9842,13.2153,13.172,13.1576,13.2442,13.3189,13.3189,13.3284,13.3424,13.3537,13.3764,13.3988,13.4135,13.4964,13.5937,13.6534,13.7214,13.812,13.832,13.8254,13.7701,13.6741,13.6039,13.5783,13.5783,13.5891,13.6201,13.6554,13.6742,13.679,13.5822,13.4725,13.4885,13.4542,13.4507,12.1324,12.1324,12.1324,12.1324,12.1324,12.1324,12.1324,12.1324,12.1324,12.1324,12.1324,12.1324,12.1324,12.1324,12.1324,12.1324,12.1324,12.1324,11.9351,11.7708,11.6458,11.5077,11.3433,11.2513,11.2583,11.2583,11.2935,11.335,11.3764,11.4039,11.4377,11.4511,11.4645,11.4711,11.518,11.6253,11.813,11.9806,12.155,12.2622,12.3561,12.3628,12.3628,12.3628,12.3628,12.3628,12.3628,12.3628,12.3628,12.3628,12.37,12.4129,12.4691,12.5373,12.6426,12.7627,12.8547,12.9078,12.954,12.9311,12.9426,13.0559,13.1761,13.2367,13.2367,13.2878,13.2853,13.189,13.0709,12.9048,12.7676,12.6087,12.4887,12.4065,12.3993,12.4571,12.5582,12.6403,12.6837,12.6981,12.9048,13.1214,13.1287,13.1359,13.237,13.3189,13.3189,13.3237,13.3258,13.3398,13.3674,13.3899,13.4048,13.4775,13.6302,13.6941,13.7433,13.7756,13.8074,13.7747,13.7233,13.6137,13.5295,13.5094,13.494,13.541,13.5674,13.5746,13.5516,13.5017,13.4228,13.3298,13.2714,13.2211,13.2759,12.1324,12.1324,12.1324,12.1324,12.1324,12.1324,12.1324,12.1324,12.1324,12.1324,12.1324,12.1324,12.1324,12.1324,12.1324,12.1324,12.1324,12.1324,11.9417,11.7708,11.659,11.5077,11.3367,11.2583,11.2583,11.2725,11.3075,11.3489,11.3901,11.4242,11.4511,11.4711,11.4711,11.4711,11.518,11.6253,11.8264,12.0343,12.2421,12.3427,12.3561,12.3628,12.3628,12.3628,12.3628,12.3628,12.3628,12.3628,12.3628,12.3628,12.3628,12.3846,12.4059,12.4691,12.5305,12.6231,12.7002,12.7254,12.7441,12.7379,12.8056,12.9426,13.0776,13.1914,13.2317,13.2806,13.2323,13.1142,12.9337,12.7748,12.6304,12.4715,12.4137,12.3632,12.3849,12.4354,12.4932,12.5826,12.6548,12.6764,12.8037,12.9987,13.0565,13.1745,13.2828,13.3117,13.3189,13.3189,13.3211,13.3258,13.3609,13.3837,13.4032,13.5125,13.6697,13.7264,13.7525,13.7883,13.7788,13.7225,13.6629,13.5742,13.4811,13.4604,13.4687,13.498,13.526,13.5148,13.4672,13.3648,13.2469,13.1397,13.0698,13.0225,13.0775,12.1324,12.1324,12.1324,12.1324,12.1324,12.1324,12.1324,12.1324,12.1324,12.1324,12.1324,12.1324,12.1324,12.1324,12.1324,12.1324,12.1324,12.1324,11.9417,11.7708,11.6458,11.5143,11.3302,11.2583,11.2654,11.3005,11.3214,11.3627,11.4106,11.4444,11.4711,11.4711,11.4711,11.4778,11.518,11.6454,11.8063,12.0209,12.2421,12.3494,12.3628,12.3628,12.3628,12.3628,12.3628,12.3628,12.3628,12.3628,12.3628,12.3628,12.3628,12.3628,12.3628,12.4129,12.4553,12.5373,12.5707,12.5705,12.5373,12.564,12.6169,12.7254,12.8656,13.0883,13.1822,13.1413,13.0836,13.0663,12.8398,12.6809,12.5798,12.4499,12.3849,12.3632,12.3632,12.3849,12.4282,12.5437,12.6187,12.6954,12.8181,12.958,13.1096,13.2323,13.29,13.3117,13.3189,13.3189,13.3237,13.3237,13.3471,13.3628,13.4363,13.5822,13.6989,13.7602,13.7762,13.7818,13.7379,13.6753,13.5657,13.4812,13.4478,13.4478,13.452,13.4697,13.49,13.455,13.4093,13.255,13.1139,12.9857,12.8683,12.8271,12.8582,12.1324,12.1324,12.1324,12.1324,12.1324,12.1324,12.1324,12.1324,12.1324,12.1324,12.1324,12.1324,12.1324,12.1324,12.1324,12.1324,12.1324,12.1324,11.968,11.7313,11.659,11.5274,11.3176,11.2583,11.2583,11.2865,11.3214,11.3764,11.4309,11.4578,11.4711,11.4711,11.4711,11.4912,11.5985,11.7192,11.8667,12.0343,12.222,12.3561,12.3628,12.3628,12.3628,12.3628,12.3628,12.3628,12.3628,12.3628,12.3628,12.3628,12.3628,12.3628,12.3628,12.37,12.3846,12.4828,12.476,12.4412,12.3846,12.4343,12.5102,12.5972,12.7503,12.954,13.0759,13.0755,13.0428,12.9869,12.7387,12.5754,12.4887,12.4137,12.3776,12.3632,12.3632,12.3776,12.4065,12.5148,12.6376,12.7459,12.8543,13.042,13.2081,13.2756,13.3045,13.3189,13.3189,13.3189,13.3189,13.3189,13.3258,13.3563,13.4834,13.6078,13.6812,13.747,13.7339,13.7178,13.6667,13.5761,13.4697,13.4478,13.4478,13.4478,13.4478,13.4478,13.4447,13.3863,13.2841,13.1382,12.9922,12.8296,12.6803,12.6497,12.7081,12.1324,12.1324,12.1324,12.1324,12.1324,12.1324,12.1324,12.1324,12.1324,12.1324,12.1324,12.1324,12.1324,12.1324,12.1324,12.1324,12.1324,12.1127,11.9756,11.7329,11.6795,11.5347,11.312,11.2654,11.2795,11.3211,11.3558,11.4039,11.4444,11.4645,11.4711,11.4711,11.4845,11.5382,11.6655,11.8063,11.994,12.1348,12.2823,12.3628,12.3628,12.3628,12.3628,12.3628,12.3628,12.3628,12.3628,12.3628,12.3628,12.3628,12.3628,12.3628,12.3628,12.3628,12.3628,12.3628,12.3628,12.3628,12.3628,12.3775,12.4203,12.517,12.6811,12.8108,12.94,12.9829,12.9685,12.8379,12.6548,12.5104,12.4093,12.366,12.3632,12.3632,12.3704,12.3704,12.421,12.5609,12.6665,12.782,13.0059,13.172,13.2659,13.29,13.3189,13.3189,13.3189,13.3189,13.3189,13.3189,13.3284,13.3713,13.4695,13.546,13.6123,13.6565,13.6596,13.6362,13.5603,13.477,13.4478,13.4478,13.4478,13.4478,13.4478,13.4478,13.4186,13.3279,13.1747,13.036,12.9119,12.7294,12.5323,12.5323,12.5728,12.1324,12.1324,12.1324,12.1324,12.1324,12.1324,12.1324,12.1324,12.1324,12.1324,12.1324,12.1324,12.1324,12.1258,12.1258,12.1401,12.1324,12.1269,11.9708,11.7681,11.6875,11.5636,11.3872,11.3281,11.3281,11.3627,11.4106,11.4241,11.4444,11.4578,11.4645,11.4711,11.4711,11.5516,11.7058,11.8533,11.994,12.1415,12.289,12.3561,12.3628,12.3628,12.3628,12.3628,12.3628,12.3628,12.3628,12.3628,12.3628,12.3628,12.3628,12.3628,12.3628,12.3628,12.3628,12.3628,12.3628,12.3628,12.3628,12.3628,12.3704,12.4273,12.6231,12.7441,12.8424,12.9231,12.9255,12.6746,12.5176,12.4093,12.3732,12.3704,12.3704,12.3704,12.3776,12.4065,12.5032,12.6187,12.7387,12.9409,13.1457,13.2612,13.29,13.3189,13.3189,13.3189,13.3189,13.3189,13.3189,13.3189,13.3309,13.3811,13.3977,13.4597,13.4853,13.5195,13.6173,13.5765,13.4831,13.4478,13.4478,13.4478,13.4478,13.4478,13.4478,13.4259,13.3894,13.3279,13.1309,12.963,12.8316,12.7002,12.5615,12.5178,12.5251,12.1324,12.1324,12.1324,12.1324,12.1324,12.1324,12.1324,12.1324,12.1324,12.1324,12.1324,12.1324,12.1324,12.1335,12.1411,12.1714,12.1525,12.1204,11.9559,11.7846,11.6716,11.5336,11.3892,11.3558,11.3696,11.3969,11.4376,11.4511,11.4511,11.4645,11.4645,11.4711,11.4711,11.5851,11.7728,11.8868,12.0343,12.222,12.3226,12.3628,12.3628,12.3628,12.3628,12.3628,12.3628,12.3628,12.3628,12.3628,12.3628,12.3628,12.3628,12.3628,12.3628,12.3628,12.3628,12.3628,12.3628,12.3628,12.3628,12.3628,12.3628,12.3917,12.6035,12.7309,12.8079,12.9278,12.9804,12.7453,12.5456,12.4454,12.366,12.4382,12.4282,12.3993,12.4426,12.5104,12.6042,12.7414,12.9363,13.1529,13.2467,13.29,13.3189,13.3189,13.3189,13.3189,13.3189,13.3189,13.3189,13.3189,13.3189,13.3139,13.268,13.2892,13.2831,13.4435,13.6185,13.5125,13.4308,13.4436,13.4478,13.4478,13.4478,13.4478,13.4259,13.404,13.3498,13.2331,13.0579,12.8827,12.744,12.6199,12.5396,12.4959,12.5032,12.1324,12.1324,12.1324,12.1324,12.1324,12.1324,12.1335,12.1335,12.1335,12.1401,12.1401,12.1335,12.1324,12.1411,12.1714,12.1816,12.1237,12.0257,11.8936,11.7547,11.6481,11.5359,11.4167,11.3901,11.3901,11.4038,11.4309,11.4645,11.4645,11.4711,11.4711,11.4778,11.5046,11.6454,11.8398,11.9605,12.108,12.3092,12.3561,12.3628,12.3628,12.3628,12.3628,12.3628,12.3628,12.3628,12.3628,12.3628,12.3628,12.3628,12.3628,12.3628,12.3628,12.3628,12.3628,12.3628,12.3628,12.3628,12.3628,12.3628,12.3628,12.42,12.6035,12.7372,12.8158,12.9812,13.0038,12.8272,12.6779,12.5248,12.3877,12.4887,12.5004,12.4499,12.4743,12.597,12.6981,12.893,13.1601,13.254,13.2828,13.3189,13.3189,13.3189,13.3189,13.3189,13.3189,13.3189,13.3189,13.3189,13.29,13.2251,13.1529,13.1136,13.0912,13.3384,13.5088,13.3887,13.4178,13.4308,13.4393,13.4436,13.4478,13.4478,13.4332,13.379,13.2549,13.109,12.963,12.8243,12.6637,12.5105,12.4959,12.4959,12.4959,12.1324,12.1324,12.1324,12.1324,12.1324,12.1401,12.1487,12.1639,12.1411,12.1487,12.1704,12.1411,12.1401,12.1411,12.1714,12.1072,12.0096,11.8925,11.8026,11.6902,11.6097,11.5237,11.4643,11.4309,11.4309,11.4511,11.4645,11.4645,11.4711,11.4711,11.4979,11.5046,11.5918,11.7661,11.9136,12.041,12.1885,12.336,12.3628,12.3628,12.3628,12.3628,12.3628,12.3628,12.3628,12.3628,12.3628,12.3628,12.3628,12.3628,12.3628,12.3628,12.3628,12.3628,12.3628,12.3628,12.3628,12.3628,12.3628,12.3628,12.3628,12.3704,12.6035,12.7309,12.7959,12.9333,13.0082,12.9015,12.7788,12.5798,12.3993,12.5248,12.5176,12.4499,12.5104,12.6521,12.8181,13.0807,13.2395,13.3189,13.3189,13.3189,13.3189,13.3189,13.3189,13.3189,13.3189,13.3189,13.3189,13.3045,13.2298,13.1576,13.0492,12.9862,12.9763,13.1536,13.2931,13.2866,13.396,13.4091,13.4222,13.4308,13.4436,13.4436,13.404,13.3352,13.2258,13.036,12.8827,12.7586,12.6272,12.5251,12.4959,12.4959,12.4959,12.1411,12.1563,12.1563,12.1714,12.194,12.194,12.194,12.179,12.1704,12.1563,12.1563,12.1639,12.1563,12.1573,12.1436,12.1067,12.0144,11.9171,11.7917,11.6648,11.5712,11.5112,11.4645,11.4645,11.4578,11.4645,11.4711,11.4711,11.4979,11.5449,11.5851,11.6052,11.7393,11.8868,12.041,12.108,12.2287,12.336,12.3628,12.3628,12.3628,12.3628,12.3628,12.3628,12.3628,12.3628,12.3628,12.3628,12.3628,12.3628,12.3628,12.3628,12.3628,12.3628,12.3628,12.3628,12.3628,12.3628,12.3628,12.3628,12.3628,12.37,12.6035,12.7128,12.8019,12.985,13.0733,13.0022,12.9084,12.7919,12.6521,12.7053,12.6403,12.5609,12.6376,12.7604,12.8759,13.124,13.3189,13.3189,13.3189,13.3189,13.3189,13.3189,13.3189,13.3189,13.3189,13.3045,13.3045,13.237,13.1576,13.042,12.9265,12.8615,12.8543,12.9211,13.0649,13.1989,13.3274,13.396,13.4048,13.4178,13.4278,13.3925,13.3457,13.2768,13.1236,12.9557,12.7878,12.6783,12.5907,12.5323,12.4959,12.4959,12.4959,12.1563,12.1931,12.194,12.2164,12.2462,12.2462,12.2313,12.209,12.2006,12.179,12.1648,12.1393,12.1336,12.1419,12.0615,12.0247,11.9509,11.8858,11.7929,11.6521,11.518,11.4778,11.4645,11.4645,11.4711,11.4711,11.4711,11.4912,11.5449,11.6387,11.7125,11.7594,11.8868,12.0276,12.1348,12.1751,12.2555,12.336,12.3628,12.3628,12.3628,12.3628,12.3628,12.3628,12.3628,12.3628,12.3628,12.3628,12.3628,12.3628,12.3628,12.3628,12.3628,12.3628,12.3628,12.3628,12.3628,12.3628,12.3628,12.3628,12.3494,12.3376,12.5219,12.6872,12.6969,12.9603,13.0948,13.0573,13.0212,12.9796,12.9409,12.9192,12.8181,12.727,12.7965,12.9048,12.9409,13.1214,13.254,13.2973,13.3189,13.3189,13.3189,13.3189,13.3189,13.3189,13.3045,13.2973,13.2323,13.1648,13.0348,12.8858,12.7775,12.6954,12.6954,12.7288,12.8968,13.0505,13.2559,13.3871,13.3871,13.4004,13.3742,13.3288,13.2831,13.1236,12.9557,12.8024,12.7221,12.6053,12.5032,12.4959,12.4959,12.4959,12.4959,12.179,12.1865,12.2239,12.2462,12.2536,12.2462,12.2683,12.2683,12.2098,12.2032,12.2063,12.0633,11.9956,12.0264,11.9229,11.8175,11.7041,11.7255,11.6253,11.5449,11.4845,11.4711,11.4711,11.4711,11.4711,11.4711,11.4711,11.5382,11.6387,11.6856,11.7728,11.9069,12.0477,12.1348,12.1818,12.2756,12.336,12.3628,12.3628,12.3628,12.3628,12.3628,12.3628,12.3628,12.3628,12.3628,12.3628,12.3628,12.3561,12.3628,12.3628,12.3561,12.3628,12.3628,12.3628,12.3628,12.3628,12.3561,12.3561,12.336,12.3024,12.2309,12.3983,12.4999,12.5264,12.8166,13.0525,13.0382,12.9369,13.0302,13.1359,13.1287,12.9915,12.8759,12.9481,13.042,13.0709,13.0853,13.1601,13.2828,13.3164,13.3117,13.3189,13.3189,13.3189,13.3189,13.2803,13.2323,13.1576,13.042,12.8904,12.7486,12.6476,12.5465,12.5437,12.5582,12.7504,12.9428,13.1772,13.3094,13.3139,13.3374,13.3087,13.2607,13.1861,13.0414,12.8527,12.7367,12.6564,12.5688,12.4953,12.4919,12.4919,12.4841,12.4648,12.2313,12.2536,12.2683,12.2903,12.3122,12.3128,12.3122,12.277,12.1598,12.1053,12.0722,11.9316,11.8223,11.7584,11.7627,11.6772,11.5477,11.5577,11.5315,11.4645,11.4578,11.4578,11.4645,11.4711,11.4711,11.4711,11.4711,11.5583,11.6924,11.7929,11.9069,12.0544,12.1952,12.2689,12.2689,12.336,12.3628,12.3628,12.3628,12.3628,12.3628,12.3628,12.3628,12.3628,12.3628,12.3628,12.3628,12.3628,12.3159,12.2555,12.2421,12.2756,12.3494,12.3628,12.3628,12.3628,12.3628,12.3159,12.2622,12.2354,12.1684,12.0964,12.2598,12.3602,12.4331,12.7542,13.0262,13.0549,13.1027,13.1312,13.1864,13.2153,13.1431,13.0059,12.9626,12.9409,12.9481,12.9481,13.0203,13.1287,13.1864,13.2081,13.3092,13.3117,13.3189,13.2973,13.2442,13.1576,13.0565,12.8904,12.7387,12.6403,12.5465,12.4787,12.4499,12.5221,12.6809,12.8543,13.0531,13.1616,13.2096,13.2813,13.2459,13.1954,13.1036,12.9852,12.8081,12.6558,12.5901,12.5424,12.502,12.4761,12.4641,12.456,12.4324,12.2757,12.2903,12.2977,12.2977,12.2837,12.269,12.2056,12.1146,11.9417,11.8449,11.7953,11.6779,11.5531,11.4746,11.5042,11.4524,11.3625,11.382,11.404,11.404,11.3768,11.3631,11.3972,11.37,11.3563,11.3972,11.3971,11.5313,11.7594,11.86,12.0075,12.2019,12.3024,12.3561,12.3628,12.3561,12.3628,12.3628,12.3628,12.3628,12.3628,12.3628,12.3628,12.3561,12.3226,12.3024,12.3024,12.2689,12.1885,12.0946,12.0879,12.155,12.2756,12.2488,12.2421,12.2689,12.2622,12.1885,12.108,12.0879,12.0211,11.9212,12.0969,12.2401,12.2577,12.6689,12.9181,13.014,13.1002,13.1503,13.107,13.0926,13.0807,13.0131,12.9265,12.8615,12.8543,12.8181,12.847,12.9987,13.0637,13.1359,13.2226,13.2803,13.302,13.2395,13.1576,13.0565,12.9002,12.7414,12.6304,12.5365,12.4715,12.4065,12.3921,12.486,12.6015,12.7748,12.8831,12.9987,13.0946,13.1761,13.1654,13.0964,12.9615,12.8156,12.668,12.5523,12.5304,12.4827,12.4124,12.3152,12.336,12.3006,12.2577,12.283,12.2536,12.283,12.2098,12.0766,12.0161,11.8769,11.6869,11.5528,11.4854,11.4247,11.2805,11.1853,11.1916,11.1476,11.0968,11.0551,11.1811,11.2452,11.1954,11.145,11.1377,11.2239,11.1377,11.1522,11.231,11.2452,11.4608,11.7845,11.8454,12.0611,12.2681,12.302,12.3494,12.336,12.3494,12.3293,12.3159,12.3293,12.3293,12.3293,12.3427,12.336,12.3293,12.222,12.1617,12.1348,12.0142,11.9337,11.927,11.927,12.0008,12.1013,12.0209,12.0343,12.1482,12.0209,11.9672,11.9404,11.9337,11.8804,11.7866,11.9022,11.97,12.0846,12.4441,12.748,12.8431,12.893,12.9481,12.9842,12.8831,12.7703,12.828,12.8037,12.8037,12.8254,12.6954,12.7026,12.8398,12.9842,13.0807,13.0637,13.1962,13.1864,13.1096,13.0565,12.9048,12.7414,12.6331,12.5293,12.4643,12.4065,12.3632,12.3632,12.4499,12.5032,12.6403,12.717,12.8398,12.9527,13.0322,13.0558,12.922,12.7831,12.6305,12.5019,12.4074,12.3606,12.3048,12.2293,12.1607,12.0874,12.012,11.9689,12.261,12.2321,12.1431,12.0154,11.8688,11.7306,11.5832,11.4247,11.2875,11.2238,11.1992,11.0635,10.9673,10.922,10.9776,10.9444,10.8691,11.0134,11.0357,10.9392,10.9532,11.0273,11.0644,11.0273,11.0422,11.0865,11.0874,11.2273,11.4697,11.5834,11.7726,12.027,12.079,12.1211,12.2153,12.1348,12.0812,12.0812,12.0879,12.0812,12.0812,12.0812,12.0812,12.0745,12.0343,12.0008,11.9806,11.7661,11.632,11.6521,11.7326,11.8466,11.9806,11.9538,11.9404,11.9806,11.9404,11.8734,11.7929,11.7795,11.7327,11.678,11.8063,11.9295,12.0418,12.3626,12.6094,12.7008,12.7775,12.8326,12.7919,12.7342,12.6882,12.5726,12.5537,12.5437,12.5437,12.486,12.5293,12.6448,12.7414,12.7703,12.8109,12.9074,12.9481,12.8181,12.782,12.6954,12.6331,12.5104,12.4454,12.3921,12.3632,12.3632,12.3632,12.3921,12.431,12.496,12.5582,12.6521,12.7604,12.8326,12.8543,12.716,12.6353,12.4902,12.3941,12.2925,12.2293,12.0666,11.9877,11.9644,11.9654,11.8493,11.7439,12.1507,12.1137,11.9002,11.7276,11.5736,11.401,11.2177,11.0628,10.9486,10.894,10.884,10.8038,10.7326,10.6926,10.7881,10.7897,10.6944,10.7897,10.8147,10.7755,10.821,10.8677,10.8998,10.8754,10.8522,10.8599,10.8922,11.0161,11.2144,11.3379,11.5008,11.6989,11.7549,11.8189,11.8978,11.8262,11.8017,11.8301,11.8371,11.8719,11.9136,11.9203,11.9203,11.9136,11.8734,11.8264,11.7728,11.5784,11.4778,11.4845,11.5717,11.6991,11.8063,11.8063,11.7996,11.8331,11.8063,11.7259,11.6387,11.6253,11.6052,11.5967,11.7064,11.8409,11.9616,12.2462,12.4295,12.4996,12.588,12.6502,12.5756,12.6208,12.5299,12.3402,12.3455,12.3849,12.3921,12.3776,12.3993,12.4499,12.5004,12.5176,12.5465,12.6015,12.6737,12.6187,12.5682,12.5321,12.5032,12.4238,12.366,12.3632,12.3632,12.3632,12.3632,12.3849,12.4021,12.4382,12.4137,12.4282,12.5076,12.5726,12.5726,12.512,12.4558,12.3747,12.2892,12.227,12.184,12.0759,11.8963,11.8373,11.8383,11.7534,11.624,11.9457,11.8643,11.5827,11.3478,11.1811,10.9986,10.7809,10.6227,10.5114,10.5056,10.5307,10.4412,10.4856,10.5251,10.5604,10.5417,10.5417,10.5604,10.6279,10.7041,10.6116,10.6279,10.736,10.6279,10.5686,10.5769,10.6864,10.9079,11.1468,11.1839,11.2701,11.4067,11.4375,11.4617,11.448,11.4605,11.5126,11.6106,11.6334,11.7256,11.8928,11.8663,11.8596,11.8734,11.7524,11.6252,11.4979,11.4778,11.4711,11.4711,11.4845,11.5516,11.6588,11.5851,11.5583,11.6588,11.5717,11.4912,11.4845,11.4912,11.5311,11.5697,11.5954,11.7133,11.8698,12.0371,12.1757,12.2556,12.3051,12.3331,12.3911,12.3202,12.2274,12.2014,12.3069,12.3588,12.3632,12.3632,12.3126,12.2072,12.2577,12.3516,12.3516,12.3776,12.421,12.4715,12.4499,12.3993,12.3993,12.3849,12.3632,12.3632,12.3632,12.3632,12.3632,12.3632,12.3704,12.3487,12.2693,12.2115,12.291,12.2838,12.2838,12.2765,12.2202,12.174,12.0816,11.924,11.9251,11.8719,11.8707,11.7461,11.6291,11.4934,11.4119,11.6518,11.5107,11.2116,10.9957,10.8472,10.6661,10.4939,10.3593,10.362,10.3726,10.4049,10.4243,10.4581,10.5084,10.5168,10.5168,10.5168,10.5168,10.5438,10.5789,10.5417,10.5438,10.5707,10.5356,10.5168,10.5334,10.5769,10.6384,10.7471,10.8528,10.9777,11.1221,11.1327,11.1851,11.2572,11.1927,11.1628,11.2079,11.2228,11.3031,11.4397,11.4472,11.5027,11.5714,11.4697,11.4097,11.4645,11.4711,11.4711,11.4711,11.4711,11.4912,11.5382,11.4979,11.4979,11.5382,11.4979,11.4711,11.4711,11.491,11.5306,11.5829,11.6702,11.7548,11.8501,11.9773,12.059,12.0914,12.1075,12.1198,12.1425,12.1175,12.1127,12.1869,12.2906,12.3588,12.356,12.265,12.1855,12.1278,12.0845,11.9906,11.9299,12.0816,12.161,12.1177,12.2838,12.356,12.3632,12.3632,12.3632,12.3632,12.3632,12.3632,12.3415,12.3126,12.3054,12.226,12.1393,12.0816,12.0816,12.0238,12.0021,11.9949,11.9604,11.9244,11.8057,11.6161,11.5053,11.4246,11.4583,11.5114,11.3626,11.2248,11.1576,11.3321,11.1716,10.8681,10.6922,10.5984,10.4402,10.3215,10.2437,10.2845,10.3218,10.3757,10.4158,10.4581,10.5106,10.4676,10.4492,10.4492,10.4983,10.5168,10.5168,10.5168,10.5168,10.5168,10.5168,10.5168,10.5168,10.5168,10.5168,10.5334,10.6116,10.7202,10.8089,10.826,10.8732,10.9302,10.8732,10.8599,10.8998,10.9139,10.9909,11.1442,11.1522,11.1954,11.2873,11.2522,11.2803,11.3836,11.4444,11.4711,11.4711,11.4711,11.4711,11.4711,11.4711,11.4711,11.4711,11.4711,11.4711,11.4711,11.5109,11.5437,11.5893,11.6826,11.7488,11.7906,11.8548,11.906,11.9004,11.906,11.906,11.9116,11.9451,12.0158,12.1107,12.1775,12.2179,12.2302,12.1089,12.0036,12.0037,11.8668,11.7343,11.7038,11.7669,11.8721,11.901,12.0093,12.1393,12.226,12.2765,12.2982,12.3415,12.3632,12.3487,12.3054,12.2433,12.1711,12.07,11.9791,11.8883,11.8246,11.7741,11.6782,11.6596,11.7184,11.6803,11.6214,11.4503,11.4745,11.3658,11.2355,11.2405,11.0924,11.0294,10.9483,11.0056,10.8507,10.569,10.444,10.4112,10.2916,10.2317,10.2018,10.2138,10.2718,10.3394,10.3539,10.4023,10.4738,10.357,10.314,10.3325,10.4246,10.4799,10.4983,10.4983,10.5106,10.5168,10.5106,10.5045,10.4922,10.4922,10.4922,10.4983,10.5189,10.5168,10.5251,10.5417,10.5334,10.5562,10.5583,10.5953,10.728,10.7439,10.8225,10.9672,10.9823,10.9747,11.0123,11.1239,11.2026,11.2381,11.3768,11.4578,11.4578,11.4645,11.4711,11.4711,11.4711,11.4711,11.4711,11.4711,11.4711,11.4711,11.5109,11.5437,11.5893,11.6205,11.652,11.6956,11.714,11.714,11.6894,11.714,11.701,11.6996,11.7737,11.8824,11.9648,11.9546,11.9868,12.08,11.8647,11.7905,11.7947,11.6418,11.521,11.586,11.4915,11.5902,11.7428,11.7356,11.7703,12.028,12.1248,12.1941,12.2951,12.3328,12.2938,12.122,11.9887,11.9013,11.8134,11.7124,11.6292,11.574,11.5049,11.401,11.3404,11.4182,11.4319,11.3765,11.3518,11.3527,11.2683,11.1171,11.0151,10.9083,10.848,10.7488,10.6806,10.5662,10.4709,10.3334,10.1599,10.118,10.0522,9.9685,9.9625,10.0072,10.0824,10.0847,10.1342,10.2077,10.185,10.1666,10.1728,10.2035,10.2772,10.3693,10.3755,10.4246,10.4983,10.4246,10.3755,10.3755,10.3755,10.3755,10.3878,10.4615,10.5168,10.5168,10.5168,10.5168,10.5168,10.5168,10.5417,10.5707,10.5789,10.6542,10.7834,10.7104,10.7024,10.8147,10.8691,10.9456,11.0579,11.2168,11.2943,11.3013,11.404,11.4711,11.4711,11.4711,11.4711,11.4711,11.4711,11.4711,11.4711,11.5306,11.5764,11.5893,11.64,11.6708,11.6838,11.677,11.677,11.6702,11.677,11.6224,11.5596,11.6271,11.651,11.591,11.6431,11.6839,11.7111,11.5641,11.4503,11.4721,11.3914,11.3145,11.2686,11.3184,11.396,11.563,11.5951,11.6756,11.8438,11.9633,12.058,12.2012,12.2035,12.0633,11.7827,11.6759,11.6047,11.5218,11.4722,11.4149,11.3575,11.2704,11.1649,11.2094,11.198,11.1827,11.1221,11.0717,11.0539,10.9612,10.8341,10.7076,10.7067,10.6533,10.5577,10.483,10.3574,10.3035,10.1599,9.9864,9.9685,9.9266,9.8548,9.8548,9.8989,9.9552,9.8359,9.842,9.9279,9.983,10.0155,10.0315,10.0868,10.1605,10.228,10.2403,10.2772,10.3386,10.271,10.2342,10.2342,10.2342,10.2403,10.2465,10.314,10.3509,10.3509,10.3509,10.3509,10.3509,10.3509,10.3509,10.3509,10.4062,10.4493,10.4744,10.3937,10.3937,10.4921,10.6071,10.7246,10.8232,11.0247,11.145,11.1522,11.2939,11.3768,11.37,11.431,11.4711,11.4711,11.4711,11.4711,11.4711,11.5437,11.5893,11.5893,11.6463,11.677,11.677,11.677,11.6224,11.5268,11.4995,11.4654,11.3964,11.4219,11.4502,11.4233,11.3996,11.4206,11.4564,11.2924,11.1962,11.2242,11.1783,11.1122,11.1165,11.1799,11.2586,11.3136,11.3487,11.4202,11.5823,11.6627,11.7728,11.8891,11.8564,11.7021,11.5396,11.4243,11.3397,11.2693,11.2362,11.232,11.2027,11.1316,11.0975,11.1171,11.0799,11.0107,10.8908,10.8772,10.8662,10.8284,10.6942,10.6055,10.4827,10.4144,10.2615,10.3215,10.2138,10.0881,9.9625,9.8607,9.8428,9.8248,9.8069,9.8129,9.8628,9.8864,9.6425,9.5777,9.6467,9.7704,9.857,9.8946,10.0051,10.0665,10.0868,10.0929,10.099,10.1236,10.099,10.0929,10.0929,10.0929,10.0929,10.0929,10.1113,10.1175,10.1113,10.1113,10.1236,10.1175,10.1175,10.1175,10.1113,10.228,10.2219,10.099,10.1052,10.1113,10.1113,10.3736,10.5082,10.5223,10.8029,10.963,10.9705,11.1174,11.2239,11.2522,11.37,11.4444,11.451,11.4443,11.4443,11.4309,11.4967,11.5352,11.5487,11.585,11.6224,11.6292,11.6292,11.52,11.3221,11.247,11.247,11.2129,11.2189,11.2455,11.2943,11.2002,11.1618,11.2215,11.077,10.9603,11.0629,11.0037,10.9725,11.0428,11.0898,11.0997,11.0839,11.0867,11.1497,11.2878,11.3467,11.4162,11.4361,11.3869,11.2975,11.2593,11.1571,11.0918,11.0739,11.0699,11.0749,11.0819,11.0679,11.0528,10.9968,10.9514,10.8755,10.7873,10.7488,10.7204,10.6055,10.5509,10.5577,10.3394,10.1511,9.9185,10.0283,10.0821,9.9505,9.8847,9.8488,9.7471,9.6394,9.5436,9.5436,9.5761,9.6103,9.5621,9.5558,9.5971,9.6274,9.6632,9.7006,9.7329,9.822,9.9455,9.9516,10.013,10.0929,10.0008,9.9516,9.9516,9.9577,9.9577,9.97,10.056,10.1113,10.1113,10.1113,10.1113,10.1113,10.1113,10.1113,10.1052,10.0376,9.9885,9.9577,10.056,10.1113,10.1113,10.1759,10.2042,10.2183,10.5004,10.655,10.6704,10.9105,11.1086,11.2239,11.2663,11.2895,11.3038,11.3035,11.2566,11.1558,11.1998,11.2375,11.2375,11.2993,11.3358,11.3358,11.3358,11.3016,11.247,11.2197,11.172,11.0764,11.0559,11.0199,10.9335,10.8913,10.9002,10.9101,10.8603,10.8341,10.862,10.9154,10.9139,10.9046,10.9968,11.0136,10.8893,10.8551,10.917,11.0508,11.1572,11.1141,11.0248,10.9363,10.9268,10.9101,10.8813,10.8731,10.8551,10.8662,10.9031,10.9444,10.9031,10.8717,10.9108,10.8704,10.7132,10.4938,10.4417,10.3598,10.196,10.0937,9.9503,9.8821,9.7785,9.5707,9.8967,9.9385,9.8189,9.765,9.753,9.6214,9.5197,9.4479,9.4479,9.4619,9.486,9.486,9.51,9.5497,9.5577,9.5813,9.6206,9.6301,9.6962,9.7869,9.8087,9.8533,9.9086,9.8472,9.8165,9.8165,9.8165,9.8165,9.8226,9.8902,9.927,9.9209,9.9209,9.927,9.927,9.927,9.9209,9.913,9.9147,9.9165,9.9086,9.9823,10.0192,10.0192,10.013,10.0192,10.0192,10.2376,10.3533,10.3454,10.6347,10.8388,10.9279,11.0578,11.1426,11.1564,11.156,11.1225,11.042,11.0861,11.1236,11.1546,11.2033,11.1856,11.0423,10.9672,10.9536,11.0218,10.9672,10.9126,10.9058,10.9058,10.8785,10.7966,10.7898,10.7898,10.7898,10.7898,10.7898,10.7887,10.7779,10.7465,10.6931,10.7227,10.6958,10.6242,10.6533,10.742,10.8843,10.8453,10.7589,10.7044,10.6874,10.7079,10.783,10.7898,10.7898,10.7898,10.7898,10.8115,10.8509,10.7586,10.7213,10.752,10.6009,10.4268,10.2848,10.1824,10.0854,9.9078,9.8139,9.7729,9.7472,9.6472,9.3861,9.8069,9.8129,9.6812,9.6274,9.6214,9.5017,9.4479,9.4479,9.4479,9.4479,9.4479,9.4479,9.47,9.516,9.516,9.5399,9.5813,9.6206,9.6362,9.644,9.6828,9.6997,9.6997,9.6997,9.6997,9.6997,9.7059,9.6997,9.6982,9.7059,9.6997,9.7059,9.6997,9.7059,9.6997,9.6997,9.6997,9.7059,9.8165,9.8857,9.884,9.8857,9.8902,9.9165,9.8902,9.8902,9.9165,10.0192,10.0929,10.1113,10.3595,10.5069,10.5564,10.8037,10.9567,10.9566,10.9887,10.9951,10.975,11.0003,11.0375,11.1051,11.1481,11.0559,10.783,10.6192,10.5782,10.7079,10.6123,10.5919,10.7352,10.7557,10.7625,10.783,10.7898,10.7898,10.7898,10.7693,10.7488,10.742,10.6192,10.5292,10.5168,10.4391,10.3886,10.3722,10.4622,10.5714,10.6465,10.5031,10.4144,10.4963,10.5236,10.585,10.6601,10.7215,10.7011,10.7284,10.7079,10.6942,10.6988,10.6043,10.536,10.536,10.3653,10.1824,10.0868,9.964,9.848,9.7524,9.6823,9.6703,9.6447,9.4897,9.2196,9.5855,9.6812,9.5436,9.4898,9.4838,9.4599,9.4479,9.4479,0.0,0.0,0.0,9.4479,9.4479,9.4619,9.4559,9.486,9.5339,9.5735,9.6067,9.644,9.6828,9.6997,9.6997,9.6997,9.6997,9.6997,9.6997,9.6997,9.6997,9.6997,9.6997,9.6997,9.6997,9.6997,9.6997,9.6997,9.6997,9.7059,9.7227,9.7427,9.7427,9.7366,9.798,9.9103,9.798,9.7919,9.9103,9.941,9.9946,10.099,10.1538,10.2567,10.3944,10.5629,10.6155,10.5345,10.7238,10.8007,10.6867,10.6795,10.7102,10.7699,10.8299,10.7966,10.6123,10.4622,10.3926,10.4144,10.3995,10.4349,10.5782,10.5987,10.6533,10.7761,10.7898,10.7898,10.783,10.6806,10.5987,10.585,10.469,10.379,10.3735,10.3462,10.3394,10.3448,10.3585,10.3995,10.4076,10.3653,10.3257,10.353,10.3667,10.3926,10.4212,10.4349,10.4268,10.4417,10.4404,10.4144,10.4144,10.394,10.3858,10.3598,10.3462,10.1824,9.9708,9.8002,9.6279,9.3839,9.1841,9.0439,9.0337,8.9112,8.7777,9.4898,0.0,9.4778,9.4479,0.0,9.4479,9.4479,9.4479,9.4479,9.4479,9.4479,9.4479,9.4479,9.4479,9.4479,9.4619,9.486,9.5577,9.5971,9.6206,9.675,9.6997,9.6997,9.6997,9.6997,9.6997,9.6997,9.6997,9.6997,9.6997,9.6997,9.6997,9.6997,9.7427,9.8042,9.7427,9.6905,9.675,9.719,9.7573,9.8103,9.7869,9.8237,9.9025,9.7735,0.0,0.0,0.0,0.0,0.0,0.0,0.0,0.0,0.0,0.0,10.1794,10.3635,10.4424,10.3767,10.4542,10.497,10.4661,10.6481,10.6357,10.3233,10.2273,10.2406,10.3901,10.2678,10.2462,10.4002,10.4875,10.5681,10.6544,10.6738,10.6738,10.6601,10.5373,10.4485,10.4349,10.3189,10.2233,10.2233,10.1619,10.1141,10.1195,10.1687,10.2233,10.2165,10.1619,10.1141,10.1127,10.1687,10.2438,10.3189,10.3394,10.3448,10.3257,10.2711,10.2302,10.2233,10.1619,10.1195,10.1073,10.0512,9.9625,9.7866,9.551,9.3164,9.1622,8.9527,8.8254,8.9323,8.854,8.7245,9.4479,9.4479,9.4479,9.4479,9.4398,9.4075,9.3994,9.3994,9.3994,9.4156,9.4398,9.3917,9.3458,9.3279,9.2897,9.2735,9.2816,9.3621,9.402,9.402,9.4972,9.5407,9.5407,9.5589,9.5771,9.5692,9.5771,9.571,9.5771,9.5771,9.5771,9.5692,9.5771,9.6553,9.7923,0.0,0.0,0.0,9.5922,9.6928,9.7948,9.777,9.8051,9.9007,9.7718,0.0,9.6997,9.5769,9.5032,9.5032,9.4786,0.0,0.0,0.0,0.0,0.0,0.0,0.0,0.0,0.0,0.0,0.0,10.3843,10.3722,9.9657,9.9416,10.0411,10.2393,10.0446,9.9724,10.1404,10.2645,10.3685,10.4454,10.4591,10.4523,10.4523,10.3569,10.2615,10.2465,10.132,10.0448,10.038,9.948,9.8799,9.8988,9.9806,10.0488,10.0448,9.9549,9.8799,9.8905,9.9875,10.1088,10.2302,10.1988,10.1402,10.1892,10.08,9.9792,9.964,9.8753,9.807,9.774,9.7043,9.6447,9.6102,9.3613,9.1673,9.1404,8.9512,8.8051,8.8724,8.8302,8.706,9.4479,9.4479,9.4479,9.4479,9.4318,9.2787,9.2064,9.2064,9.2064,9.2953,9.4258,9.1693,8.9927,8.8795,8.7353,8.6691,8.6691,8.713,8.7402,8.7459,8.8909,8.9538,8.9596,9.0613,9.1076,9.1076,9.1076,9.105,9.0992,9.0992,9.1076,9.1134,9.105,9.2172,9.4156,9.0112,8.9098,9.1276,9.1223,9.2097,9.3868,9.4194,9.5682,9.8393,9.7563,9.6997,9.6997,9.5707,9.5032,9.497,9.3987,9.3398,9.336,9.4921,9.5264,0.0,9.6508,0.0,0.0,0.0,0.0,0.0,0.0,0.0,0.0,9.5805,9.6187,9.5376,9.4735,9.5087,9.6758,9.6932,9.806,10.0635,10.0974,10.0974,10.0974,10.0783,10.0173,9.8805,9.848,9.8412,9.8412,9.8277,9.8182,9.8397,9.8547,9.8534,9.8344,9.81,9.8019,9.845,9.8586,9.8765,9.913,9.7789,9.6693,9.718,9.621,9.5272,9.5256,9.5102,9.4626,9.4124,9.4708,9.5114,9.4345,9.3844,9.3343,9.2955,9.122,8.8528,8.5265,8.4033,8.2939,9.4075,9.4156,9.4398,9.3117,9.0969,9.0143,8.9628,8.9255,8.9255,8.9359,8.9471,8.815,8.7245,8.6565,8.5903,8.557,8.557,8.5955,8.6121,8.6203,8.6991,8.7525,8.7442,8.8017,8.8246,8.8246,8.8246,8.8246,8.8246,8.8304,8.8246,8.8246,8.8246,8.8481,8.8772,8.594,8.563,8.8053,8.7969,8.8732,9.0425,9.1096,9.2197,9.3615,9.39,9.3926,9.3739,9.3137,9.2759,9.2759,9.153,9.0486,8.9749,9.1693,9.2233,0.0,0.0,0.0,0.0,0.0,0.0,0.0,0.0,0.0,0.0,0.0,9.4755,9.2513,9.2886,9.3317,9.3528,9.5582,9.6891,9.6827,9.7565,9.8067,9.8084,9.796,9.7986,9.7978,9.7965,9.7965,9.7965,9.7965,9.8019,9.8128,9.6709,9.5665,9.5665,9.5723,9.5723,9.5831,9.5889,9.5955,9.6071,9.4587,9.345,9.3253,9.1808,9.0765,9.1154,9.1207,9.1207,9.1301,9.2304,9.3198,9.2744,9.1766,9.0777,9.0597,8.9509,8.7713,8.5444,8.3834,8.2091,9.2314,9.2397,9.2646,9.0568,8.7042,8.6986,8.6584,8.6045,8.5989,8.5826,8.5513,8.5204,8.4868,8.4393,8.375,8.333,8.333,8.3694,8.3805,8.3805,8.4419,8.4698,8.4698,8.4897,8.5066,8.5066,8.5066,8.5066,8.5066,8.5066,8.5235,8.5461,8.498,8.4112,8.3078,8.2041,8.244,8.4253,8.4197,8.4983,8.6334,8.752,8.8346,8.8876,8.9878,9.0228,8.9684,8.9937,8.9995,8.963,8.9147,8.8441,8.7337,8.9309,0.0,0.0,0.0,0.0,0.0,0.0,0.0,0.0,0.0,8.8513,8.8511,0.0,9.2922,0.0,9.112,9.1168,9.008,9.312,0.0,0.0,9.4055,9.4882,9.4923,9.4916,9.5209,9.6127,9.6028,9.6095,9.6709,9.6508,9.6173,9.5838,9.385,9.2516,9.2698,9.2954,9.3084,9.2882,9.3134,9.3145,9.269,9.1906,9.115,9.0181,8.8454,8.7312,8.7762,8.7874,8.805,8.8513,8.968,9.0539,9.056,8.9524,8.8226,8.689,8.6301,8.5649,8.4522,8.2795,8.0635,8.8028,8.794,8.8028,8.6266,8.3513,8.3368,8.3078,8.2433,8.2433,8.3592,8.5373,8.4299,8.2827,8.1038,7.8358,0.0,7.7158,7.7158,7.7191,7.7158,7.8361,7.8839,7.8892,7.9955,8.0397,8.0397,8.0397,8.0397,8.0434,8.0434,8.0982,8.1937,7.9902,7.8273,7.7251,7.8011,7.8575,7.8839,7.8839,7.9424,8.0593,8.2717,8.4673,8.6317,8.6835,8.6446,8.5316,8.6752,8.7067,8.5881,8.7507,8.8444,8.8322,0.0,0.0,0.0,0.0,0.0,0.0,0.0,0.0,0.0,0.0,0.0,0.0,0.0,0.0,0.0,8.7837,0.0,8.5421,8.6656,0.0,0.0,0.0,9.1243,9.1176,9.13,9.1364,9.1361,0.0,0.0,9.3166,9.239,9.1092,8.9857,8.9548,8.9427,8.9363,9.0338,9.0848,8.9862,9.0825,9.0966,8.9326,8.9478,8.9304,8.8068,8.6556,8.554,8.5532,8.5597,8.5597,8.5557,8.6726,8.7577,8.7291,8.8007,8.7515,8.295,8.2476,8.1707,7.8514,7.7302,7.6281,8.5047,8.2073,8.2073,8.1164,7.9904,7.9852,7.9496,7.8839,7.8839,7.8945,7.9206,7.8839,7.8045,7.6723,7.5788,0.0,0.0,0.0,7.432,7.4288,7.5533,7.606,7.6113,7.7273,7.7801,7.7801,7.7801,7.7432,7.6746,7.7432,7.7695,7.7379,0.0,0.0,7.6429,7.6851,7.7062,7.7062,7.7115,7.7643,7.8803,7.9723,8.0804,8.2037,8.2996,8.3128,8.2457,8.3121,8.3258,8.2794,8.2878,8.2555,0.0,0.0,0.0,0.0,0.0,0.0,0.0,0.0,0.0,0.0,0.0,8.1101,8.2835,0.0,0.0,0.0,8.4793,8.4226,8.3776,8.6367,0.0,0.0,0.0,0.0,0.0,0.0,0.0,9.3179,9.1503,9.0599,9.1567,8.8519,8.5985,8.5484,8.5358,8.5045,8.4167,0.0,8.5045,8.5486,8.5988,8.6365,8.6294,8.6368,8.5984,8.5044,8.3597,8.2775,8.3137,8.3196,8.338,8.3686,8.4187,8.4569,8.4449,8.3076,8.1016,7.8513,7.7032,7.575,7.4176,7.2382,7.1256,8.1612,0.0,0.0,0.0,0.0,7.702,7.6628,7.6049,7.5739,7.5207,7.4519,7.4502,0.0,0.0,0.0,0.0,0.0,0.0,7.2783,7.2918,7.3709,7.4214,7.413,7.5058,7.5427,7.5374,7.5427,7.5005,7.413,7.5005,7.4794,7.3687,0.0,0.0,0.0,0.0,7.6218,7.5955,7.6218,7.6799,7.759,7.7643,7.794,7.8548,7.9441,7.9607,7.9093,7.9654,7.9819,7.9422,7.9257,0.0,0.0,0.0,0.0,0.0,0.0,0.0,0.0,0.0,0.0,0.0,0.0,0.0,0.0,0.0,0.0,0.0,0.0,0.0,8.1372,8.4273,8.5524,0.0,0.0,0.0,0.0,0.0,0.0,0.0,0.0,0.0,8.8388,8.4899,8.2193,0.0,0.0,8.0841,7.9859,8.0095,8.0635,8.1185,8.178,0.0,8.2736,8.2365,8.1895,8.1438,8.0404,7.986,8.0419,8.0424,8.0611,8.1294,8.1413,8.11,8.0363,7.8262,7.6296,7.4883,7.3239,7.1794,7.0837,6.8931,6.7507,0.0,0.0,0.0,0.0,0.0,0.0,0.0,0.0,7.3254,7.3052,0.0,7.2376,0.0,0.0,0.0,0.0,0.0,7.2234,0.0,0.0,7.2866,7.2971,7.2918,7.3024,7.3024,7.3024,7.3024,7.2971,7.2866,7.2918,0.0,0.0,0.0,0.0,0.0,0.0,7.5849,7.4847,7.5796,7.6429,7.6482,7.6482,7.6482,7.6568,7.6568,7.6073,7.4963,7.6443,7.6739,7.5724,7.7528,0.0,0.0,0.0,0.0,0.0,0.0,0.0,0.0,0.0,0.0,0.0,0.0,0.0,0.0,0.0,0.0,0.0,0.0,0.0,0.0,7.8556,0.0,0.0,0.0,0.0,0.0,0.0,0.0,0.0,0.0,0.0,8.2322,8.1441,8.0473,7.9181,0.0,0.0,0.0,0.0,7.886,7.7534,7.8712,7.9282,7.803,7.7599,7.7474,7.7349,0.0,0.0,7.7301,7.7149,7.7279,7.8132,7.8139,7.7091,7.4725,7.455,7.4204,7.2883,7.2047,7.096,6.8576,6.7035,6.5974,0.0,0.0,0.0,0.0,0.0,0.0,0.0,0.0,0.0,7.1832,0.0,7.1217,0.0,0.0,0.0,0.0,0.0,0.0,0.0,0.0,7.0985,7.1218,7.1025,7.2003,7.2422,0.0,7.2369,7.0592,0.0,0.0,0.0,0.0,0.0,0.0,0.0,0.0,7.4236,7.4689,7.5058,7.5638,7.6377,7.6429,7.6429,7.6429,7.6429,7.5849,7.4741,7.3735,7.3369,0.0,0.0,0.0,0.0,0.0,0.0,0.0,0.0,0.0,0.0,0.0,0.0,0.0,0.0,0.0,0.0,0.0,0.0,0.0,0.0,0.0,0.0,0.0,7.5001,0.0,0.0,0.0,0.0,0.0,0.0,0.0,0.0,0.0,7.909,7.8819,7.8049,7.6012,7.5008,7.4225,7.3315,0.0,0.0,0.0,0.0,0.0,0.0,0.0,7.5399,7.5399,7.602,7.6568,7.6636,7.636,7.6294,7.6583,0.0,0.0,7.1713,7.0267,6.902,6.7731,6.7483,6.6936,6.517,6.5735,6.6159,0.0,0.0,0.0,0.0,0.0,0.0,0.0,0.0,0.0,7.0198,6.9658,0.0,0.0,0.0,0.0,0.0,0.0,0.0,0.0,0.0,0.0,0.0,6.9421,7.0444,0.0,0.0,0.0,0.0,0.0,0.0,0.0,0.0,0.0,0.0,0.0,0.0,7.1766,7.2994,7.4004,7.5216,7.6377,7.6204,7.6117,7.6117,7.5611,7.5,7.4181,0.0,0.0,0.0,0.0,0.0,0.0,0.0,0.0,0.0,0.0,0.0,0.0,0.0,0.0,0.0,0.0,0.0,0.0,0.0,0.0,0.0,0.0,0.0,0.0,0.0,7.0544,0.0,0.0,0.0,0.0,0.0,0.0,0.0,0.0,0.0,0.0,0.0,7.5532,7.3487,7.2715,7.1847,7.0294,6.9789,6.9806,0.0,0.0,0.0,0.0,0.0,0.0,0.0,0.0,0.0,0.0,0.0,0.0,0.0,0.0,7.2076,6.9858,6.8241,6.6876,6.5678,0.0,0.0,0.0,0.0,0.0,0.0,0.0,0.0,0.0,0.0,0.0,0.0,0.0,0.0,0.0,0.0,0.0,0.0,6.6701,0.0,0.0,0.0,0.0,0.0,0.0,0.0,0.0,0.0,0.0,0.0,0.0,0.0,0.0,0.0,0.0,0.0,0.0,0.0,0.0,0.0,0.0,6.8444,6.9468,7.2687,7.4993,7.6012,7.5718,7.5457,7.5405,7.4018,7.3138,7.3172,0.0,0.0,0.0,0.0,0.0,0.0,0.0,0.0,0.0,0.0,0.0,0.0,0.0,0.0,0.0,0.0,0.0,0.0,0.0,0.0,0.0,0.0,0.0,0.0,0.0,0.0,6.7528,6.8702,7.0607,0.0,0.0,0.0,0.0,0.0,0.0,0.0,0.0,0.0,0.0,7.0837,6.982,6.8029,6.8554,6.8829,6.8154,6.8248,6.8364,6.8381,6.8221,6.8398,0.0,0.0,0.0,0.0,0.0,0.0,0.0,0.0,0.0,0.0,0.0,0.0,0.0,0.0,0.0,0.0,0.0,0.0,0.0,0.0,0.0,0.0,0.0,0.0,0.0,0.0,0.0,0.0,0.0,0.0,0.0,0.0,0.0,0.0,0.0,0.0,0.0,0.0,0.0,0.0,0.0,0.0,0.0,0.0,0.0,0.0,0.0,0.0,0.0,0.0,0.0,0.0,0.0,0.0,6.612,6.5962,6.8904,7.0439,7.0293,7.0724,7.1662,7.2832,7.062,6.9589,0.0,0.0,0.0,0.0,0.0,0.0,0.0,0.0,0.0,0.0,0.0,0.0,0.0,0.0,0.0,0.0,0.0,0.0,0.0,0.0,0.0,0.0,0.0,0.0,0.0,0.0,0.0,0.0,6.4821,6.5957,6.7335,0.0,0.0,0.0,0.0,0.0,0.0,0.0,0.0,0.0,0.0,6.8458,6.7862,6.7511,6.6962,6.5874,6.6464,6.6746,6.5996,6.6006,6.6247,6.6627,0.0,0.0,0.0,0.0,0.0,0.0,0.0,0.0,0.0,0.0,0.0,0.0,0.0,0.0,0.0,0.0,0.0,0.0,0.0,0.0,0.0,0.0,0.0,0.0,0.0,0.0,0.0,0.0,0.0,0.0,0.0,0.0,0.0,0.0,0.0,0.0,0.0,0.0,0.0,0.0,0.0,0.0,0.0,0.0,0.0,0.0,0.0,0.0,0.0,0.0,0.0,0.0,0.0,6.3134,6.3139,6.6024,6.7617,6.7649,6.8336,6.9133,6.9983,6.7649,6.6552,0.0,0.0,0.0,0.0,0.0,0.0,0.0,0.0,0.0,0.0,0.0,0.0,0.0,0.0,0.0,0.0,0.0,0.0,0.0,0.0,0.0,0.0,0.0,0.0,0.0,0.0,0.0,0.0,6.2997,6.3416,6.3778,0.0,0.0,0.0,0.0,0.0,0.0,0.0,0.0,0.0,0.0,6.6617,6.5901,6.5515,0.0,0.0,6.445,6.4629,6.3994,6.4145,6.4238,6.4231,6.4919,0.0,0.0,0.0,0.0,0.0,0.0,0.0,0.0,0.0,0.0,0.0,0.0,0.0,0.0,0.0,0.0,0.0,0.0,0.0,0.0,0.0,0.0,0.0,0.0,0.0,0.0,0.0,0.0,0.0,0.0,0.0,0.0,0.0,0.0,0.0,0.0,0.0,0.0,0.0,0.0,0.0,0.0,0.0,0.0,0.0,0.0,0.0,0.0,0.0,0.0,0.0,0.0,0.0,6.0703,6.39,6.5962,6.7009,6.7454,6.7269,6.6651,6.5073,6.3776,0.0,0.0,0.0,0.0,0.0,0.0,0.0,0.0,0.0,0.0,0.0,0.0,0.0,0.0,0.0,0.0,0.0,0.0,0.0,0.0,0.0,0.0,0.0,0.0,0.0,0.0,0.0,0.0,0.0,0.0,0.0,0.0,0.0,0.0,0.0,0.0,0.0,0.0,0.0,0.0,0.0,6.4629,6.2963,6.3022,6.3192,0.0,6.2349,6.2219,6.2498,6.245,6.2303,6.2248,0.0,0.0,0.0,0.0,0.0,0.0,0.0,0.0,0.0,0.0,0.0,0.0,0.0,0.0,0.0,0.0,0.0,0.0,0.0,0.0,0.0,0.0,0.0,0.0,0.0,0.0,0.0,0.0,0.0,0.0,0.0,0.0,0.0,0.0,0.0,0.0,0.0,0.0,0.0,0.0,0.0,0.0,0.0,0.0,0.0,0.0,0.0,0.0,0.0,0.0,0.0,0.0,0.0,0.0,5.7303,6.0074,6.1332,6.0921,6.1696,6.2716,6.3962,6.1516,0.0,0.0,0.0,0.0,0.0,0.0,0.0,0.0,0.0,0.0,0.0,0.0,0.0,0.0,0.0,0.0,0.0,0.0,0.0,0.0,0.0,0.0,0.0,0.0,0.0,0.0,0.0,6.2628,0.0,0.0,0.0,0.0,0.0,0.0,0.0,0.0,0.0,0.0,0.0,0.0,0.0,0.0,6.4429,6.3948,6.3182,6.2572,0.0,0.0,6.1257,6.2038,6.0852,6.0071,0.0,0.0,0.0,0.0,0.0,0.0,0.0,0.0,0.0,0.0,0.0,0.0,0.0,0.0,0.0,0.0,0.0,0.0,0.0,0.0,0.0,0.0,0.0,0.0,0.0,0.0,0.0,0.0,0.0,0.0,0.0,0.0,0.0,0.0,0.0,0.0,0.0,0.0,0.0,0.0,0.0,0.0,0.0,0.0,0.0,0.0,0.0,0.0,0.0,0.0,0.0,0.0,0.0,0.0,5.6914,5.5739,5.7636,5.8448,5.8395,5.8752,5.9444,6.055,5.8553,5.7432,0.0,0.0,0.0,0.0,0.0,0.0,0.0,0.0,0.0,0.0,0.0,0.0,0.0,0.0,0.0,0.0,0.0,0.0,0.0,0.0,0.0,0.0,0.0,0.0,0.0,0.0,0.0,0.0,0.0,0.0,0.0,0.0,0.0,0.0,0.0,0.0,0.0,0.0,0.0,0.0,0.0,0.0,6.3411,6.2356,0.0,0.0,0.0,6.0014,6.0546,0.0,0.0,0.0,0.0,0.0,0.0,0.0,0.0,0.0,0.0,0.0,0.0,0.0,0.0,0.0,0.0,0.0,0.0,0.0,0.0,0.0,0.0,0.0,0.0,0.0,0.0,0.0,0.0,0.0,0.0,0.0,0.0,0.0,0.0,0.0,0.0,0.0,0.0,0.0,0.0,0.0,0.0,0.0,0.0,0.0,0.0,0.0,0.0,0.0,0.0,0.0,0.0,0.0,0.0,0.0,0.0,0.0,5.5327,5.6033,5.6871,5.7656,5.7357,5.7124,5.6987,5.6202,5.5333,0.0,0.0,0.0,0.0,0.0,0.0,0.0,0.0,0.0,0.0,0.0,0.0,0.0,0.0,0.0,0.0,0.0,0.0,0.0,0.0,0.0,0.0,0.0,0.0,0.0,0.0,0.0,0.0,0.0,0.0,0.0,0.0,0.0,0.0,0.0,0.0,0.0,0.0,0.0,0.0,0.0,6.2088,6.1849,6.083,6.0122,0.0,0.0,5.8499,5.8756,5.8684,0.0,0.0,0.0,0.0,0.0,0.0,0.0,0.0,0.0,0.0,0.0,0.0,0.0,0.0,0.0,0.0,0.0,0.0,0.0,0.0,0.0,0.0,0.0,0.0,0.0,0.0,0.0,0.0,0.0,0.0,0.0,0.0,0.0,0.0,0.0,0.0,0.0,0.0,0.0,0.0,0.0,0.0,0.0,0.0,0.0,0.0,0.0,0.0,0.0,0.0,0.0,0.0,0.0,0.0,0.0,0.0,5.5195,5.5362,5.5949,5.6735,5.6401,5.6078,5.6078,5.5912,5.5188,0.0,0.0,0.0,0.0,0.0,0.0,0.0,0.0,0.0,0.0,0.0,0.0,0.0,0.0,0.0,0.0,0.0,0.0,0.0,0.0,0.0,0.0,0.0,0.0,0.0,0.0,0.0,0.0,0.0,0.0,0.0,0.0,0.0,0.0,0.0,0.0,0.0,0.0,0.0,0.0,0.0,5.9622,5.9527,5.8608,0.0,0.0,0.0,0.0,5.8362,5.7178,0.0,0.0,0.0,0.0,0.0,0.0,0.0,0.0,0.0,0.0,0.0,0.0,0.0,0.0,0.0,0.0,0.0,0.0,0.0,0.0,0.0,0.0,0.0,0.0,0.0,0.0,0.0,0.0,0.0,0.0,0.0,0.0,0.0,0.0,0.0,0.0,0.0,0.0,0.0,0.0,0.0,0.0,0.0,0.0,0.0,0.0,0.0,0.0,0.0,0.0,0.0,0.0,0.0,0.0,0.0,0.0,5.4465,5.4465,5.492,5.5788,5.4909,5.4722,5.4995,5.4722,5.4087,0.0,0.0,0.0,0.0,0.0,0.0,0.0,0.0,0.0,0.0,0.0,0.0,0.0,0.0,0.0,0.0,0.0,0.0,0.0,0.0,0.0,0.0,0.0,0.0,0.0,0.0,0.0,0.0,0.0,0.0,0.0,0.0,0.0,0.0,0.0,0.0,0.0,0.0,0.0,0.0,5.8487,5.8908,5.8851,0.0,0.0,0.0,0.0,0.0,0.0,5.6098,5.5583,0.0,0.0,0.0,0.0,0.0,0.0,0.0,0.0,0.0,0.0,0.0,0.0,0.0,0.0,0.0,0.0,0.0,0.0,0.0,0.0,0.0,0.0,0.0,0.0,0.0,0.0,0.0,0.0,0.0,0.0,0.0,0.0,0.0,0.0,0.0,0.0,0.0,0.0,0.0,0.0,0.0,0.0,0.0,0.0,0.0,0.0,0.0,0.0,0.0,0.0,0.0,0.0,0.0,0.0,0.0,5.3598,5.3598,5.4005,5.4698,5.3634,5.3408,5.3999,5.3355,5.282,5.2342,0.0,0.0,0.0,0.0,0.0,0.0,0.0,0.0,0.0,0.0,0.0,0.0,0.0,0.0,0.0,0.0,0.0,0.0,0.0,0.0,0.0,0.0,0.0,0.0,0.0,0.0,0.0,0.0,0.0,0.0,0.0,0.0,0.0,0.0,0.0,0.0,0.0,0.0,0.0,5.7664,5.8232,0.0,0.0,0.0,0.0,0.0,0.0,0.0,0.0,5.5443,0.0,0.0,0.0,0.0,0.0,0.0,0.0,0.0,0.0,0.0,0.0,0.0,0.0,0.0,0.0,0.0,0.0,0.0,0.0,0.0,0.0,0.0,0.0,0.0,0.0,0.0,0.0,0.0,0.0,0.0,0.0,0.0,0.0,0.0,0.0,0.0,0.0,0.0,0.0,0.0,0.0,0.0,0.0,0.0,0.0,0.0,0.0,0.0,0.0,0.0,0.0,0.0,0.0,0.0,0.0,0.0,5.3598,5.3679,5.3802,5.3351,5.3125,5.3287,5.3166,5.1986,4.9729,0.0,0.0,0.0,0.0,0.0,0.0,0.0,0.0,0.0,0.0,0.0,0.0,0.0,0.0,0.0,0.0,0.0,0.0,0.0,0.0,0.0,0.0,0.0,0.0,0.0,0.0,0.0,0.0,0.0,0.0,0.0,0.0,0.0,0.0,0.0,0.0,0.0,0.0,5.5675,5.5859,0.0,0.0,0.0,0.0,0.0,0.0,0.0,0.0,5.5443,0.0,0.0,0.0,0.0,0.0,0.0,0.0,0.0,0.0,0.0,0.0,0.0,0.0,0.0,0.0,0.0,0.0,0.0,0.0,0.0,0.0,0.0,0.0,0.0,0.0,0.0,0.0,0.0,0.0,0.0,0.0,0.0,0.0,0.0,0.0,0.0,0.0,0.0,0.0,0.0,0.0,0.0,0.0,0.0,0.0,0.0,0.0,0.0,0.0,0.0,0.0,0.0,0.0,0.0,0.0,0.0,0.0,0.0,5.0584,5.1652,5.049,5.0302,5.1278,5.0302,4.8475,0.0,0.0,0.0,0.0,0.0,0.0,0.0,0.0,0.0,0.0,0.0,0.0,0.0,0.0,0.0,0.0,0.0,0.0,0.0,0.0,0.0,0.0,0.0,0.0,0.0,0.0,0.0,0.0,0.0,0.0,0.0,0.0,0.0,0.0,0.0,0.0,0.0,0.0,0.0,0.0,0.0,0.0,0.0,0.0,0.0,0.0,0.0,0.0,0.0,0.0,0.0,0.0,0.0,0.0,0.0,0.0,0.0,0.0,0.0,0.0,0.0,0.0,0.0,0.0,0.0,0.0,0.0,0.0,0.0,0.0,0.0,0.0,0.0,0.0,0.0,0.0,0.0,0.0,0.0,0.0,0.0,0.0,0.0,0.0,0.0,0.0,0.0,0.0,0.0,0.0,0.0,0.0,0.0,0.0,0.0,0.0,0.0,0.0,0.0,0.0,0.0,0.0,0.0,0.0,0.0,0.0,0.0,0.0,4.7799,4.9868,4.7895,4.7608,4.9263,4.7141,4.4902,0.0,0.0,0.0,0.0,0.0,0.0,0.0,0.0,0.0,0.0,0.0,0.0,0.0,0.0,0.0,0.0,0.0,0.0,0.0,0.0,0.0,0.0,0.0,0.0,0.0,0.0,0.0,0.0,0.0,0.0,0.0,0.0,0.0,0.0,0.0,0.0,0.0,0.0,0.0,0.0,0.0,0.0,0.0,0.0,0.0,0.0,0.0,0.0,5.396,0.0,0.0,0.0,0.0,0.0,0.0,0.0,0.0,0.0,0.0,0.0,0.0,0.0,0.0,0.0,0.0,0.0,0.0,0.0,0.0,0.0,0.0,0.0,0.0,0.0,0.0,0.0,0.0,0.0,0.0,0.0,0.0,0.0,0.0,0.0,0.0,0.0,0.0,0.0,0.0,0.0,0.0,0.0,0.0,0.0,0.0,0.0,0.0,0.0,0.0,0.0,0.0,0.0,0.0,0.0,0.0,0.0,0.0,0.0,4.7799,4.9868,4.7895,4.6937,4.7093,4.4546,4.2819,0.0,0.0,0.0,0.0,0.0,0.0,0.0,0.0,0.0,0.0,0.0,0.0,0.0,0.0,0.0,0.0,0.0,0.0,0.0,0.0,0.0,0.0,0.0,0.0,0.0,0.0,0.0,0.0,0.0,0.0,0.0,0.0,0.0,0.0,0.0,0.0,0.0,0.0,0.0,0.0,0.0,0.0,0.0,0.0,0.0,0.0,0.0,0.0,0.0,0.0,0.0,0.0,0.0,0.0,0.0,0.0,0.0,0.0,0.0,0.0,0.0,0.0,0.0,0.0,0.0,0.0,0.0,0.0,0.0,0.0,0.0,0.0,0.0,0.0,0.0,0.0,0.0,0.0,0.0,0.0,0.0,0.0,0.0,0.0,0.0,0.0,0.0,0.0,0.0,0.0,0.0,0.0,0.0,0.0,0.0,0.0,0.0,0.0,0.0,0.0,0.0,0.0,0.0,0.0,0.0,0.0,0.0,0.0,4.4226,4.6299,4.4358,4.3248,4.3281,4.1524,4.0086,0.0,0.0,0.0,0.0,0.0,0.0,0.0,0.0,0.0,0.0,0.0,0.0,0.0,0.0,0.0,0.0,0.0,0.0,0.0,0.0,0.0,0.0,0.0,0.0,0.0,0.0,0.0,0.0,0.0,0.0,0.0,0.0,0.0,0.0,0.0,0.0,0.0,0.0,0.0,0.0,0.0,0.0,0.0,0.0,0.0,0.0,0.0,0.0,0.0,0.0,0.0,0.0,0.0,0.0,0.0,0.0,0.0,0.0,0.0,0.0,0.0,0.0,0.0,0.0,0.0,0.0,0.0,0.0,0.0,0.0,0.0,0.0,0.0,0.0,0.0,0.0,0.0,0.0,0.0,0.0,0.0,0.0,0.0,0.0,0.0,0.0,0.0,0.0,0.0,0.0,0.0,0.0,0.0,0.0,0.0,0.0,0.0,0.0,0.0,0.0,0.0,0.0,0.0,0.0,0.0,0.0,0.0,0.0,0.0,4.3742,4.1831,4.0482,4.0198,3.9163,3.8059,0.0,0.0,0.0,0.0,0.0,0.0,0.0,0.0,0.0,0.0,0.0,0.0,0.0,0.0,0.0,0.0,0.0,0.0,0.0,0.0,0.0,0.0,0.0,0.0,0.0,0.0,0.0,0.0,0.0,0.0,0.0,0.0,0.0,0.0,0.0,0.0,0.0,0.0,0.0,0.0,0.0,0.0,0.0,0.0,0.0,0.0,0.0,0.0,0.0,0.0,0.0,0.0,0.0,0.0,0.0,0.0,0.0,0.0,0.0,0.0,0.0,0.0,0.0,0.0,0.0,0.0,0.0,0.0,0.0,0.0,0.0,0.0,0.0,0.0,0.0,0.0,0.0,0.0,0.0,0.0,0.0,0.0,0.0,0.0,0.0,0.0,0.0,0.0,0.0,0.0,0.0,0.0,0.0,0.0,0.0,0.0,0.0,0.0,0.0,0.0,0.0,0.0,0.0,0.0,0.0,0.0,0.0,0.0,0.0,4.4636,4.1953,4.0069,3.9065,3.8301,3.7574,0.0,0.0,0.0,0.0,0.0,0.0,0.0,0.0,0.0,0.0,0.0,0.0,0.0,0.0,0.0,0.0,0.0,0.0,0.0,0.0,0.0,0.0,0.0,0.0,0.0,0.0,0.0,0.0,0.0,0.0,0.0,0.0,0.0,0.0,0.0,0.0,0.0,0.0,0.0,0.0,0.0,0.0,0.0,0.0,0.0,0.0,0.0,0.0,0.0,0.0,0.0,0.0,0.0,0.0,0.0,0.0,0.0,0.0,0.0,0.0,0.0,0.0,0.0,0.0,0.0,0.0,0.0,0.0,0.0,0.0,0.0,0.0,0.0,0.0,0.0,0.0,0.0,0.0,0.0,0.0,0.0,0.0,0.0,0.0,0.0,0.0,0.0,0.0,0.0,0.0,0.0,0.0,0.0,0.0,0.0,0.0,0.0,0.0,0.0,0.0,0.0,0.0,0.0,0.0,0.0,0.0,0.0,0.0,0.0,4.218,4.0581,3.9245,3.8418,3.776,3.6893,3.5847,0.0,0.0,0.0,0.0,0.0,0.0,0.0,0.0,0.0,0.0,0.0,0.0,0.0,0.0,0.0,0.0,0.0,0.0,0.0,0.0,0.0,0.0,0.0,0.0,0.0,0.0,0.0,0.0,0.0,0.0,0.0,0.0,0.0,0.0,0.0,0.0,0.0,0.0,0.0,0.0,0.0,0.0,0.0,0.0,0.0,0.0,0.0,0.0,0.0,0.0,0.0,0.0,0.0,0.0,0.0,0.0,0.0,0.0,0.0,0.0,0.0,0.0,0.0,0.0,0.0,0.0,0.0,0.0,0.0,0.0,0.0,0.0,0.0,0.0,0.0,0.0,0.0,0.0,0.0,0.0,0.0,0.0,0.0,0.0,0.0,0.0,0.0,0.0,0.0,0.0,0.0,0.0,0.0,0.0,0.0,0.0,0.0,0.0,0.0,0.0,0.0,0.0,0.0,0.0,0.0,0.0,0.0,0.0,4.0814,4.0086,3.9055,3.7928,3.7456,3.6511,0.0,0.0,0.0,0.0,0.0,0.0,0.0,0.0,0.0,0.0,0.0,0.0,0.0,0.0,0.0,0.0,0.0,0.0,0.0,0.0,0.0,0.0,0.0,0.0,0.0,0.0,0.0,0.0,0.0,0.0,0.0,0.0,0.0,0.0,0.0,0.0,0.0,0.0,0.0,0.0,0.0,0.0,0.0,0.0,0.0,0.0,0.0,0.0,0.0,0.0,0.0,0.0,0.0,0.0,0.0,0.0,0.0,0.0,0.0,0.0,0.0,0.0,0.0,0.0,0.0,0.0,0.0,0.0,0.0,0.0,0.0,0.0,0.0,0.0,0.0,0.0,0.0,0.0,0.0,0.0,0.0,0.0,0.0,0.0,0.0,0.0,0.0,0.0,0.0,0.0,0.0,0.0,0.0,0.0,0.0,0.0,0.0,0.0,0.0,0.0,0.0,0.0,0.0,0.0,0.0,0.0,0.0,0.0,4.0712,4.0742,4.0712,3.9573,3.7437,3.7379,3.6667,0.0,0.0,0.0,0.0,0.0,0.0,0.0,0.0,0.0,0.0,0.0,0.0,0.0,0.0,0.0,0.0,0.0,0.0,0.0,0.0,0.0,0.0,0.0,0.0,0.0,0.0,0.0,0.0,0.0,0.0,0.0,0.0,0.0,0.0,0.0,0.0,0.0,0.0,0.0,0.0,0.0,0.0,0.0,0.0,0.0,0.0,0.0,0.0,0.0,0.0,0.0,0.0,0.0,0.0,0.0,0.0,0.0,0.0,0.0,0.0,0.0,0.0,0.0,0.0,0.0,0.0,0.0,0.0,0.0,0.0,0.0,0.0,0.0,0.0,0.0,0.0,0.0,0.0,0.0,0.0,0.0,0.0,0.0,0.0,0.0,0.0,0.0,0.0,0.0,0.0,0.0,0.0,0.0,0.0,0.0,0.0,0.0,0.0,0.0,0.0,0.0,0.0,0.0,0.0,0.0,0.0,0.0,0.0,0.0,3.9674,0.0,3.8616,0.0,3.7612,3.719,0.0,0.0,0.0,0.0,0.0,0.0,0.0,0.0,0.0,0.0,0.0,0.0,0.0,0.0,0.0,0.0,0.0,0.0,0.0,0.0,0.0,0.0,0.0,0.0,0.0,0.0,0.0,0.0,0.0,0.0,0.0,0.0,0.0,0.0,0.0,0.0,0.0,0.0,0.0,0.0,0.0,0.0,0.0,0.0,0.0,0.0,0.0,0.0,0.0,0.0,0.0,0.0,0.0,0.0,0.0,0.0,0.0,0.0,0.0,0.0,0.0,0.0,0.0,0.0,0.0,0.0,0.0,0.0,0.0,0.0,0.0,0.0,0.0,0.0,0.0,0.0,0.0,0.0,0.0,0.0,0.0,0.0,0.0,0.0,0.0,0.0,0.0,0.0,0.0,0.0,0.0,0.0,0.0,0.0,0.0,0.0,0.0,0.0,0.0,0.0,0.0,0.0,0.0,0.0,0.0,0.0,0.0,0.0,0.0,4.0032,3.9626,3.8719,3.7449,3.7845,3.73,0.0,0.0,0.0,0.0,0.0,0.0,0.0,0.0,0.0,0.0,0.0,0.0,0.0,0.0,0.0,0.0,0.0,0.0,0.0,0.0,0.0,0.0,0.0,0.0,0.0,0.0,0.0,0.0,0.0,0.0,0.0,0.0,0.0,0.0,0.0,0.0,0.0,0.0,0.0,0.0,0.0,0.0,0.0,0.0,0.0,0.0,0.0,0.0,0.0,0.0,0.0,0.0,0.0,0.0,0.0,0.0,0.0,0.0,0.0,0.0,0.0,0.0,0.0,0.0,0.0,0.0,0.0,0.0,0.0,0.0,0.0,0.0,0.0,0.0,0.0,0.0,0.0,0.0,0.0,0.0,0.0,0.0,0.0,0.0,0.0,0.0,0.0,0.0,0.0,0.0,0.0,0.0,0.0,0.0,0.0,0.0,0.0,0.0,0.0,0.0,0.0,0.0,0.0,0.0,0.0,0.0,0.0,0.0,0.0,0.0,4.1074,3.9632,3.7525,3.7962,3.7312,0.0,0.0,0.0,0.0,0.0,0.0,0.0,0.0,0.0,0.0,0.0,0.0,0.0,0.0,0.0,0.0,0.0,0.0,0.0,0.0,0.0,0.0,0.0,0.0,0.0,0.0,0.0,0.0,0.0,0.0,0.0,0.0,0.0,0.0,0.0,0.0,0.0,0.0,0.0,0.0,0.0,0.0,0.0,0.0,0.0,0.0,0.0,0.0,0.0,0.0,0.0,0.0,0.0,0.0,0.0,0.0,0.0,0.0,0.0,0.0,0.0,0.0,0.0,0.0,0.0,0.0,0.0,0.0,0.0,0.0,0.0,0.0,0.0,0.0,0.0,0.0,0.0,0.0,0.0,0.0,0.0,0.0,0.0,0.0,0.0,0.0,0.0,0.0,0.0,0.0,0.0,0.0,0.0,0.0,0.0,0.0,0.0,0.0,0.0,0.0,0.0,0.0,0.0,0.0,0.0,0.0,0.0,0.0,0.0,0.0,4.0314,0.0,3.8107,3.7644,3.6991,3.5929,0.0,0.0,0.0,0.0,0.0,0.0,0.0,0.0,0.0,0.0,0.0,0.0,0.0,0.0,0.0,0.0,0.0,0.0,0.0,0.0,0.0,0.0,0.0,0.0,0.0,0.0,0.0,0.0,0.0,0.0,0.0,0.0,0.0,0.0,0.0,0.0,0.0,0.0,0.0,0.0,0.0,0.0,0.0,0.0,0.0,0.0,0.0,0.0,0.0,0.0,0.0,0.0,0.0,0.0,0.0,0.0,0.0,0.0,0.0,0.0,0.0,0.0,0.0,0.0,0.0,0.0,0.0,0.0,0.0,0.0,0.0,0.0,0.0,0.0,0.0,0.0,0.0,0.0,0.0,0.0,0.0,0.0,0.0,0.0,0.0,0.0,0.0,0.0,0.0,0.0,0.0,0.0,0.0,0.0,0.0,0.0,0.0,0.0,0.0,0.0,0.0,0.0,0.0,0.0,0.0,0.0,0.0,0.0,0.0,0.0,0.0,3.824,3.7434,3.6714,0.0,0.0,0.0,0.0,0.0,0.0,0.0,0.0,0.0,0.0,0.0,0.0,0.0,0.0,0.0,0.0,0.0,0.0,0.0,0.0,0.0,0.0,0.0,0.0,0.0,0.0,0.0,0.0,0.0,0.0,0.0,0.0,0.0,0.0,0.0,0.0,0.0,0.0,0.0,0.0,0.0,0.0,0.0,0.0,0.0,0.0,0.0,0.0,0.0,0.0,0.0,0.0,0.0,0.0,0.0,0.0,0.0,0.0,0.0,0.0,0.0,0.0,0.0,0.0,0.0,0.0,0.0,0.0,0.0,0.0,0.0,0.0,0.0,0.0,0.0,0.0,0.0,0.0,0.0,0.0,0.0,0.0,0.0,0.0,0.0,0.0,0.0,0.0,0.0,0.0,0.0,0.0,0.0,0.0,0.0,0.0,0.0,0.0,0.0,0.0,0.0,0.0,0.0,0.0,0.0,0.0,0.0,0.0,0.0,0.0,0.0,3.9149,3.802,3.7366,0.0,3.606,0.0,0.0,0.0,0.0,0.0,0.0,0.0,0.0,0.0,0.0,0.0,0.0,0.0,0.0,0.0,0.0,0.0,0.0,0.0,0.0,0.0,0.0,0.0,0.0,0.0,0.0,0.0,0.0,0.0,0.0,0.0,0.0,0.0,0.0,0.0,0.0,0.0,0.0,0.0,0.0,0.0,0.0,0.0,0.0,0.0,0.0,0.0,0.0,0.0,0.0,0.0,0.0,0.0,0.0,0.0,0.0,0.0,0.0,0.0,0.0,0.0,0.0,0.0,0.0,0.0,0.0,0.0,0.0,0.0,0.0,0.0,0.0,0.0,0.0,0.0,0.0,0.0,0.0,0.0,0.0,0.0,0.0,0.0,0.0,0.0,0.0,0.0,0.0,0.0,0.0,0.0,0.0,0.0,0.0,0.0,0.0,0.0,0.0,0.0,0.0,0.0,0.0,0.0,0.0,0.0,0.0,0.0,0.0,0.0,0.0,0.0,0.0,3.7641,3.7287,3.6,0.0,0.0,0.0,0.0,0.0,0.0,0.0,0.0,0.0,0.0,0.0,0.0,0.0,0.0,0.0,0.0,0.0,0.0,0.0,0.0,0.0,0.0,0.0,0.0,0.0,0.0,0.0,0.0,0.0,0.0,0.0,0.0,0.0,0.0,0.0,0.0,0.0,0.0,0.0,0.0,0.0,0.0,0.0,0.0,0.0,0.0,0.0,0.0,0.0,0.0,0.0,0.0,0.0,0.0,0.0,0.0,0.0,0.0,0.0,0.0,0.0,0.0,0.0,0.0,0.0,0.0,0.0,0.0,0.0,0.0,0.0,0.0,0.0,0.0,0.0,0.0,0.0,0.0,0.0,0.0,0.0,0.0,0.0,0.0,0.0,0.0,0.0,0.0,0.0,0.0,0.0,0.0,0.0,0.0,0.0,0.0,0.0,0.0,0.0,0.0,0.0,0.0,0.0,0.0,0.0,0.0,0.0,0.0,0.0,0.0,3.8493,3.666,3.751,3.7269,3.6,0.0,0.0,0.0,0.0,0.0,0.0,0.0,0.0,0.0,0.0,0.0,0.0,0.0,0.0,0.0,0.0,0.0,0.0,0.0,0.0,0.0,0.0,0.0,0.0,0.0,0.0,0.0,0.0,0.0,0.0,0.0,0.0,0.0,0.0,0.0,0.0,0.0,0.0,0.0,0.0,0.0,0.0,0.0,0.0,0.0,0.0,0.0,0.0,0.0,0.0,0.0,0.0,0.0,0.0,0.0,0.0,0.0,0.0,0.0,0.0,0.0,0.0,0.0,0.0,0.0,0.0,0.0,0.0,0.0,0.0,0.0,0.0,0.0,0.0,0.0,0.0,0.0,0.0,0.0,0.0,0.0,0.0,0.0,0.0,0.0,0.0,0.0,0.0,0.0,0.0,0.0,0.0,0.0,0.0,0.0,0.0,0.0,0.0,0.0,0.0,0.0,0.0,0.0,0.0,0.0,0.0,0.0,0.0,0.0,0.0,0.0,0.0,0.0,0.0,3.5908,0.0,0.0,0.0,0.0,0.0,0.0,0.0,0.0,0.0,0.0,0.0,0.0,0.0,0.0,0.0,0.0,0.0,0.0,0.0,0.0,0.0,0.0,0.0,0.0,0.0,0.0,0.0,0.0,0.0,0.0,0.0,0.0,0.0,0.0,0.0,0.0,0.0,0.0,0.0,0.0,0.0,0.0,0.0,0.0,0.0,0.0,0.0,0.0,0.0,0.0,0.0,0.0,0.0,0.0,0.0,0.0,0.0,0.0,0.0,0.0,0.0,0.0,0.0,0.0,0.0,0.0,0.0,0.0,0.0,0.0,0.0,0.0,0.0,0.0,0.0,0.0,0.0,0.0,0.0,0.0,0.0,0.0,0.0,0.0,0.0,0.0,0.0,0.0,0.0,0.0,0.0,0.0,0.0,0.0,0.0,0.0,0.0,0.0,0.0,0.0,0.0,0.0,0.0,0.0,0.0,0.0,0.0,0.0,0.0,0.0,0.0,0.0,0.0,0.0,0.0,0.0,0.0,0.0,0.0,0.0,0.0,0.0,0.0,0.0,0.0,0.0,0.0,0.0,0.0,0.0,0.0,0.0,0.0,0.0,0.0,0.0,0.0,0.0,0.0,0.0,0.0,0.0,0.0,0.0,0.0,0.0,0.0,0.0,0.0,0.0,0.0,0.0,0.0,0.0,0.0,0.0,0.0,0.0,0.0,0.0,0.0,0.0,0.0,0.0,0.0,0.0,0.0,0.0,0.0,0.0,0.0,0.0,0.0,0.0,0.0,0.0,0.0,0.0,0.0,0.0,0.0,0.0,0.0,0.0,0.0,0.0,0.0,0.0,0.0,0.0,0.0,0.0,0.0,0.0,0.0,0.0,0.0,0.0,0.0,0.0,0.0,0.0,0.0,0.0,0.0,0.0,0.0,0.0,0.0,0.0,0.0,0.0,0.0,0.0,0.0,0.0,0.0,0.0,0.0,0.0,0.0,0.0,0.0,0.0,0.0,0.0,0.0,0.0,0.0,0.0,0.0,0.0,0.0,0.0,0.0,0.0,0.0,0.0,0.0,0.0,0.0,0.0,0.0,0.0,0.0,0.0,0.0,0.0,0.0,0.0,0.0,0.0,0.0,0.0,0.0,0.0,0.0,0.0,0.0,0.0,0.0,0.0,0.0,0.0,0.0,0.0,0.0,0.0,0.0,0.0,0.0,0.0,0.0,0.0,0.0,0.0,0.0,0.0,0.0,0.0,0.0,0.0,0.0,0.0,0.0,0.0,0.0,0.0,0.0,0.0,0.0,0.0,0.0,0.0,0.0,0.0,0.0,0.0,0.0,0.0,0.0,0.0,0.0,0.0,0.0,0.0,0.0,0.0,0.0,0.0,0.0,0.0,0.0,0.0,0.0,0.0,0.0,0.0,0.0,0.0,0.0,0.0,0.0,0.0,0.0,0.0,0.0,0.0,0.0,0.0,0.0,0.0,0.0,0.0,0.0,0.0,0.0,0.0,0.0,0.0,0.0,0.0,0.0,0.0,0.0,0.0,0.0,0.0,0.0,0.0,0.0,0.0,0.0,0.0,0.0,0.0,0.0,0.0,0.0,0.0,0.0,0.0,0.0,0.0,0.0,0.0,0.0,0.0,0.0,0.0,0.0,0.0,0.0,0.0,0.0,0.0,0.0,0.0,0.0,0.0,0.0,0.0,0.0,0.0,0.0,0.0,0.0,0.0,0.0,0.0,0.0,0.0,0.0,0.0,0.0,0.0,0.0,0.0,0.0,0.0,0.0,0.0,0.0,0.0,0.0,0.0,0.0,0.0,0.0,0.0,0.0,0.0,0.0,0.0,0.0,0.0,0.0,0.0,0.0,0.0,0.0,0.0,0.0,0.0,0.0,0.0,0.0,0.0,0.0,0.0,0.0,0.0,0.0,0.0,0.0,0.0,0.0,0.0,0.0,0.0,0.0,0.0,0.0,0.0,0.0,0.0,0.0,0.0,0.0,0.0,0.0,0.0,0.0,0.0,0.0,0.0,0.0,0.0,0.0,0.0,0.0,0.0,0.0,0.0,0.0,0.0,0.0,0.0,0.0,0.0,0.0,0.0,0.0,0.0,0.0,0.0,0.0,0.0,0.0,0.0,0.0,0.0,0.0,0.0,0.0,0.0,0.0,0.0,0.0,0.0,0.0,0.0,0.0,0.0,0.0,0.0,0.0,0.0,0.0,0.0,0.0,0.0,0.0,0.0,0.0,0.0,0.0,0.0,0.0,0.0,0.0,0.0,0.0,0.0,0.0,0.0,0.0,0.0,0.0,0.0,0.0,0.0,0.0,0.0,0.0,0.0,0.0,0.0,0.0,0.0,0.0,0.0,0.0,0.0,0.0,0.0,0.0,0.0,0.0,0.0,0.0,0.0,0.0,0.0,0.0,0.0,0.0,0.0,0.0,0.0,0.0,0.0,0.0,0.0,0.0,0.0,0.0,0.0,0.0,0.0,0.0,0.0,0.0,0.0,0.0,0.0,0.0,0.0,0.0,0.0,0.0,0.0,0.0,0.0,0.0,0.0,0.0,0.0,0.0,0.0,0.0,0.0,0.0,0.0,0.0,0.0,0.0,0.0,0.0,0.0,0.0,0.0,0.0,0.0,0.0,0.0,0.0,0.0,0.0,0.0,0.0,0.0,0.0,0.0,0.0,0.0,0.0,0.0,0.0,0.0,0.0,0.0,0.0,0.0,0.0,0.0,0.0,0.0,0.0,0.0,0.0,0.0,0.0,0.0,0.0,0.0,0.0,0.0,0.0,0.0,0.0,0.0,0.0,0.0,0.0,0.0,0.0,0.0,0.0,0.0,0.0,0.0,0.0,0.0,0.0,0.0,0.0,0.0,0.0,0.0,0.0,0.0,0.0,0.0,0.0,0.0,0.0,0.0,0.0,0.0,0.0,0.0,0.0,0.0,0.0,0.0,0.0,0.0,0.0,0.0,0.0,0.0,0.0,0.0,0.0,0.0,0.0,0.0,0.0,0.0,0.0,0.0,0.0,0.0,0.0,0.0,0.0,0.0,0.0,0.0,0.0,0.0,0.0,0.0,0.0,0.0,0.0,0.0,0.0,0.0,0.0,0.0,0.0,0.0,0.0,0.0,0.0,0.0,0.0,0.0,0.0,0.0,0.0,0.0,0.0,0.0,0.0,0.0,0.0,0.0,0.0,0.0,0.0,0.0,0.0,0.0,0.0,0.0,0.0,0.0,0.0,0.0,0.0,0.0,0.0,0.0,0.0,0.0,0.0,0.0,0.0,0.0,0.0,0.0,0.0,0.0,0.0,0.0,0.0,0.0,0.0,0.0,0.0,0.0,0.0,0.0,0.0,0.0,0.0,0.0,0.0,0.0,0.0,0.0,0.0,0.0,0.0,0.0,0.0,0.0,0.0,0.0,0.0,0.0,0.0,0.0,0.0,0.0,0.0,0.0,0.0,0.0,0.0,0.0,0.0,0.0,0.0,0.0,0.0,0.0,0.0,0.0,0.0,0.0,0.0,0.0,0.0,0.0,0.0,0.0,0.0,0.0,0.0,0.0,0.0,0.0,0.0,0.0,0.0,0.0,0.0,0.0,0.0,0.0,0.0,0.0,0.0,0.0,0.0,0.0,0.0,0.0,0.0,0.0,0.0,0.0,0.0,0.0,0.0,0.0,0.0,0.0,0.0,0.0,0.0,0.0,0.0,0.0,0.0,0.0,0.0,0.0,0.0,0.0,0.0,0.0,0.0,0.0,0.0,0.0,0.0,0.0,0.0,0.0,0.0,0.0,0.0,0.0,0.0,0.0,0.0,0.0,0.0,0.0,0.0,0.0,0.0,0.0,0.0,0.0,0.0,0.0,0.0,0.0,0.0,0.0,0.0,0.0,0.0,0.0,0.0,0.0,0.0,0.0,0.0,0.0,0.0,0.0,0.0,0.0,0.0,0.0,0.0,0.0,0.0,0.0,0.0,0.0,0.0,0.0,0.0,0.0,0.0,0.0,0.0,0.0,0.0,0.0,0.0,0.0,0.0,0.0,0.0,0.0,0.0,0.0,0.0,0.0,0.0,0.0,0.0,0.0,0.0,0.0,0.0,0.0,0.0,0.0,0.0,0.0,0.0,0.0,0.0,0.0,0.0,0.0,0.0,0.0,0.0,0.0,0.0,0.0,0.0,0.0,0.0,0.0,0.0,0.0,0.0,0.0,0.0,0.0,0.0,0.0,0.0,0.0,0.0,0.0,0.0,0.0,0.0,0.0,0.0,0.0,0.0,0.0,0.0,0.0,0.0,0.0,0.0,0.0,0.0,0.0,0.0,0.0,0.0,0.0,0.0,0.0,0.0,0.0,0.0,0.0,0.0,0.0,0.0,0.0]}]]]